[[{"header":{"parameterUnit":"m.s-1","parameterCategory":1,"la1":30.6,"la2":29.2853,"lo1":-89.7004,"lo2":-87.6739,"dy":0.0162,"dx":0.0183,"nx":112,"ny":82,"refTime":"2023-04-15T12:00:00:Z","depth":0,"parameterNumber":2,"parameterNumberName":"U-component_of_WINDS"},"data":[0.0,0.0,0.0,0.0,0.0,0.0,0.0,0.0,0.0,0.0,0.0,0.0,0.0,0.0,0.0,0.0,0.0,0.0,0.0,0.0,0.0,0.0,0.0,0.0,0.0,0.0,0.0,0.0,0.0,0.0,0.0,0.0,0.0,0.0,0.0,0.0,0.0,0.0,0.0,0.0,0.0,0.0,0.0,0.0,0.0,0.0,0.0,0.0,0.0,0.0,0.0,0.0,0.0,0.0,0.0,0.0,0.0,0.0,0.0,0.0,0.0,0.0,0.0,0.0,0.0,0.0,0.0,0.0,0.0,0.0,0.0,0.0,0.0,0.0,0.0,0.0,0.0,0.0,0.0,0.0,0.0,0.0,0.0,0.0,0.0,0.0,0.0,0.0,0.0,0.0,0.0,3.5669,3.8389,4.0114,4.0136,3.9985,3.8553,3.542,0.0,0.0,0.0,0.0,0.0,0.0,0.0,0.0,0.0,0.0,0.0,0.0,0.0,0.0,0.0,0.0,0.0,0.0,0.0,0.0,0.0,0.0,0.0,0.0,0.0,0.0,0.0,0.0,0.0,0.0,0.0,0.0,0.0,0.0,0.0,0.0,0.0,0.0,0.0,0.0,0.0,0.0,0.0,0.0,0.0,0.0,0.0,0.0,0.0,0.0,0.0,0.0,0.0,0.0,0.0,0.0,0.0,0.0,0.0,0.0,0.0,0.0,0.0,0.0,0.0,0.0,0.0,0.0,0.0,0.0,0.0,0.0,0.0,0.0,0.0,0.0,0.0,0.0,0.0,0.0,0.0,0.0,0.0,0.0,0.0,0.0,0.0,0.0,0.0,0.0,0.0,0.0,0.0,0.0,0.0,0.0,0.0,0.0,0.0,0.0,0.0,0.0,0.0,0.0,3.3313,3.6317,3.7617,3.8584,3.9307,3.8601,3.7254,3.5305,0.0,0.0,0.0,0.0,0.0,0.0,0.0,0.0,0.0,0.0,0.0,0.0,0.0,0.0,0.0,0.0,0.0,0.0,0.0,0.0,0.0,0.0,0.0,0.0,0.0,0.0,0.0,0.0,0.0,0.0,0.0,0.0,0.0,0.0,0.0,0.0,0.0,0.0,0.0,0.0,0.0,0.0,0.0,0.0,0.0,0.0,0.0,0.0,0.0,0.0,0.0,0.0,0.0,0.0,0.0,0.0,0.0,0.0,0.0,0.0,0.0,0.0,0.0,0.0,0.0,0.0,0.0,0.0,0.0,0.0,0.0,0.0,0.0,0.0,0.0,0.0,0.0,0.0,0.0,0.0,0.0,0.0,0.0,0.0,0.0,0.0,0.0,0.0,0.0,0.0,0.0,0.0,0.0,0.0,0.0,0.0,0.0,0.0,0.0,0.0,0.0,0.0,0.0,3.3166,3.4289,3.6712,3.802,3.8891,3.9264,3.83,3.7037,3.5407,3.4397,0.0,0.0,0.0,0.0,0.0,0.0,0.0,0.0,0.0,0.0,0.0,0.0,0.0,0.0,0.0,0.0,0.0,0.0,0.0,0.0,0.0,0.0,0.0,0.0,0.0,0.0,0.0,0.0,0.0,0.0,0.0,0.0,0.0,0.0,0.0,0.0,0.0,0.0,0.0,0.0,0.0,0.0,0.0,0.0,0.0,0.0,0.0,0.0,0.0,0.0,0.0,0.0,0.0,0.0,0.0,0.0,0.0,0.0,0.0,0.0,0.0,0.0,0.0,0.0,0.0,0.0,0.0,0.0,0.0,0.0,0.0,0.0,0.0,0.0,0.0,0.0,0.0,0.0,0.0,0.0,0.0,0.0,0.0,0.0,0.0,0.0,0.0,0.0,0.0,0.0,0.0,0.0,0.0,0.0,0.0,0.0,0.0,0.0,0.0,0.0,0.0,0.0,3.4739,3.5498,3.6701,3.8227,3.9148,3.9138,3.8127,3.688,3.5482,3.3555,0.0,0.0,0.0,0.0,0.0,0.0,0.0,0.0,0.0,0.0,0.0,0.0,0.0,0.0,0.0,0.0,0.0,0.0,0.0,0.0,0.0,0.0,0.0,0.0,0.0,0.0,0.0,0.0,0.0,0.0,0.0,0.0,0.0,0.0,0.0,0.0,0.0,0.0,0.0,0.0,0.0,0.0,0.0,0.0,0.0,0.0,0.0,0.0,0.0,0.0,0.0,0.0,0.0,0.0,0.0,0.0,0.0,0.0,0.0,0.0,0.0,0.0,0.0,0.0,0.0,0.0,0.0,0.0,0.0,0.0,0.0,0.0,0.0,0.0,0.0,0.0,0.0,0.0,0.0,0.0,0.0,0.0,0.0,0.0,0.0,0.0,0.0,0.0,0.0,0.0,0.0,0.0,0.0,0.0,0.0,0.0,0.0,0.0,0.0,0.0,0.0,0.0,3.4898,3.5949,3.6056,3.7469,3.8377,3.8399,3.7461,3.6433,3.5457,3.318,0.0,0.0,0.0,0.0,0.0,0.0,0.0,0.0,0.0,0.0,0.0,0.0,0.0,0.0,0.0,0.0,0.0,0.0,0.0,0.0,0.0,0.0,0.0,0.0,0.0,0.0,0.0,0.0,0.0,0.0,0.0,0.0,0.0,0.0,0.0,0.0,0.0,0.0,0.0,0.0,0.0,0.0,0.0,0.0,0.0,0.0,0.0,0.0,0.0,0.0,0.0,0.0,0.0,0.0,0.0,0.0,0.0,0.0,0.0,0.0,0.0,0.0,0.0,0.0,0.0,0.0,0.0,0.0,0.0,0.0,0.0,0.0,0.0,0.0,0.0,0.0,0.0,0.0,0.0,0.0,0.0,0.0,0.0,0.0,0.0,0.0,0.0,0.0,0.0,0.0,0.0,0.0,0.0,0.0,0.0,0.0,0.0,0.0,0.0,0.0,0.0,0.0,3.4432,3.5405,0.0,3.7375,3.8118,3.7637,3.7152,3.651,3.5689,0.0,0.0,0.0,0.0,0.0,0.0,0.0,0.0,0.0,0.0,0.0,0.0,0.0,0.0,0.0,0.0,0.0,0.0,0.0,0.0,0.0,0.0,0.0,0.0,0.0,0.0,0.0,0.0,0.0,0.0,0.0,0.0,0.0,0.0,0.0,0.0,0.0,0.0,0.0,0.0,0.0,0.0,0.0,0.0,0.0,0.0,0.0,0.0,0.0,0.0,0.0,0.0,0.0,0.0,0.0,0.0,0.0,0.0,0.0,0.0,0.0,0.0,0.0,0.0,0.0,0.0,0.0,0.0,0.0,0.0,0.0,0.0,0.0,0.0,0.0,0.0,0.0,0.0,0.0,0.0,0.0,0.0,0.0,0.0,0.0,0.0,0.0,0.0,0.0,0.0,0.0,0.0,0.0,0.0,0.0,0.0,0.0,0.0,0.0,0.0,0.0,0.0,3.3339,3.4393,3.533,0.0,3.7206,3.777,3.7249,3.6579,3.6082,3.5834,0.0,0.0,0.0,0.0,0.0,0.0,0.0,0.0,0.0,0.0,0.0,0.0,0.0,0.0,0.0,0.0,0.0,0.0,0.0,0.0,0.0,0.0,0.0,0.0,0.0,0.0,0.0,0.0,0.0,0.0,0.0,0.0,0.0,0.0,0.0,0.0,0.0,0.0,0.0,0.0,0.0,0.0,0.0,0.0,0.0,0.0,0.0,0.0,0.0,0.0,0.0,0.0,0.0,0.0,0.0,0.0,0.0,0.0,0.0,0.0,0.0,0.0,0.0,0.0,0.0,0.0,0.0,0.0,0.0,0.0,0.0,0.0,0.0,0.0,0.0,0.0,0.0,0.0,0.0,0.0,0.0,0.0,0.0,0.0,0.0,0.0,0.0,0.0,0.0,0.0,0.0,0.0,0.0,0.0,0.0,0.0,0.0,0.0,0.0,0.0,0.0,0.0,3.3417,3.4937,3.5991,3.5991,3.6765,3.7262,3.7175,3.5646,3.5026,0.0,0.0,0.0,0.0,0.0,0.0,0.0,0.0,0.0,0.0,0.0,0.0,0.0,0.0,0.0,0.0,0.0,0.0,0.0,0.0,0.0,0.0,0.0,0.0,0.0,0.0,0.0,0.0,0.0,0.0,0.0,0.0,0.0,0.0,0.0,0.0,0.0,0.0,0.0,0.0,0.0,0.0,0.0,0.0,0.0,0.0,0.0,0.0,0.0,0.0,0.0,0.0,0.0,0.0,0.0,0.0,0.0,0.0,0.0,0.0,0.0,0.0,0.0,0.0,0.0,0.0,0.0,0.0,0.0,0.0,0.0,0.0,0.0,0.0,0.0,0.0,0.0,0.0,0.0,0.0,0.0,0.0,0.0,0.0,0.0,0.0,0.0,0.0,0.0,0.0,0.0,0.0,0.0,0.0,0.0,0.0,0.0,0.0,0.0,0.0,0.0,0.0,0.0,3.3417,3.4937,3.5991,3.5991,3.6771,3.7038,3.6395,3.5342,3.5013,3.5827,0.0,0.0,0.0,0.0,0.0,0.0,0.0,0.0,0.0,0.0,0.0,0.0,0.0,0.0,0.0,0.0,0.0,0.0,0.0,0.0,0.0,0.0,0.0,0.0,0.0,0.0,0.0,0.0,0.0,0.0,0.0,0.0,0.0,0.0,0.0,0.0,0.0,0.0,0.0,0.0,0.0,0.0,0.0,0.0,0.0,0.0,0.0,0.0,0.0,0.0,0.0,0.0,0.0,0.0,0.0,0.0,0.0,0.0,0.0,0.0,0.0,0.0,0.0,0.0,0.0,0.0,0.0,0.0,0.0,0.0,0.0,0.0,0.0,0.0,0.0,0.0,0.0,0.0,0.0,0.0,0.0,0.0,0.0,0.0,0.0,0.0,0.0,0.0,0.0,0.0,0.0,0.0,0.0,0.0,0.0,0.0,0.0,0.0,0.0,0.0,0.0,0.0,3.3417,3.4937,3.5991,3.5991,3.6462,3.6573,3.6052,3.519,3.4909,3.5393,0.0,0.0,0.0,0.0,0.0,0.0,0.0,0.0,0.0,0.0,0.0,0.0,0.0,0.0,0.0,0.0,0.0,0.0,0.0,0.0,0.0,0.0,0.0,0.0,0.0,0.0,0.0,0.0,0.0,0.0,0.0,0.0,0.0,0.0,0.0,0.0,0.0,0.0,0.0,0.0,0.0,0.0,0.0,0.0,0.0,0.0,0.0,0.0,0.0,0.0,0.0,0.0,0.0,0.0,0.0,0.0,0.0,0.0,0.0,0.0,0.0,0.0,0.0,0.0,0.0,0.0,0.0,0.0,0.0,0.0,0.0,0.0,0.0,0.0,0.0,0.0,0.0,0.0,0.0,0.0,0.0,0.0,0.0,0.0,0.0,0.0,0.0,0.0,0.0,0.0,0.0,0.0,0.0,0.0,0.0,0.0,0.0,0.0,0.0,0.0,0.0,0.0,3.3495,3.4979,3.5991,3.5991,3.5991,3.5988,3.5981,3.5194,3.4714,3.4701,0.0,0.0,0.0,0.0,0.0,0.0,0.0,0.0,0.0,0.0,0.0,0.0,0.0,0.0,0.0,0.0,0.0,0.0,0.0,0.0,0.0,0.0,0.0,0.0,0.0,0.0,0.0,0.0,0.0,0.0,0.0,0.0,0.0,0.0,0.0,0.0,0.0,0.0,0.0,0.0,0.0,0.0,0.0,0.0,0.0,0.0,0.0,0.0,0.0,0.0,0.0,0.0,0.0,0.0,0.0,0.0,0.0,0.0,0.0,0.0,3.1584,0.0,0.0,0.0,0.0,0.0,0.0,0.0,0.0,0.0,0.0,0.0,0.0,0.0,0.0,0.0,0.0,0.0,0.0,0.0,0.0,0.0,0.0,0.0,0.0,0.0,0.0,0.0,0.0,0.0,0.0,0.0,0.0,0.0,0.0,0.0,0.0,0.0,0.0,0.0,0.0,0.0,3.4315,3.5369,3.5991,3.5991,3.5991,3.5988,3.5981,3.5197,3.4683,3.4705,3.4038,0.0,0.0,0.0,0.0,0.0,0.0,0.0,0.0,0.0,0.0,0.0,0.0,0.0,0.0,0.0,0.0,0.0,0.0,0.0,0.0,0.0,0.0,0.0,0.0,0.0,0.0,0.0,0.0,0.0,0.0,0.0,0.0,0.0,0.0,0.0,0.0,0.0,0.0,0.0,0.0,0.0,0.0,0.0,0.0,0.0,0.0,0.0,0.0,0.0,0.0,0.0,0.0,0.0,0.0,0.0,0.0,0.0,0.0,0.0,0.0,3.2586,0.0,0.0,0.0,0.0,0.0,0.0,0.0,0.0,0.0,0.0,0.0,0.0,0.0,0.0,0.0,0.0,0.0,0.0,0.0,0.0,0.0,0.0,0.0,0.0,0.0,0.0,0.0,0.0,0.0,0.0,0.0,0.0,0.0,0.0,0.0,0.0,0.0,0.0,0.0,0.0,3.4627,3.5447,3.5991,3.5991,3.5991,3.5991,3.5988,3.5594,3.5155,3.471,3.4627,0.0,0.0,0.0,0.0,0.0,0.0,0.0,0.0,0.0,0.0,0.0,0.0,0.0,0.0,0.0,0.0,0.0,0.0,0.0,0.0,0.0,0.0,0.0,0.0,0.0,0.0,0.0,0.0,0.0,0.0,0.0,0.0,0.0,0.0,0.0,0.0,0.0,0.0,0.0,0.0,0.0,0.0,0.0,0.0,0.0,0.0,0.0,0.0,0.0,0.0,0.0,0.0,0.0,3.1965,3.205,3.1351,3.1506,3.1972,3.2703,3.3254,3.3448,3.3293,3.3301,0.0,0.0,0.0,0.0,0.0,0.0,0.0,0.0,0.0,0.0,0.0,0.0,0.0,0.0,0.0,0.0,0.0,0.0,0.0,0.0,0.0,0.0,0.0,0.0,3.4159,3.3612,0.0,0.0,0.0,0.0,0.0,0.0,0.0,0.0,0.0,0.0,0.0,0.0,3.4705,3.5447,3.5991,3.5991,3.5991,3.5991,3.5991,3.5985,3.5627,3.4757,3.5334,3.5359,0.0,0.0,0.0,0.0,0.0,0.0,0.0,0.0,0.0,0.0,0.0,0.0,0.0,0.0,0.0,0.0,0.0,0.0,0.0,0.0,0.0,0.0,0.0,0.0,0.0,0.0,0.0,0.0,0.0,0.0,0.0,0.0,2.9747,3.052,0.0,0.0,0.0,0.0,0.0,0.0,0.0,0.0,0.0,0.0,0.0,0.0,0.0,3.101,3.1654,3.1887,3.1926,3.1848,3.341,3.4109,3.4031,3.4769,3.5197,3.5274,3.4614,0.0,3.3293,3.329,0.0,0.0,0.0,0.0,0.0,0.0,0.0,0.0,0.0,0.0,0.0,0.0,0.0,0.0,0.0,0.0,0.0,0.0,0.0,0.0,0.0,0.0,3.4705,3.4705,3.4627,3.4549,0.0,3.4003,3.3768,3.4393,3.412,0.0,0.0,0.0,0.0,0.0,0.0,0.0,3.4705,3.5447,3.5991,3.5991,3.5991,3.5991,3.5991,3.5985,3.5627,3.4757,3.4788,3.4696,3.4252,3.4252,0.0,0.0,0.0,0.0,0.0,0.0,0.0,0.0,0.0,0.0,0.0,0.0,0.0,0.0,0.0,0.0,0.0,0.0,0.0,0.0,0.0,0.0,0.0,0.0,0.0,0.0,0.0,0.0,0.0,2.9979,3.0115,3.0559,3.0598,3.0598,0.0,0.0,0.0,0.0,0.0,0.0,0.0,0.0,0.0,3.1204,3.1367,3.1608,3.2004,3.2943,3.3177,3.2749,3.3915,3.4264,3.3837,3.4225,3.4381,3.4381,3.3992,3.3876,3.3954,3.351,3.3283,3.329,0.0,0.0,0.0,0.0,3.3312,3.3363,3.3293,3.3665,0.0,3.3484,0.0,0.0,0.0,0.0,0.0,0.0,0.0,0.0,0.0,0.0,3.5447,3.5447,3.5057,3.4705,3.4705,3.3612,3.3222,0.0,3.4744,3.4393,3.5291,0.0,0.0,0.0,0.0,3.4861,3.5369,3.5759,3.5991,3.5991,3.5991,3.5991,3.5991,3.5985,3.5861,3.5459,3.5412,3.532,3.5148,3.5148,3.5382,0.0,0.0,0.0,0.0,0.0,0.0,0.0,0.0,0.0,0.0,0.0,0.0,0.0,0.0,0.0,0.0,0.0,0.0,0.0,0.0,0.0,0.0,0.0,0.0,0.0,0.0,0.0,0.0,3.0297,3.0289,3.054,3.0588,3.0598,0.0,0.0,0.0,0.0,0.0,0.0,3.0909,3.1002,3.1212,3.1678,3.2089,3.2453,3.2647,3.3891,3.4241,3.3658,3.4466,3.4536,3.3954,3.4187,3.4148,3.3954,3.3954,3.4148,3.4466,3.386,3.3647,3.3621,3.3654,3.3517,3.3312,3.329,3.3327,3.3363,3.3332,3.3769,3.4222,3.3531,0.0,3.4328,3.4374,0.0,0.0,0.0,0.0,3.5991,3.5991,3.5837,3.5681,3.5681,3.5174,3.4705,3.4705,3.3846,3.3495,0.0,3.4315,3.3964,3.4861,0.0,0.0,0.0,0.0,3.5174,3.5603,3.5876,3.5991,3.5991,3.5991,3.5991,3.5991,3.5985,3.6013,3.6005,3.5953,3.5899,3.5889,3.5889,3.5889,3.5889,0.0,0.0,0.0,0.0,0.0,0.0,0.0,0.0,0.0,0.0,0.0,0.0,0.0,0.0,0.0,0.0,0.0,0.0,0.0,0.0,0.0,0.0,0.0,0.0,0.0,0.0,0.0,0.0,0.0,3.0413,3.0569,0.0,0.0,0.0,0.0,3.0595,3.0676,3.1049,3.1786,3.188,3.2672,3.4264,3.3602,3.3621,3.4478,3.4555,3.4555,3.4555,3.5329,3.5702,3.5702,3.6518,3.6479,3.5663,3.5663,3.5236,3.4505,3.4536,3.4542,3.4555,3.4618,3.4062,3.331,3.3301,3.3317,3.3283,3.3317,3.3317,3.3356,3.3323,3.3332,3.3383,3.3436,3.4058,0.0,0.0,3.5369,3.5991,3.5991,3.5408,3.4783,3.4783,3.4744,3.4705,3.4705,3.5291,3.5096,0.0,3.1582,3.127,3.2168,0.0,3.3417,3.3534,3.4901,3.5642,3.4861,3.5486,3.5991,3.5991,3.5991,3.5991,3.5991,3.6017,3.6005,3.6005,3.5943,3.5889,3.5889,3.5889,3.5889,3.5889,3.5889,0.0,0.0,0.0,0.0,0.0,0.0,0.0,0.0,0.0,0.0,0.0,0.0,0.0,0.0,0.0,0.0,0.0,0.0,0.0,0.0,0.0,0.0,0.0,0.0,0.0,0.0,0.0,0.0,3.2011,3.2111,0.0,3.2171,3.2192,3.2232,3.2279,3.2296,3.2438,3.278,3.2819,3.3099,3.372,3.3969,3.4209,3.452,3.5132,3.5398,3.5376,3.5694,3.5842,3.5818,3.6129,3.609,3.5818,3.5818,3.5624,3.5352,3.5412,3.5126,3.4586,3.4631,3.4759,3.4964,3.4974,3.4666,3.4207,3.4195,3.42,3.4278,3.4874,3.4996,3.4999,3.5035,3.5298,3.5525,3.5525,3.5759,3.5991,3.5991,3.5759,3.5525,3.5525,3.5096,3.4705,3.4705,3.451,3.4042,3.3105,3.3144,3.3573,3.4471,3.3925,3.3964,3.5642,3.5486,3.5447,3.6267,3.615,3.5991,3.5991,3.5991,3.5991,3.5991,3.5981,3.6013,3.6005,3.5948,3.5894,3.5883,3.5883,3.5883,3.5883,3.5889,3.5917,0.0,0.0,0.0,0.0,0.0,0.0,0.0,0.0,0.0,0.0,0.0,0.0,0.0,0.0,0.0,0.0,0.0,0.0,0.0,0.0,0.0,0.0,0.0,0.0,0.0,0.0,3.2004,3.2851,3.2991,3.3026,3.3076,3.333,3.345,3.319,3.3451,3.368,3.3713,3.372,3.3837,3.4148,3.4668,3.4987,3.4987,3.5599,3.5872,3.5842,3.5857,3.5842,3.5818,3.609,3.609,3.5818,3.6129,3.609,3.5818,3.585,3.5541,3.4993,3.4748,3.4803,3.5022,3.5065,3.4705,3.4233,3.4228,3.4237,3.4317,3.4916,3.5073,3.5032,3.5078,3.5271,3.5544,3.5577,3.5966,3.6355,3.6072,3.6228,3.6345,3.6069,3.5564,3.5135,3.5135,3.4673,3.4246,3.4276,3.4276,3.4432,3.5018,3.4393,3.4549,3.6579,3.5876,3.5642,3.7126,3.654,3.5991,3.5991,3.5991,3.5991,3.5991,3.5981,3.6009,3.6005,3.5948,3.644,3.7609,3.7648,3.7097,3.5922,3.5883,3.6462,3.7534,0.0,0.0,0.0,0.0,0.0,0.0,0.0,0.0,0.0,0.0,0.0,0.0,0.0,0.0,0.0,0.0,0.0,0.0,0.0,0.0,0.0,0.0,0.0,3.1469,3.1699,3.2097,3.2954,3.3108,3.3157,3.3171,3.3948,3.4146,3.3295,3.4032,3.4533,3.4542,3.4528,3.4925,3.5779,3.5857,3.5917,3.5917,3.5878,3.5878,3.5917,3.5842,3.5818,3.5818,3.6673,3.6595,3.5857,3.6673,3.6595,3.5818,3.5818,3.5826,3.5811,3.5022,3.4198,3.3439,3.3501,3.3478,3.3466,3.3388,3.3412,3.3439,3.3395,3.3395,3.3361,3.3363,3.3958,3.4669,3.4764,3.5937,3.6992,3.6235,3.6657,3.7048,3.6189,3.5994,3.5994,3.5996,3.5933,3.5937,3.6001,3.4669,3.3498,3.3534,3.4198,3.5057,3.5955,3.6108,0.0,3.7243,3.6579,3.5991,3.5991,3.5991,3.603,3.615,3.6052,3.604,3.6161,3.6016,3.7414,4.0783,4.0933,3.9408,3.6117,3.5961,3.7487,4.0627,0.0,0.0,0.0,0.0,0.0,0.0,0.0,0.0,0.0,0.0,0.0,0.0,0.0,0.0,0.0,0.0,0.0,0.0,0.0,0.0,0.0,0.0,3.2425,3.2881,3.3625,3.471,3.6343,3.6541,3.6584,3.6625,3.6331,3.6072,3.5847,3.5563,3.5378,3.5435,3.5452,3.5546,3.5779,3.5826,3.5834,3.5834,3.5864,3.5864,3.5834,3.5857,3.585,3.5818,3.6051,3.6051,3.5818,3.6051,3.6012,3.5818,3.5818,3.585,3.5898,3.5655,3.5816,3.6128,3.6153,3.6508,3.6816,3.5615,3.5588,3.6027,3.5396,3.5197,3.5201,3.5207,3.5366,3.5681,3.6313,3.6394,3.636,3.6758,3.6561,3.6209,3.5976,3.597,3.5966,3.5891,3.589,3.6087,3.6662,3.5957,3.5423,3.6118,3.5916,3.6267,3.818,3.8141,0.0,3.8219,3.6928,3.5991,3.5991,3.5991,3.7009,3.9471,3.7435,3.7074,3.9525,3.7327,3.6338,3.7292,3.7331,3.8077,3.9647,3.719,3.6352,0.0,0.0,0.0,0.0,0.0,0.0,0.0,0.0,0.0,0.0,0.0,0.0,0.0,0.0,0.0,0.0,0.0,0.0,0.0,0.0,0.0,0.0,3.2182,3.3696,3.4674,3.5191,3.6042,3.7677,3.7571,3.7425,3.743,3.7063,3.6652,3.6342,3.6256,3.6076,3.5786,3.5784,3.5801,3.581,3.5818,3.5818,3.5818,3.5842,3.5842,3.5818,3.5842,3.5842,3.5818,3.5818,3.5818,0.0,3.5818,3.5818,3.5818,3.5818,3.5842,0.0,0.0,0.0,0.0,0.0,3.7687,3.8238,3.7303,3.704,3.7054,3.6567,3.6172,3.5938,3.6289,3.6406,3.6567,3.7444,3.7605,3.7539,3.768,3.7608,3.7413,3.7016,3.6791,3.6637,3.6559,3.6196,3.6001,3.646,3.6757,0.0,3.7653,3.7383,3.7537,3.8863,3.8812,3.884,3.9546,3.7513,3.5991,3.5991,3.7282,3.8921,4.0915,3.7982,0.0,0.0,0.0,3.6572,3.8032,3.6663,0.0,0.0,0.0,3.5885,3.5892,0.0,0.0,0.0,4.0921,4.0991,0.0,0.0,0.0,0.0,0.0,0.0,0.0,0.0,0.0,0.0,0.0,0.0,0.0,0.0,0.0,0.0,3.302,3.484,3.657,3.6506,3.6672,3.7768,3.7348,3.6934,3.6834,3.6829,3.6485,3.5676,3.6342,3.645,3.5736,0.0,0.0,0.0,0.0,3.5888,3.581,3.5888,3.5888,3.581,3.581,3.581,3.581,3.581,3.581,3.581,3.581,3.581,3.5818,3.5818,3.5842,3.5924,3.5988,3.6039,3.6111,3.6936,3.7817,3.8548,3.8438,0.0,0.0,3.7148,3.6595,3.609,3.6867,3.71,3.7311,3.8273,3.9033,3.9396,3.8688,3.897,3.9282,3.8566,3.8054,3.7698,3.7687,3.6858,3.6083,3.6066,3.7131,3.8159,3.8578,3.8467,3.8419,3.8825,3.8864,3.9435,4.0915,3.845,3.6573,3.6573,0.0,0.0,4.1111,3.7975,3.4686,3.1562,3.4237,3.7308,4.0388,3.7525,3.5917,3.5917,3.6306,3.6501,3.6501,3.9597,4.1117,4.1117,4.1116,4.1101,0.0,0.0,0.0,0.0,0.0,0.0,0.0,0.0,0.0,0.0,0.0,0.0,0.0,0.0,0.0,3.2956,3.5046,3.6728,3.7275,3.733,3.7679,3.8595,3.8682,3.8367,3.7709,3.7094,3.6636,3.6483,3.6074,3.5797,3.5637,3.5669,3.5737,3.5718,3.6416,3.6416,3.5718,3.6416,3.6416,3.5718,0.0,0.0,3.5718,3.5718,3.5727,3.5784,3.5784,3.5801,3.5818,3.5818,3.5842,3.5963,3.6625,3.6858,3.6975,3.7824,3.8696,3.9371,3.8657,3.8766,3.8974,3.7566,3.6984,3.6867,3.7061,3.71,0.0,3.9021,3.9069,3.8735,3.9052,3.8559,3.8085,3.833,3.833,3.8206,3.8132,3.8003,3.7865,3.7771,3.6925,3.7069,3.9874,3.8205,3.7425,4.0191,4.0622,4.0742,4.1074,4.0522,4.0093,4.0093,4.0717,4.1108,4.1111,3.7982,3.5711,3.5041,3.5568,3.6211,3.6869,3.6273,3.5917,3.5883,3.8656,4.0103,4.0097,4.0766,4.1117,4.111,4.1104,4.1104,0.0,0.0,0.0,0.0,0.0,0.0,0.0,0.0,0.0,0.0,0.0,3.0294,0.0,0.0,3.3735,3.454,3.5781,3.6991,3.7881,3.7886,3.8028,3.8643,3.8061,3.7486,3.7239,3.6895,3.6517,3.6094,3.6138,3.6009,3.562,3.6052,3.6317,3.6348,3.6784,3.6784,3.6367,3.6367,3.6135,3.5708,3.5708,3.5708,3.5708,3.5708,3.5718,3.5766,3.5766,3.5775,3.5801,3.581,3.5826,3.5889,3.6277,3.6713,3.7155,3.7583,3.8299,3.9004,3.8563,3.8399,3.8266,3.7372,3.6789,3.6595,3.7489,3.7761,3.811,3.982,3.9975,3.9703,4.0023,3.9634,3.9276,3.9529,3.9606,3.9557,3.9518,3.9533,3.9572,3.9521,3.8813,3.8774,4.05,3.9486,3.8991,4.0672,4.1052,4.1091,4.1114,4.1108,4.1108,4.1108,4.1108,4.1108,4.1108,3.7985,3.5988,3.6017,3.5923,3.5909,3.5894,3.5883,3.6735,3.8461,4.022,4.1117,4.111,4.111,4.111,4.111,4.111,4.111,0.0,0.0,0.0,0.0,0.0,0.0,0.0,0.0,3.0808,3.0654,3.1217,3.1909,3.2581,3.3923,3.5121,3.5711,3.6224,3.6894,3.8063,3.7956,3.7936,3.8296,3.7327,3.6502,3.6344,3.6654,3.6511,3.5675,3.6389,3.6594,3.5945,3.6665,3.71,3.7246,3.7383,3.7394,3.7239,3.6696,3.6348,3.6193,3.6193,3.6193,3.6193,3.6193,3.6193,3.6164,3.6009,3.5873,3.5775,3.5801,3.581,3.581,3.581,3.6223,3.6876,3.7031,3.7561,3.8149,3.8343,3.7955,3.7333,3.7178,3.6634,3.6362,3.7916,3.8382,3.8732,4.0432,4.0898,4.0888,4.0915,4.0854,4.0804,4.0784,4.081,4.081,4.081,4.081,4.081,4.081,4.081,4.081,4.081,4.081,4.0837,4.0883,4.1008,4.109,4.1082,4.1119,4.1116,4.1111,4.1108,4.1108,4.1111,3.8576,3.6972,3.6992,3.6946,3.6894,3.6923,3.6902,3.8221,4.1039,4.1117,4.111,4.111,4.111,4.111,4.111,4.111,4.111,3.2354,3.2564,3.2219,3.0783,3.1861,3.293,0.0,0.0,3.3186,3.3194,3.3239,3.3473,3.428,3.5121,3.5711,3.5783,3.7011,3.7805,3.7261,3.7112,3.7259,3.7664,3.8075,3.7629,3.5948,3.6725,3.707,3.6432,3.6873,3.711,3.7025,3.744,3.7829,3.8063,3.881,3.8849,3.8063,3.8733,3.8694,3.7909,3.7909,3.7909,3.7909,3.7909,3.7931,3.7876,3.7161,3.6406,3.5708,3.5775,3.5784,3.5784,3.581,3.5857,3.6051,3.6798,3.7139,3.7372,3.811,3.8343,3.811,3.7333,3.7023,3.7139,3.811,3.8382,3.8771,4.0413,4.0907,4.0897,4.092,4.0897,4.0858,4.0822,4.081,4.081,4.081,4.081,4.081,4.081,4.081,4.081,4.081,4.081,4.0881,4.1107,4.1116,4.1106,4.1091,4.1094,4.1091,4.1111,4.1108,4.1111,4.1111,4.0737,4.0542,4.0512,4.0504,4.053,4.0521,4.0499,4.0688,4.1078,4.111,4.111,4.111,4.111,4.111,4.111,4.111,4.111,3.2366,3.196,0.0,0.0,3.3296,3.3578,3.334,3.3814,3.4287,3.4207,3.4171,3.457,3.581,3.619,3.6489,0.0,3.7174,3.7354,3.7499,3.7268,3.6958,3.6668,3.8322,3.859,3.6316,3.7159,3.7662,3.7219,3.8083,3.8188,3.7319,3.7909,3.8326,3.8448,3.886,3.8914,3.8569,3.8447,3.8277,3.8015,3.8015,3.8093,3.8218,3.8218,3.8179,3.8152,3.7334,3.6802,3.6425,3.5941,3.5718,3.5766,3.5784,3.5793,3.584,3.6198,3.6323,3.6401,3.6751,3.6906,3.6828,3.6479,3.6323,3.6518,3.7372,3.7635,3.8092,4.0306,4.0878,4.0848,4.0854,4.0843,4.082,4.0796,4.0796,4.0784,4.0822,4.081,4.081,4.081,4.081,4.081,4.081,4.0784,4.0858,4.0953,4.0952,4.0928,4.0994,4.1043,4.1089,4.1093,3.9335,3.8085,3.8007,3.9918,4.109,4.1094,4.1094,4.109,4.1111,4.1101,4.1115,4.111,4.111,4.111,4.111,4.111,4.111,4.111,4.111,4.111,3.2533,0.0,0.0,3.432,3.4593,3.4368,3.492,3.5248,3.5436,3.5597,3.5634,3.5991,3.7054,3.7138,3.7144,3.7503,3.7288,3.718,3.7608,3.7489,3.7257,3.693,3.8511,3.9032,3.7612,3.8216,3.8501,3.8027,3.886,3.8954,3.7964,3.8521,3.8888,3.8971,3.9051,3.909,3.909,3.8537,3.8323,3.846,3.846,3.8539,3.8695,3.8556,3.835,3.808,3.729,3.6975,3.6897,3.6038,3.5854,3.6048,3.5843,3.5775,3.5775,3.5754,3.5763,3.5801,3.5801,3.5754,3.5754,3.5754,3.5793,3.5996,3.6928,3.6996,3.7327,4.0102,4.0868,4.0798,4.0815,4.0095,3.9375,3.9391,4.0099,4.0796,4.0822,4.0822,4.0784,4.081,4.081,4.0822,4.0784,4.0796,4.0486,3.9545,3.9374,3.976,4.0755,4.098,4.1033,4.1033,3.8834,3.7308,3.7201,3.8717,4.0044,4.0994,4.1038,4.105,4.1053,4.1089,4.1111,4.1089,4.1089,4.1084,4.111,4.111,4.111,4.111,4.111,4.111,0.0,0.0,3.4796,3.499,3.5403,3.5836,3.5964,3.649,3.7156,3.792,3.8065,3.8068,3.7898,3.7863,3.7611,3.6856,3.7359,3.768,3.7123,3.7667,3.8461,3.9291,3.8806,3.883,0.0,4.0215,3.9777,3.8759,3.8855,3.9082,3.9427,3.9462,3.9588,3.985,3.985,3.985,3.985,3.985,3.9812,3.9832,3.9832,3.989,4.0024,3.9451,3.8723,3.7892,3.7192,3.6903,3.6826,3.6046,3.6211,3.6869,3.6048,3.5708,3.5708,3.5708,3.5727,3.5775,3.5718,3.5708,3.5708,3.5708,3.5747,3.6018,3.7153,3.6716,3.6551,3.9934,4.0904,4.0865,4.0831,3.8334,3.584,3.5828,3.84,4.0808,4.0784,4.0784,4.0796,4.0822,4.081,4.0784,4.0796,4.0808,3.9661,3.6354,3.5869,3.7094,4.0446,4.0881,4.0915,4.0915,4.0803,4.0755,4.075,3.7786,3.7391,4.0717,4.0918,4.0928,4.0897,4.1015,4.1089,4.1094,4.1094,4.1115,4.111,4.111,4.111,4.111,4.111,4.111,3.2483,0.0,3.5111,3.62,3.6552,3.6789,3.7334,3.7627,3.7848,3.8138,3.7672,3.7174,3.7106,3.6968,3.6826,3.654,3.729,3.7827,3.7643,3.7962,3.8316,3.857,3.9067,0.0,0.0,0.0,0.0,3.8936,3.9616,4.0028,4.0076,4.0588,4.0707,4.0251,4.0265,4.0027,3.9427,3.9513,3.9632,3.9716,3.9827,3.9946,3.9966,3.9776,3.9546,3.9315,3.8654,3.8397,3.8348,3.7035,3.6682,3.6837,3.6017,3.6066,3.657,3.657,3.6919,3.7239,3.6086,3.5708,3.5708,3.5708,3.5747,3.5863,3.6251,3.6086,3.5989,3.72,3.7489,3.7428,3.7428,3.6571,3.5685,3.5685,3.8322,4.0176,3.7899,3.9199,4.0784,4.081,4.081,4.0784,4.0796,3.8914,3.7046,3.5869,3.5753,3.6182,3.7364,3.7514,3.8393,4.0673,4.089,4.0898,4.0889,3.9848,3.9684,4.0818,4.0889,4.0883,4.0894,4.103,4.1089,4.109,4.1084,4.1108,4.1115,4.1115,4.11,4.111,4.111,4.111,3.2955,3.4496,3.6069,3.7348,3.7725,3.7917,3.8171,3.8207,3.8174,3.8174,3.7388,3.6748,3.6967,3.6683,3.6364,3.6328,3.6934,3.7575,3.7863,3.7819,3.8138,3.9188,3.9799,3.9977,0.0,0.0,0.0,3.9534,4.0325,4.0711,4.0296,4.1134,4.1349,4.0828,4.0886,4.0477,3.9621,3.9974,4.0109,3.9877,3.9708,3.9649,3.9611,3.9153,3.914,3.9467,3.8532,3.829,3.853,3.756,3.6986,3.6691,3.6473,3.655,3.6832,3.7128,3.7463,3.7668,3.6848,3.6492,3.6288,3.6299,3.6066,3.5746,3.5756,3.5746,3.5697,3.5764,3.5742,3.5693,3.5693,3.5681,3.6018,3.7228,3.9197,4.0215,3.8015,3.9238,4.0784,4.081,4.081,4.0784,4.0796,3.7962,3.6095,3.7334,3.6527,3.5742,3.5776,3.5766,3.6619,3.882,4.0141,4.0393,3.9189,3.9072,3.9587,4.0809,4.0917,4.0913,4.0916,4.0972,4.1055,4.1091,4.1094,4.109,4.1108,4.1108,4.1101,4.1115,4.11,4.1095,3.4829,3.6504,3.7864,3.8343,3.8997,3.9259,3.8495,3.828,3.8246,3.821,3.7388,3.6858,0.0,0.0,3.6328,3.6112,3.6506,3.7072,3.7862,3.7494,3.8174,0.0,0.0,0.0,0.0,0.0,0.0,4.0588,0.0,4.1034,4.0258,4.1186,4.1683,4.1646,4.1646,4.1274,4.0457,4.1163,4.1126,4.0308,3.9547,3.9165,3.9154,3.7887,3.7747,3.8455,3.7053,3.6916,3.7656,3.7677,3.7198,3.6544,3.7313,3.7142,3.6625,3.7371,3.7474,3.7286,3.8067,3.7924,3.7433,3.7444,3.6659,3.572,3.5693,3.5704,3.5704,3.5681,3.5847,3.5936,3.5759,3.5693,3.6516,3.9762,4.0665,4.0792,4.0784,4.0784,4.0796,4.0822,4.081,4.0784,4.0796,3.8117,3.7112,4.0533,3.8141,3.5902,3.5736,3.5999,3.6066,3.5725,3.8665,3.9393,3.6319,3.6067,3.7453,4.0684,4.0752,4.0731,4.0898,4.0898,4.0955,4.1074,4.1116,4.1089,4.1089,4.1089,4.1089,4.1087,4.1111,4.1097,3.5651,3.7576,3.9441,3.9552,3.9914,3.995,3.8761,3.8833,3.8898,3.8319,3.7286,3.6541,0.0,0.0,0.0,3.6112,3.7578,0.0,3.8798,3.8905,0.0,4.1107,0.0,4.013,4.3542,4.3649,0.0,0.0,4.1981,4.211,4.2051,4.286,4.307,4.25,4.25,4.2092,4.1311,4.0903,4.0271,3.9417,3.9222,3.9147,3.911,3.8782,3.8749,3.9013,3.8771,3.8537,3.8284,3.8423,3.8002,3.7292,3.7524,3.7868,3.8288,3.8365,3.8878,3.958,3.998,3.9215,3.8013,3.7986,3.6957,3.5697,3.5697,3.5709,3.572,3.5697,3.7549,3.8887,3.6381,3.57,3.5944,3.6781,3.8967,4.0784,4.0797,4.0822,4.0796,4.0797,4.081,4.081,4.0784,4.0087,4.0653,4.4005,4.1659,3.8593,3.6013,4.0106,4.128,3.6245,3.6521,3.7724,3.9432,3.9607,3.9975,4.0839,3.851,3.8239,4.077,4.0882,4.0914,4.0948,4.105,4.109,4.1089,4.1082,4.1087,4.1093,4.1094,4.1094,3.7185,3.8642,3.9888,3.9893,4.0149,4.0075,3.8857,3.8831,3.887,3.8182,3.7182,0.0,0.0,0.0,0.0,0.0,0.0,0.0,3.851,3.8834,3.977,0.0,4.0959,0.0,4.3798,4.4529,4.4419,0.0,4.3088,4.282,4.2585,4.3389,4.368,4.3293,4.3256,4.2916,4.2129,4.0977,4.016,3.9677,3.9268,3.9082,3.9082,3.8711,3.8775,3.9192,0.0,3.8651,3.8357,3.8848,3.8369,3.7368,3.8088,3.8391,3.8487,3.8942,3.9482,4.006,4.0248,3.9623,3.8854,3.9224,3.8698,3.7962,3.7962,3.7924,3.7614,3.6125,3.9212,4.2536,4.0616,4.014,3.9753,3.8299,4.0514,4.2576,4.1132,4.0797,4.1235,4.2705,4.3002,4.2537,4.1068,4.0797,4.1429,4.3337,4.3247,4.2305,4.0382,4.216,4.2148,3.8334,3.7943,3.8722,4.0713,4.0888,4.0907,4.0887,3.9111,3.8908,4.083,4.0896,4.0913,4.0898,4.096,4.1,4.1012,4.1076,4.1085,4.0996,4.0996,4.0999,3.8885,3.9529,3.9846,3.9923,4.0129,4.0032,3.8951,3.8602,3.8394,3.7972,0.0,3.6648,3.721,3.6896,3.647,3.6431,0.0,3.7252,3.8115,3.8582,3.9842,4.2591,4.3271,4.3638,4.3835,4.533,4.5842,4.4783,4.4007,4.3306,4.275,4.348,4.3948,4.3897,4.3897,4.3558,4.2797,4.1423,4.0606,4.0383,3.964,3.9194,3.9082,3.8377,3.8478,3.9165,3.8457,0.0,3.8264,3.9048,3.8376,3.7069,3.8726,3.8826,3.8191,3.9202,3.9599,3.9596,3.9603,3.9911,4.031,4.0679,4.1123,4.1454,4.1454,4.1454,4.0874,3.786,4.1287,4.5686,4.5235,4.5454,4.5079,4.2164,4.3699,4.5002,4.2099,4.1467,4.2176,4.4666,4.5506,4.4873,4.1944,4.1454,4.1454,4.1442,4.3569,4.5144,4.5144,4.2601,4.0796,4.0822,4.082,4.0815,4.0886,4.047,4.0413,4.0887,4.0917,4.0907,4.0917,4.0907,4.0887,4.089,4.089,4.0906,4.0909,4.102,4.102,4.0909,4.0905,4.0881,3.9457,4.0089,4.0607,4.0608,4.0507,4.0172,3.9223,3.8596,0.0,0.0,0.0,3.6914,3.7241,3.721,0.0,3.799,0.0,0.0,0.0,0.0,4.23,0.0,0.0,0.0,0.0,0.0,0.0,0.0,0.0,4.3787,4.437,4.4518,4.4398,4.3934,4.3897,4.3558,4.2797,4.25,4.172,4.0383,4.0234,3.9788,3.9082,3.8971,3.8971,3.911,3.8961,0.0,3.8936,3.909,3.8255,3.7065,3.8765,3.9361,3.9323,3.9519,3.9602,3.9586,3.9581,4.1368,4.333,4.1416,4.268,4.4921,4.4921,4.4939,4.4822,4.4234,4.4916,4.514,4.2405,4.3697,4.5634,4.5065,4.5363,4.5647,4.5079,4.491,4.4291,4.2099,4.3904,4.5634,4.504,4.4924,4.4937,4.4924,4.3065,4.1685,4.1674,4.1158,4.0822,4.081,4.0808,4.0781,4.0831,3.8274,3.788,4.0723,4.0898,4.0907,4.0907,4.0907,4.0907,4.0878,4.0878,4.0904,4.0906,4.0913,4.0913,4.0906,4.0882,4.0913,4.0143,4.0336,4.0466,4.0754,4.025,3.9537,3.892,0.0,0.0,0.0,0.0,3.718,3.8302,0.0,0.0,0.0,0.0,0.0,0.0,0.0,0.0,0.0,0.0,0.0,0.0,0.0,0.0,0.0,0.0,4.4597,4.4154,4.4152,4.4036,4.3734,4.3832,4.3558,4.2773,4.2359,4.1571,4.0383,3.9937,3.9491,3.9082,3.9129,3.9101,3.9101,3.9081,0.0,3.9092,3.9101,3.9203,3.9361,3.9268,3.9305,3.9528,4.1269,4.1913,4.1931,4.2072,4.3165,4.4297,4.3127,4.3795,4.511,4.5128,4.5131,4.5111,4.5124,4.419,4.325,4.3385,4.4587,4.5814,4.5814,4.5814,4.5789,4.5814,4.5814,4.5311,4.3697,4.4717,4.5814,4.5814,4.5814,4.5789,4.5814,4.4432,4.3413,4.3401,4.188,4.0797,4.081,4.0784,4.0808,4.0792,3.9309,3.911,4.0791,4.0878,4.0888,4.0907,4.0907,4.0907,4.0907,4.0907,4.0917,4.0904,4.0917,4.0917,4.0904,4.0917,4.0907,4.0514,4.0402,4.0154,4.0563,3.9671,3.8744,3.8562,3.7762,0.0,0.0,3.7667,3.765,3.9171,0.0,0.0,0.0,0.0,0.0,0.0,0.0,0.0,0.0,0.0,0.0,0.0,0.0,0.0,0.0,0.0,0.0,4.3828,4.364,4.36,4.36,4.3767,4.3536,4.2939,4.2372,4.1586,4.0651,3.9954,3.9435,3.911,3.909,3.9098,3.9106,3.9121,0.0,0.0,4.0155,4.0511,4.094,3.9629,3.9517,4.0457,4.3034,4.4008,4.4046,4.4317,4.4362,4.4391,4.4371,4.4459,4.4494,4.4509,4.4467,4.4383,4.4384,4.3097,4.2316,4.5094,4.5819,4.5795,4.5786,4.58,4.58,4.58,4.5814,4.5814,4.58,4.5814,4.5814,4.58,4.58,4.5814,4.5814,4.5814,4.5789,4.5802,4.3518,4.1867,4.1867,4.1235,4.0822,4.082,4.082,4.0843,4.0858,4.0907,4.0917,4.0898,4.0907,4.0907,4.0907,4.0907,4.0907,4.0907,4.0907,4.0907,4.0907,4.1102,4.1179,4.0154,4.0104,4.0138,4.0154,3.9088,3.8051,3.8414,0.0,0.0,3.7644,3.8122,3.8555,3.8912,3.8461,0.0,0.0,0.0,3.9011,0.0,0.0,0.0,0.0,0.0,0.0,0.0,0.0,0.0,0.0,0.0,0.0,4.4599,4.3901,4.3532,4.36,4.3634,4.3701,4.3767,4.3726,4.295,4.1508,4.1397,4.056,3.9098,3.9105,3.9111,3.9093,3.9093,0.0,0.0,4.3578,4.1872,3.9307,3.916,4.0892,4.3578,4.3906,4.4004,4.4028,4.4065,4.4058,4.4042,4.4042,4.425,4.4495,4.4495,4.427,4.4055,4.4058,4.4285,4.4711,4.5572,4.5783,4.5781,4.5789,4.5824,4.58,4.58,4.5786,4.5786,4.58,4.5786,4.5786,4.58,4.58,4.58,4.58,4.58,4.5814,4.5775,4.5543,4.5349,4.5338,4.2615,4.081,4.0797,4.0822,4.0808,4.082,4.0876,4.0907,4.0907,4.0898,4.0907,4.0907,4.0907,4.0907,4.0907,4.0907,4.0907,4.0907,4.1723,4.2073,3.9952,4.0087,4.0087,4.0087,3.8971,3.7936,3.8091,0.0,3.6966,3.8052,3.8264,3.8562,3.9591,3.9153,3.8748,0.0,0.0,0.0,0.0,0.0,0.0,0.0,0.0,0.0,0.0,0.0,0.0,0.0,0.0,0.0,4.4745,4.3938,4.3532,4.3566,4.3637,4.3708,4.3812,4.3837,4.3536,4.2908,4.0977,3.9743,3.9234,4.3187,4.5015,4.5021,4.4994,0.0,0.0,4.6967,4.5021,4.2036,4.2036,4.2834,4.3998,4.3998,4.3998,4.3992,4.4017,4.4011,4.4004,4.4004,4.4079,4.4184,4.4199,4.4121,4.3998,4.3992,4.5152,4.6075,4.4997,4.676,4.8343,4.6283,4.581,4.5786,4.58,4.58,4.6419,4.8474,4.8072,4.771,4.8692,4.8019,4.6999,4.594,4.5786,4.58,4.5814,4.5814,4.5814,4.5775,4.4614,4.3802,4.3802,4.3815,4.3363,4.2369,4.2315,4.1912,4.0936,4.1916,4.2286,4.1917,4.2578,4.2772,4.2461,4.2461,4.2461,4.2461,4.2811,4.2966,3.9614,3.9918,4.0087,4.0087,3.8971,3.7956,0.0,0.0,3.7313,3.8448,3.8755,3.9203,4.0269,3.987,3.9363,3.9382,0.0,3.9669,0.0,0.0,0.0,0.0,0.0,0.0,0.0,0.0,0.0,0.0,0.0,0.0,4.5334,4.4162,4.3501,4.3497,4.3603,4.3637,4.3637,4.3664,4.3693,4.3689,4.1466,4.0409,4.0551,4.518,4.7868,4.8898,4.8907,0.0,0.0,4.8903,4.7537,4.5477,4.544,4.5435,4.5467,4.5472,4.4846,4.4003,4.3998,4.4321,4.4724,4.4724,4.4835,4.4984,4.4997,4.4736,4.4571,4.4909,4.6177,4.7144,4.5693,4.7684,4.9616,4.7719,4.6901,4.6399,4.5873,4.6182,4.724,4.9698,4.9621,4.949,5.0719,4.993,4.8716,4.7502,4.6868,4.6559,4.6573,4.6573,4.638,4.5877,4.5814,4.5789,4.5802,4.5802,4.5299,4.4111,4.4047,4.3516,4.2388,4.3214,4.3507,4.3112,4.3733,4.385,4.351,4.351,4.351,4.351,4.3743,4.4015,3.9005,3.9512,4.0087,4.0087,3.8971,3.8091,0.0,3.843,3.8043,3.8639,3.9924,4.0789,4.0611,4.0537,4.0496,4.0482,3.9838,0.0,0.0,0.0,0.0,0.0,0.0,0.0,0.0,0.0,0.0,0.0,0.0,0.0,4.6759,4.4634,4.347,4.3497,4.3497,4.3497,4.3497,4.3497,4.3495,4.349,4.3453,4.345,4.3476,4.3523,4.5534,0.0,0.0,0.0,0.0,4.8885,4.8881,4.8844,4.887,4.8861,4.8851,4.8828,4.6792,4.4023,4.4003,4.5101,4.6494,4.6494,4.6834,4.7248,4.7248,4.6504,4.5908,4.695,4.7579,4.7984,4.8363,4.8295,4.8583,5.0334,4.95,4.7786,4.6073,4.7075,4.8287,4.8423,4.9753,5.089,5.0913,5.0874,5.0874,5.0835,4.9451,4.8353,4.8353,4.8353,4.7734,4.5979,4.581,4.5786,4.5814,4.5814,4.5789,4.5764,4.5764,4.5776,4.5738,4.4742,4.4222,4.4284,4.3702,4.3441,4.351,4.351,4.351,4.351,4.4365,4.522,3.8125,3.843,3.8599,3.8599,3.7855,3.7347,3.8091,3.8058,3.8077,3.8672,3.953,4.0118,3.9864,4.0124,4.0209,3.9757,4.0339,0.0,0.0,0.0,0.0,0.0,0.0,0.0,0.0,0.0,0.0,0.0,0.0,0.0,4.7858,4.7161,4.577,4.3578,4.3504,4.3501,4.3497,4.3497,4.3497,4.3501,4.3497,4.3497,4.3499,4.3752,4.569,0.0,0.0,0.0,0.0,4.8895,4.8927,4.8887,4.8922,4.8919,4.8658,4.6368,4.5853,4.6145,4.5435,4.5732,4.6508,4.6508,4.662,4.688,4.74,4.6954,4.6466,4.7542,4.7672,4.7747,4.8878,4.9138,4.9047,4.8861,4.8848,4.8721,4.8145,4.8161,4.8651,4.9765,4.9958,5.0168,5.0797,5.0913,5.0697,5.0147,4.9629,4.9088,4.8469,4.8392,4.8198,4.7657,4.7579,4.7076,4.5891,4.5814,4.5814,4.5814,4.5789,4.5531,4.5015,4.5209,4.5118,4.456,4.4909,4.5115,4.5126,4.5126,4.5126,4.5165,4.5437,4.5708,0.0,3.7922,3.7922,3.7922,3.755,0.0,3.8159,3.828,3.8385,3.9026,3.9682,4.0034,3.9734,4.0296,4.0662,4.0235,4.0973,4.2342,0.0,0.0,0.0,0.0,0.0,0.0,0.0,0.0,0.0,0.0,0.0,0.0,5.0208,5.0175,4.9221,4.7203,4.4784,4.3506,4.3506,4.3505,4.3469,4.3506,4.4744,4.4671,4.3506,4.3721,4.4928,0.0,0.0,0.0,0.0,4.8677,4.8048,4.7159,4.8449,4.8556,4.7772,4.5931,4.5597,4.5997,4.569,4.5988,4.6513,4.6513,4.6921,4.7516,4.7999,4.7813,4.7512,4.8226,4.8146,4.8134,4.9173,4.9476,4.938,4.8768,4.8985,4.9266,4.8923,4.8945,4.9221,4.9913,5.0008,5.0138,5.0769,5.0863,5.067,5.0201,5.014,4.9946,4.9405,4.9343,4.9243,4.8933,4.8894,4.8314,4.6883,4.6767,4.6767,4.6767,4.6767,4.6549,4.606,4.6538,4.6474,4.5648,4.6435,4.6513,4.5905,4.5905,4.5905,4.5905,4.5905,4.5905,0.0,0.0,0.0,0.0,0.0,0.0,0.0,3.8906,0.0,3.9595,4.0154,4.0431,4.008,4.0839,4.1525,4.1604,4.174,0.0,0.0,0.0,0.0,0.0,0.0,0.0,0.0,0.0,0.0,0.0,0.0,0.0,5.3225,5.3198,5.3208,5.3216,4.7338,4.4189,4.4191,4.4196,4.4051,4.3868,4.6875,4.6616,4.3543,4.398,4.4053,0.0,0.0,0.0,0.0,4.831,4.6726,4.4595,4.7642,4.789,4.661,4.7107,4.5997,4.4395,4.5175,4.5992,4.6661,4.6661,4.7664,4.889,4.889,4.889,4.889,4.889,4.889,4.8959,4.9289,4.9384,4.9408,4.9665,4.9711,4.9511,4.8802,4.9417,4.9901,4.9319,4.9969,5.0701,5.0756,5.0773,5.0773,5.0812,5.0846,5.088,5.088,5.0913,5.0619,4.9861,4.9784,4.9475,4.8662,4.8469,4.8392,4.8392,4.8392,4.8392,4.8392,4.8392,4.8058,4.7287,4.8023,4.7649,4.6099,4.6099,4.6099,4.6099,4.6099,4.6099,3.8734,0.0,3.7922,3.7922,3.7922,0.0,0.0,0.0,0.0,0.0,0.0,3.9866,4.0206,4.0514,4.0897,4.1506,4.2946,4.4196,0.0,0.0,0.0,0.0,0.0,0.0,0.0,0.0,0.0,0.0,0.0,5.3225,5.3225,5.3188,5.3193,5.3193,5.171,5.0912,5.0894,5.0932,4.9673,4.7197,4.7939,4.6615,4.3647,4.8642,4.9529,0.0,0.0,0.0,4.831,4.8421,4.7979,4.7315,4.7571,4.7381,4.7006,4.7225,4.7073,4.6847,4.707,4.7664,4.8333,4.8333,4.8593,4.889,4.889,4.889,4.889,4.889,4.889,4.889,4.8993,4.9027,4.9027,4.909,4.879,4.8784,4.9883,4.9504,4.9378,5.0656,5.0597,5.0385,5.0682,5.072,5.0738,5.0773,5.0829,5.0829,5.0829,5.0863,5.0819,5.0626,5.0619,5.0558,5.0326,4.9126,4.8392,4.8392,4.8392,4.8392,4.8392,4.8392,4.8314,4.8135,4.829,4.8213,4.7801,4.7801,4.7801,4.7801,4.7801,4.7801,3.9478,3.8415,3.7287,3.7287,3.7509,3.7764,0.0,0.0,0.0,0.0,0.0,0.0,4.0273,0.0,0.0,4.2472,4.3807,0.0,0.0,0.0,0.0,0.0,0.0,0.0,0.0,0.0,0.0,0.0,0.0,5.3219,5.3225,5.3225,5.3225,5.3225,5.3225,5.3198,5.3182,5.3185,5.2294,5.0545,5.0554,4.8854,4.5794,4.934,4.997,0.0,0.0,0.0,4.8309,4.8382,4.8089,4.7647,4.7794,4.7351,4.672,4.7159,4.7194,4.7009,4.7009,4.7562,4.8338,4.8709,4.8855,4.8816,4.8444,4.863,4.889,4.889,4.889,4.889,4.889,4.889,4.9002,4.9373,4.9213,4.9412,5.0885,5.0741,5.0669,5.1877,5.1829,5.1502,5.1299,5.1241,5.1145,5.0778,5.0738,5.0738,5.0738,5.0829,5.0846,5.0846,5.0897,5.0913,5.0913,5.0078,4.9552,4.9552,4.9552,4.9552,4.9552,4.9552,4.9552,4.9552,4.8778,4.8585,4.901,4.8585,4.8392,4.8392,4.8392,4.8392,3.9902,3.8385,3.6908,3.7057,3.7364,3.7601,0.0,0.0,0.0,0.0,0.0,0.0,0.0,0.0,0.0,0.0,0.0,0.0,0.0,0.0,0.0,0.0,0.0,0.0,0.0,0.0,0.0,0.0,0.0,5.317,5.3182,5.3225,5.3225,5.3225,5.3225,5.3225,5.3225,5.3198,5.3203,5.3203,5.2699,5.1143,4.8693,4.8449,4.8451,4.8705,0.0,0.0,4.8563,4.8526,4.7977,4.7206,4.8126,4.7647,4.6502,4.7424,4.7202,4.6391,4.6574,4.7124,4.7898,4.86,4.8857,4.8816,4.8259,4.8556,4.9113,4.9262,4.9187,4.9076,4.9076,4.9187,4.9447,5.0153,5.019,5.0447,5.1724,5.1977,5.2163,5.2781,5.3,5.285,5.2221,5.2125,5.1856,5.1164,5.1087,5.1029,5.0914,5.093,5.0928,5.0812,5.0846,5.0863,5.0863,5.0913,5.089,5.089,5.089,5.0906,5.0906,5.0906,5.0906,5.0906,4.9513,4.9165,4.99,4.9126,4.8778,4.8778,4.8778,4.8778,3.8992,3.8455,3.8355,3.9194,3.8908,3.8522,0.0,0.0,0.0,0.0,0.0,0.0,0.0,0.0,0.0,0.0,0.0,0.0,0.0,0.0,0.0,0.0,0.0,0.0,0.0,0.0,0.0,0.0,0.0,5.3207,5.3207,5.3219,5.3225,5.3225,5.3225,5.3225,5.3225,5.3188,5.3188,5.3151,5.0378,4.9537,5.0395,4.8962,4.9074,5.0407,0.0,4.974,4.9703,4.952,4.8857,4.8086,4.8383,4.7942,4.7316,4.8864,4.8495,4.7313,4.8122,4.849,4.8674,4.8855,4.889,4.9002,4.9559,4.9819,5.0079,5.0822,5.0488,4.993,4.993,5.045,5.1045,5.1156,5.0636,5.0525,5.2158,5.1448,5.1091,5.3034,5.2872,5.2565,5.2948,5.301,5.2972,5.2818,5.2818,5.2549,5.1818,5.1761,5.1529,5.0797,5.0794,5.0829,5.0829,5.0863,5.0897,5.0897,5.0874,5.0906,5.0906,5.0906,5.0906,5.0906,5.0674,5.0596,5.0712,5.0596,5.0519,5.0519,5.0519,5.0519,3.9276,3.8805,3.8587,3.9479,3.8907,3.8186,0.0,0.0,0.0,0.0,0.0,0.0,0.0,0.0,0.0,0.0,0.0,0.0,0.0,0.0,0.0,0.0,0.0,0.0,0.0,0.0,0.0,0.0,0.0,0.0,5.3176,5.3182,5.3225,5.3225,5.3225,5.3225,5.3225,5.3225,5.2742,5.1894,5.1261,5.0712,5.0358,5.0171,5.0321,5.0809,0.0,5.0438,5.0438,5.0288,4.9738,4.904,4.9556,4.9265,4.8676,4.9892,4.9599,4.8642,4.9084,4.927,4.9307,4.9307,4.9677,5.0083,4.9973,5.0268,5.0676,5.0675,5.0749,5.0822,5.0822,5.1119,5.1528,5.1936,5.1751,5.1861,5.3196,5.2968,5.2769,5.3997,5.3897,5.366,5.3628,5.3621,5.3513,5.3259,5.2818,5.2356,5.1972,5.1953,5.178,5.1395,5.1818,5.1971,5.1509,5.1506,5.1365,5.0951,5.089,5.0906,5.0906,5.0906,5.0906,5.0906,5.0906,5.0906,5.0906,5.0906,5.0906,5.0906,5.0906,5.0906,3.9306,3.8954,3.8668,3.9041,0.0,0.0,0.0,0.0,0.0,0.0,0.0,0.0,0.0,0.0,0.0,0.0,0.0,0.0,0.0,0.0,0.0,0.0,0.0,0.0,0.0,0.0,0.0,0.0,0.0,0.0,5.3097,5.3103,5.3146,5.3182,5.3182,5.3225,5.3225,5.3225,5.2595,5.1339,5.2375,5.2009,5.0464,5.1128,5.1316,5.1096,5.1096,5.1096,5.1096,5.1096,5.0618,4.9921,5.0545,5.0545,5.0178,5.0655,5.0508,5.0105,4.9961,4.9926,5.0004,5.0043,5.0487,5.1006,5.0526,5.0897,5.1379,5.0935,5.1343,5.1862,5.1751,5.1825,5.2122,5.2717,5.2865,5.3126,5.3975,5.4196,5.4262,5.4623,5.4685,5.4587,5.4253,5.4244,5.4178,5.375,5.3161,5.2741,5.2549,5.251,5.2433,5.2241,5.2858,5.2993,5.2358,5.2164,5.1833,5.1206,5.099,5.089,5.0906,5.0906,5.0906,5.0906,5.0906,5.0906,5.0906,5.0906,5.0906,5.0906,5.0906,5.1022,3.8209,3.8593,3.901,3.8169,0.0,0.0,0.0,0.0,0.0,0.0,0.0,0.0,0.0,0.0,0.0,0.0,0.0,0.0,0.0,0.0,0.0,0.0,0.0,0.0,0.0,0.0,0.0,0.0,0.0,0.0,5.2744,5.2857,5.298,5.3207,5.3219,5.3225,5.3225,5.3225,5.3151,5.3041,5.2119,5.1752,5.183,5.1169,5.1242,5.1903,5.1903,5.1903,5.1903,5.1903,5.1426,5.0729,5.0765,5.1206,5.172,5.1059,5.1242,5.1761,5.1029,5.0812,5.0851,5.0968,5.1043,5.1228,5.1893,5.2151,5.2336,5.3038,5.3299,5.3228,5.2679,5.3088,5.3645,5.372,5.372,5.372,5.3832,5.3832,5.3944,5.4262,5.433,5.4392,5.4701,5.4988,5.5199,5.5123,5.5301,5.5164,5.4395,5.4318,5.401,5.3203,5.3164,5.3223,5.3205,5.2473,5.1991,5.2008,5.1327,5.0897,5.0906,5.0906,5.0906,5.0906,5.0906,5.0906,5.0906,5.0906,5.0906,5.0906,5.0906,5.1331,3.8858,3.8692,0.0,0.0,0.0,0.0,0.0,0.0,0.0,0.0,0.0,0.0,0.0,0.0,0.0,0.0,0.0,0.0,0.0,0.0,0.0,0.0,0.0,0.0,0.0,0.0,0.0,0.0,0.0,0.0,5.2813,5.298,5.3103,5.3219,5.3182,5.3225,5.3225,5.3225,5.3225,5.3225,5.2821,5.2417,5.2013,5.2197,5.2454,5.2747,5.2747,5.2747,5.2747,5.2747,5.227,5.1536,5.1536,5.205,5.2711,5.2417,5.216,5.194,5.1687,5.1577,5.1618,5.1658,5.1989,5.2467,5.2762,5.2876,5.2991,5.3285,5.344,5.3484,5.3306,5.3493,5.3754,5.3756,5.3794,5.3794,5.3794,5.3794,5.3832,5.3944,5.3981,5.4089,5.443,5.4591,5.4746,5.4952,5.4607,5.4282,5.4188,5.4173,5.4166,5.4028,5.401,5.401,5.4051,5.3223,5.2762,5.2839,5.2085,5.1657,5.1674,5.2138,5.2408,5.2442,5.1901,5.1918,5.2531,5.1989,5.1989,5.2531,5.2531,5.2685,3.9288,3.8924,3.8678,0.0,0.0,0.0,0.0,0.0,0.0,0.0,0.0,0.0,0.0,0.0,0.0,0.0,0.0,0.0,0.0,0.0,0.0,0.0,0.0,0.0,0.0,0.0,0.0,0.0,0.0,0.0,0.0,5.2937,5.3017,5.3017,5.3103,5.3146,5.3146,5.3182,5.3225,5.3225,5.3225,5.2931,5.2417,5.2968,5.3225,5.3225,5.3225,5.3225,5.3225,5.3225,5.2894,5.238,5.238,5.2711,5.3225,5.3225,5.2858,5.238,5.238,5.238,5.238,5.238,5.2747,5.3225,5.3225,5.323,5.3277,5.3277,5.3318,5.3437,5.3558,5.3674,5.3714,5.3754,5.3756,5.3794,5.3794,5.3794,5.3794,5.3794,5.3794,5.387,5.4089,5.4265,5.4364,5.4623,5.4224,5.3993,5.4215,5.4242,5.4358,5.4571,5.4594,5.4594,5.4594,5.3828,5.3376,5.3486,5.299,5.2627,5.2491,5.3011,5.332,5.3356,5.2777,5.2794,5.3447,5.2829,5.2846,5.3481,5.3481,5.3636,3.9288,3.9309,0.0,0.0,0.0,0.0,0.0,0.0,0.0,0.0,0.0,0.0,0.0,0.0,0.0,0.0,0.0,0.0,0.0,0.0,0.0,0.0,0.0,0.0,0.0,0.0,0.0,0.0,0.0,0.0,0.0,5.2581,5.259,5.259,5.285,5.298,5.298,5.3146,5.3225,5.3225,5.3225,5.3225,5.3225,5.3225,5.3225,5.3225,5.3225,5.3225,5.3225,5.3225,5.3225,5.3225,5.3225,5.3225,5.3225,5.3225,5.3225,5.3225,5.3225,5.3225,5.3225,5.3225,5.3225,5.3225,5.3225,5.3225,5.3225,5.3225,5.3225,5.3188,5.3277,5.3518,5.3714,5.3714,5.3754,5.3794,5.3794,5.3794,5.3794,5.3794,5.3794,5.3794,5.3794,5.4089,5.4296,5.4296,5.4591,5.4776,5.4806,5.4806,5.4806,5.4806,5.4806,5.4806,5.4806,5.401,5.367,5.4002,5.4027,5.3813,5.334,5.3301,5.3301,5.3301,5.3301,5.3301,5.332,5.332,5.3338,5.343,5.343,5.3911,3.9288,3.8797,0.0,0.0,0.0,0.0,0.0,0.0,0.0,0.0,0.0,0.0,0.0,0.0,0.0,0.0,0.0,0.0,0.0,0.0,0.0,0.0,0.0,0.0,0.0,0.0,0.0,0.0,0.0,0.0,0.0,5.2761,5.2893,5.2893,5.306,5.3146,5.3146,5.3182,5.3225,5.3225,5.3225,5.3225,5.3225,5.3225,5.3225,5.3225,5.3225,5.3225,5.3225,5.3225,5.3225,5.3225,5.3225,5.3225,5.3225,5.3225,5.3225,5.3225,5.3225,5.3225,5.3225,5.3225,5.3225,5.3225,5.3225,5.3225,5.3225,5.3225,5.3225,5.3188,5.323,5.3355,5.3477,5.3674,5.3754,5.3794,5.3794,5.3794,5.3794,5.3794,5.3794,5.3794,5.3794,5.387,5.3981,5.3981,5.4017,5.4196,5.443,5.4654,5.4806,5.4806,5.4806,5.4806,5.4806,5.478,5.4828,5.4906,5.5078,5.4869,5.4167,5.4667,5.4996,5.5075,5.4458,5.4477,5.5133,5.4516,5.4554,5.5152,5.5152,5.5306,3.8924,0.0,0.0,0.0,0.0,0.0,0.0,0.0,0.0,0.0,0.0,0.0,0.0,0.0,0.0,0.0,0.0,0.0,0.0,0.0,0.0,0.0,0.0,0.0,0.0,0.0,0.0,0.0,0.0,0.0,0.0,5.2717,5.2798,5.2798,5.293,5.3017,5.306,5.306,5.3103,5.3225,5.3146,5.3146,5.3225,5.3225,5.3225,5.3225,5.3225,5.3225,5.3225,5.3225,5.3225,5.3225,5.3225,5.3225,5.3225,5.3225,5.3225,5.3225,5.3225,5.3225,5.3225,5.3225,5.3225,5.3225,5.3225,5.3225,5.3225,5.3225,5.3225,5.3225,5.3225,5.3272,5.3359,5.3518,5.3637,5.3716,5.3754,5.3754,5.3793,5.3794,5.3794,5.3794,5.3794,5.3794,5.3794,5.3794,5.3794,5.387,5.4089,5.4262,5.4397,5.4397,5.4397,5.4397,5.4397,5.4591,5.4836,5.5064,5.525,5.5231,5.5011,5.5434,5.5724,5.5766,5.5245,5.5265,5.5845,5.5306,5.5306,5.5865,5.5865,5.5885,3.8493,0.0,0.0,0.0,0.0,0.0,0.0,0.0,0.0,0.0,0.0,0.0,0.0,0.0,0.0,0.0,0.0,0.0,0.0,0.0,0.0,0.0,0.0,0.0,0.0,0.0,0.0,0.0,0.0,0.0,0.0,5.248,5.248,5.248,5.2581,5.268,5.2806,5.2806,5.2974,5.3225,5.306,5.3103,5.3225,5.3225,5.3225,5.3225,5.3225,5.3225,5.3225,5.3225,5.3225,5.3225,5.3225,5.3225,5.3225,5.3225,5.3225,5.3225,5.3225,5.3225,5.3225,5.3225,5.3225,5.3225,5.3225,5.3225,5.3225,5.3225,5.3225,5.3225,5.3225,5.3272,5.3277,5.3277,5.34,5.3521,5.3674,5.3674,5.3676,5.3793,5.3756,5.3794,5.3794,5.3794,5.3794,5.3794,5.3794,5.3794,5.3794,5.3794,5.3794,5.3794,5.3794,5.3794,5.3794,5.3832,5.4125,5.4716,5.4776,5.5064,5.566,5.5703,5.5703,5.5703,5.5703,5.5703,5.5703,5.5703,5.5724,5.5787,5.5787,5.5807,0.0,0.0,0.0,0.0,0.0,0.0,0.0,0.0,0.0,0.0,0.0,0.0,0.0,0.0,0.0,0.0,0.0,0.0,0.0,0.0,0.0,0.0,0.0,0.0,0.0,0.0,0.0,0.0,0.0,0.0,5.248,5.2536,5.2581,5.2581,5.2717,5.2806,5.2937,5.2937,5.306,0.0,5.3146,5.3146,5.3225,5.3225,5.3225,5.3225,5.3225,5.3225,5.3225,5.3225,5.3225,5.3225,5.3225,5.3225,5.3225,5.3225,5.3225,5.3225,5.3225,5.3225,5.3225,5.3225,5.3225,5.3225,5.3225,5.3225,5.3225,5.3225,5.3225,5.3225,5.3225,5.3188,5.323,5.323,5.3355,5.3481,5.3558,5.3558,5.3598,5.3676,5.3716,5.3716,5.3756,5.3794,5.3794,5.3794,5.3794,5.3794,5.3794,5.3794,5.3794,5.3794,5.3794,5.3794,5.3794,5.4054,5.4228,5.4397,5.4654,5.4981,5.5364,5.5577,5.5703,5.5703,5.5703,5.5703,5.5703,5.5703,5.5703,5.5724,5.5724,5.5724,0.0,0.0,0.0,0.0,0.0,0.0,0.0,0.0,0.0,0.0,0.0,0.0,0.0,0.0,0.0,0.0,0.0,0.0,0.0,0.0,0.0,0.0,0.0,0.0,0.0,0.0,0.0,0.0,0.0,5.248,5.248,5.2526,5.2536,5.2536,5.2581,5.2672,5.2806,5.2761,5.2842,5.3017,5.2937,5.3017,5.3103,5.3146,5.3225,5.3225,5.3225,5.3225,5.3225,5.3225,5.3225,5.3225,5.3225,5.3225,5.3225,5.3225,5.3225,5.3225,5.3225,5.3225,5.3225,5.3225,5.3225,5.3225,5.3225,5.3225,5.3225,5.3225,5.3225,5.3225,5.3225,5.3225,5.3225,5.3225,5.3272,5.3396,5.34,5.34,5.344,5.3674,5.3714,5.3716,5.3793,5.3794,5.3794,5.3794,5.3794,5.3794,5.3794,5.3794,5.3794,5.3794,5.3794,5.3794,5.3794,5.3944,5.4125,5.4262,5.4463,5.4716,5.5037,5.5198,5.5399,5.5703,5.5703,5.5703,5.5703,5.5703,5.5703,5.5703,5.5703,5.5703,0.0,0.0,0.0,0.0,0.0,0.0,0.0,0.0,0.0,0.0,0.0,0.0,0.0,0.0,0.0,0.0,0.0,0.0,0.0,0.0,0.0,0.0,0.0,0.0,0.0,0.0,0.0,0.0,0.0,5.248,5.248,5.248,5.248,5.248,5.2371,5.2309,5.2409,5.2354,5.24,5.2587,5.2644,5.2806,5.306,5.3146,5.3225,5.3225,5.3225,5.3225,5.3225,5.3225,5.3225,5.3225,5.3225,5.3225,5.3225,5.3225,5.3225,5.3225,5.3225,5.3225,5.3225,5.3225,5.3225,5.3225,5.3225,5.3225,5.3225,5.3225,5.3225,5.3225,5.3225,5.3225,5.3225,5.3225,5.3225,5.3188,5.3277,5.3277,5.3359,5.3558,5.3674,5.3716,5.3793,5.3794,5.3794,5.3794,5.3794,5.3794,5.3794,5.3794,5.3794,5.3794,5.3794,5.3794,5.3794,5.3794,5.3944,5.4231,5.4193,5.4364,5.4716,5.4716,5.4981,5.5531,5.5577,5.5638,5.5638,5.5682,5.5703,5.5703,5.5703,5.5703,0.0,0.0,0.0,0.0,0.0,0.0,0.0,0.0,0.0,0.0,0.0,0.0,0.0,0.0,0.0,0.0,0.0,0.0,0.0,0.0,0.0,0.0,0.0,0.0,0.0,0.0,0.0,0.0,5.248,5.248,5.248,5.248,5.248,5.248,5.1828,5.1511,5.1645,5.1645,5.169,5.1784,5.2565,5.306,5.3146,5.3225,5.3225,5.3225,5.3225,5.3225,5.3225,5.3225,5.3225,5.3225,5.3225,5.3225,5.3225,5.3225,5.3225,5.3225,5.3225,5.3225,5.3225,5.3225,5.3225,5.3225,5.3225,5.3225,5.3225,5.3225,5.3225,5.3225,5.3225,5.3225,5.3225,5.3225,5.3225,5.3225,5.3188,5.3188,5.323,5.3318,5.3558,5.3716,5.3793,5.3794,5.3794,5.3794,5.3794,5.3794,5.3794,5.3794,5.3794,5.3794,5.3794,5.3794,5.3794,5.3794,5.3794,5.387,5.387,5.4017,5.433,5.4364,5.456,5.4924,5.5236,5.5339,5.5364,5.5615,5.5703,5.5703,5.5703,5.5703,0.0,0.0,0.0,0.0,0.0,0.0,0.0,0.0,0.0,0.0,0.0,0.0,0.0,0.0,0.0,0.0,0.0,0.0,0.0,0.0,0.0,0.0,0.0,0.0,0.0,0.0,0.0,0.0,5.248,5.2299,5.1828,5.1828,5.1611,5.1176,5.1249,5.133,5.1411,5.1419,5.1253,5.0946,5.1353,5.184,5.2443,5.2485,5.2784,5.3225,5.3225,5.3225,5.3225,5.3225,5.3225,5.3225,5.3225,5.3225,5.3225,5.3225,5.3225,5.3225,5.3225,5.3225,5.3225,5.3225,5.3225,5.3225,5.3225,5.3225,5.3225,5.3225,5.3225,5.3225,5.3225,5.3225,5.3225,5.3225,5.3225,5.3225,5.3225,5.3225,5.323,5.3277,5.344,5.3637,5.3716,5.3754,5.3754,5.3794,5.3794,5.3794,5.3794,5.3794,5.3794,5.3794,5.3794,5.3794,5.3794,5.4203,5.4463,5.4463,5.4946,5.5283,5.5398,5.4951,5.4762,5.494,5.4973,5.5009,5.5009,5.5339,5.5461,5.5461,5.5638,5.5703,0.0,0.0,0.0,0.0,0.0,0.0,0.0,0.0,0.0,0.0,0.0,0.0,0.0,0.0,0.0,0.0,0.0,0.0,0.0,0.0,0.0,0.0,0.0,0.0,0.0,0.0,0.0,0.0,5.248,5.2226,5.1647,5.1393,5.0995,5.0416,5.0597,5.0669,5.0669,5.0758,5.0628,5.0393,5.0393,5.0836,5.1767,5.1852,5.2333,5.3103,5.3182,5.3225,5.3225,5.3225,5.3225,5.3225,5.3225,5.3225,5.3225,5.3225,5.3225,5.3225,5.3225,5.3225,5.3225,5.3225,5.3225,5.3225,5.3225,5.3225,5.3225,5.3225,5.3225,5.3225,5.3225,5.3225,5.3225,5.3225,5.3225,5.3225,5.3225,5.3225,5.323,5.3277,5.34,5.3481,5.3598,5.3637,5.3676,5.3754,5.3793,5.383,5.4091,5.4091,5.4203,5.4426,5.4426,5.4426,5.4426,5.4983,5.5354,5.5354,5.5949,5.632,5.632,5.5689,5.5354,5.5354,5.5238,5.5007,5.4685,5.5009,5.5183,5.5183,5.5461,5.5577,0.0,0.0,0.0,0.0,0.0,0.0,0.0,0.0,0.0,0.0,0.0,0.0,0.0,0.0,0.0,0.0,0.0,0.0,0.0,0.0,0.0,0.0,0.0,0.0,0.0,0.0,0.0,0.0,5.248,5.248,5.2444,5.1719,5.1285,5.1212,4.98,4.9039,4.9039,4.9039,4.9445,5.0301,5.0301,5.0787,5.1602,5.1602,5.204,5.2806,5.3103,5.3225,5.3225,5.3225,5.3225,5.3225,5.3225,5.3225,5.3225,5.3225,5.3225,5.3225,5.3225,5.3225,5.3225,5.3225,5.3225,5.3225,5.3225,5.3225,5.3225,5.3225,5.3225,5.3225,5.3225,5.3225,5.3225,5.3225,5.3225,5.3225,5.3225,5.3225,5.323,5.3277,5.3318,5.3359,5.3481,5.3481,5.3558,5.3714,5.3714,5.4012,5.4795,5.4946,5.5243,5.6097,5.6172,5.6172,5.6172,5.6209,5.6246,5.6246,5.6283,5.632,5.632,5.6246,5.6246,5.6246,5.6249,5.5585,5.433,5.4654,5.4836,5.4836,5.5183,5.5314,0.0,0.0,0.0,0.0,0.0,0.0,0.0,0.0,0.0,0.0,0.0,0.0,0.0,0.0,0.0,0.0,0.0,0.0,0.0,0.0,0.0,0.0,0.0,0.0,0.0,0.0,0.0,0.0,0.0,5.1646,5.0995,5.0669,5.0053,4.9039,4.8931,4.8974,4.9059,4.8937,4.8871,4.8826,4.878,4.9471,5.0836,5.0836,5.1609,5.2937,5.306,5.306,5.3103,5.3146,5.3225,5.3225,5.3225,5.3225,5.3225,5.3225,5.3225,5.3225,5.3225,5.3225,5.3225,5.3225,5.3225,5.3225,5.3225,5.3225,5.3225,5.3225,5.3225,5.3225,5.3225,5.3225,5.3225,5.3225,5.3225,5.3225,5.3225,5.3225,5.3225,5.323,5.323,5.3272,5.3359,5.3764,5.399,5.3632,5.4445,5.5077,5.4939,5.5384,5.5869,5.6283,5.632,5.632,5.632,5.6766,5.7063,5.7063,5.7546,5.7843,5.7843,5.736,5.7063,5.7063,5.658,5.6065,5.5547,5.5873,5.6045,5.6007,5.6568,5.6828,0.0,0.0,0.0,0.0,0.0,0.0,0.0,0.0,0.0,0.0,0.0,0.0,0.0,0.0,0.0,0.0,0.0,0.0,0.0,0.0,0.0,0.0,0.0,0.0,0.0,0.0,0.0,0.0,0.0,0.0,5.0162,4.9836,4.9075,4.7735,4.8242,4.8539,4.8623,4.8539,4.8327,4.787,4.7824,4.8696,5.0307,5.0307,5.1224,5.2806,5.285,5.2937,5.306,5.3146,5.3225,5.3225,5.3225,5.3225,5.3225,5.3225,5.3225,5.3225,5.3225,5.3225,5.3225,5.3225,5.3225,5.3225,5.3225,5.3225,5.3225,5.3225,5.3225,5.3225,5.3225,5.3225,5.3225,5.3225,5.3225,5.3298,5.3555,5.3408,5.3298,5.3555,5.3592,5.3665,5.4007,5.4528,5.4754,5.4322,5.517,5.5802,5.5669,5.6076,5.6561,5.6978,5.6978,5.7019,5.7019,5.7542,5.7839,5.7918,5.8401,5.8698,5.8698,5.8215,5.7918,5.7918,5.7398,5.71,5.71,5.6742,5.663,5.6737,5.7332,5.7679,0.0,0.0,0.0,0.0,0.0,0.0,0.0,0.0,0.0,0.0,0.0,0.0,0.0,0.0,0.0,0.0,0.0,0.0,0.0,0.0,0.0,0.0,0.0,0.0,0.0,0.0,0.0,0.0,4.9784,5.0053,5.0053,4.9293,4.8532,4.7735,4.7699,4.7699,4.7699,4.7699,4.7699,4.7699,4.7699,4.8532,5.009,5.009,5.0959,5.248,5.2581,5.2806,5.3182,5.3225,5.3188,5.3188,5.3225,5.3225,5.3225,5.3225,5.3225,5.3225,5.3225,5.3225,5.3225,5.3225,5.3225,5.3225,5.3225,5.3225,5.3225,5.3225,5.3225,5.3225,5.3225,5.3225,5.3261,5.3261,5.3261,5.3482,5.4289,5.3812,5.3518,5.4289,5.4436,5.4693,5.5464,5.5611,5.5655,5.5779,5.5859,5.6197,5.6983,5.7137,5.747,5.8319,5.8393,5.8437,5.8529,5.8529,5.8572,5.8656,5.8698,5.8698,5.8698,5.8698,5.8698,5.8698,5.8698,5.8698,5.8698,5.7138,5.6555,5.6849,5.7224,5.7711,3.8924,0.0,0.0,0.0,0.0,0.0,0.0,0.0,0.0,0.0,0.0,0.0,0.0,0.0,0.0,0.0,0.0,0.0,0.0,0.0,0.0,0.0,0.0,0.0,0.0,0.0,0.0,0.0,4.877,4.8996,4.9213,4.8496,4.7953,4.7735,4.7699,4.7699,4.7699,4.7699,4.7699,4.7699,4.7699,4.8532,5.009,5.009,5.0967,5.2581,5.259,5.2717,5.293,5.3017,5.306,5.306,5.3146,5.3225,5.3225,5.3225,5.3225,5.3225,5.3225,5.3225,5.3225,5.3225,5.3225,5.3225,5.3225,5.3225,5.3225,5.3225,5.3225,5.3225,5.3225,5.3628,5.4069,5.4069,5.4509,5.4987,5.5207,5.5097,5.4987,5.5207,5.5244,5.5317,5.5537,5.6088,5.6271,5.5728,5.6646,5.7316,5.7081,5.7523,5.8047,5.8356,5.8393,5.8393,5.8437,5.8437,5.8437,5.848,5.8529,5.8572,5.8572,5.8656,5.8698,5.8698,5.8698,5.8698,5.8698,5.8252,5.807,5.8194,5.8502,5.9051,0.0,0.0,0.0,0.0,0.0,0.0,4.0315,4.068,4.111,0.0,0.0,0.0,0.0,0.0,0.0,0.0,0.0,0.0,0.0,0.0,0.0,0.0,0.0,0.0,0.0,4.5422,4.5966,4.7039,4.7533,4.7974,4.8381,4.7953,4.7699,4.7699,4.7699,4.7699,4.7699,4.7699,4.7699,4.7699,4.7699,4.8532,5.009,5.009,5.1004,5.2536,5.2536,5.2581,5.2708,5.2806,5.285,5.2893,5.3017,5.3017,5.306,5.3103,5.3103,5.3103,5.3182,5.3225,5.3225,5.3225,5.3225,5.3225,5.3225,5.3225,5.3225,5.3225,5.3225,5.3225,5.3225,5.3555,5.3995,5.4326,5.4766,5.528,5.5941,5.6088,5.6088,5.6088,5.6088,5.6198,5.6528,5.7005,5.7152,5.6675,5.7409,5.7859,5.7463,5.7831,5.8133,5.8223,5.826,5.826,5.8305,5.8305,5.8349,5.8393,5.8437,5.8486,5.8529,5.8572,5.8656,5.8698,5.8698,5.8698,5.8698,5.8698,5.8781,5.8945,5.9289,5.9673,0.0,0.0,0.0,0.0,0.0,0.0,4.0117,4.0249,4.0282,4.0348,0.0,0.0,0.0,0.0,0.0,0.0,0.0,0.0,0.0,0.0,0.0,0.0,0.0,0.0,4.4587,4.4981,4.5267,4.532,4.6293,4.7151,4.7657,4.7699,4.7699,4.7699,4.7699,4.7699,4.7699,4.7699,4.7699,4.7699,4.7699,4.8496,4.9945,5.0053,5.0923,5.2371,5.2444,5.248,5.248,5.2581,5.2672,5.2806,5.2806,5.2806,5.285,5.3017,5.3017,5.306,5.3146,5.3225,5.3225,5.3225,5.3225,5.3225,5.3225,5.3225,5.3225,5.3225,5.3225,5.3225,5.3335,5.3408,5.3665,5.4473,5.473,5.5207,5.6638,5.6932,5.6932,5.6932,5.6932,5.7152,5.7886,5.7997,5.7997,5.7997,5.7997,5.7997,5.7997,5.7997,5.7997,5.7997,5.7997,5.8042,5.8133,5.8215,5.826,5.8349,5.8393,5.8437,5.8486,5.8529,5.8572,5.8698,5.8698,5.8698,5.8698,5.8698,5.8865,5.914,5.9502,5.9711,0.0,0.0,0.0,0.0,0.0,0.0,3.9454,3.9487,3.9653,0.0,0.0,0.0,0.0,0.0,0.0,0.0,0.0,0.0,0.0,0.0,0.0,0.0,0.0,0.0,4.4587,4.4665,4.4906,4.5267,4.6293,4.7151,4.7657,4.7699,4.7699,4.7699,4.7699,4.7699,4.7699,4.7699,4.7699,4.7699,4.7699,4.8206,4.9184,4.98,5.0597,5.1574,5.2226,5.248,5.248,5.2526,5.2663,5.2806,5.2893,5.3017,5.3103,5.3146,5.3146,5.3146,5.3225,5.3225,5.3225,5.3225,5.3225,5.3225,5.3225,5.3225,5.3225,5.3225,5.3225,5.3371,5.3995,5.4656,5.5317,5.6161,5.6822,5.7373,5.7703,5.7776,5.7776,5.7776,5.7776,5.7813,5.796,5.7997,5.7997,5.7997,5.7997,5.7997,5.7997,5.7997,5.7997,5.7997,5.7997,5.7997,5.8042,5.8042,5.8042,5.8088,5.8305,5.8393,5.8437,5.8572,5.8656,5.8698,5.8698,5.8698,5.8698,5.8698,5.8739,5.8784,5.8865,5.9064,0.0,0.0,0.0,3.9653,0.0,0.0,0.0,3.9553,3.9487,4.0216,4.0083,0.0,0.0,0.0,0.0,0.0,0.0,0.0,0.0,0.0,0.0,0.0,0.0,0.0,4.4621,4.4587,4.5077,4.6204,4.6407,4.7023,4.8236,4.7916,4.788,4.8315,4.7916,4.7916,4.8315,4.7916,4.7699,4.7699,4.7699,4.8351,4.951,4.9908,5.0741,5.19,5.2299,5.248,5.248,5.248,5.2572,5.2717,5.2753,5.2798,5.2842,5.2974,5.3017,5.3017,5.3146,5.3225,5.3225,5.3225,5.3225,5.3225,5.3225,5.3225,5.3225,5.3225,5.3225,5.3298,5.3702,5.4399,5.5207,5.6014,5.6822,5.7519,5.7923,5.7997,5.7997,5.7997,5.7997,5.7997,5.7997,5.7997,5.7997,5.7997,5.7997,5.7997,5.7997,5.7997,5.7997,5.7997,5.7997,5.7997,5.7997,5.7997,5.7997,5.7997,5.8133,5.8408,5.8858,5.8665,5.8609,5.8698,5.8698,5.8698,5.8698,5.8698,5.8698,5.8698,5.8698,5.8784,0.0,0.0,0.0,0.0,0.0,3.9421,0.0,0.0,0.0,4.005,0.0,0.0,0.0,0.0,0.0,0.0,0.0,0.0,0.0,0.0,0.0,0.0,0.0,0.0,0.0,4.479,4.5494,4.7171,4.6835,4.7275,4.9068,4.8532,4.846,4.9112,4.8351,4.8242,4.8894,4.8098,4.7699,4.7699,4.7699,4.8387,4.9655,4.9945,5.0814,5.2045,5.2371,5.248,5.248,5.248,5.2526,5.2581,5.2572,5.2526,5.2572,5.2717,5.2806,5.2806,5.306,5.3103,5.3103,5.3103,5.3146,5.3182,5.3225,5.3225,5.3225,5.3225,5.3225,5.3261,5.3408,5.3922,5.4583,5.539,5.6198,5.6969,5.7629,5.7886,5.7997,5.7997,5.7997,5.7997,5.7997,5.7997,5.7997,5.7997,5.7997,5.7997,5.7997,5.7997,5.7997,5.7997,5.8143,5.818,5.7997,5.8143,5.8143,5.7997,5.8042,5.8456,5.9357,5.8903,5.8702,5.8879,5.873,5.873,5.8958,5.8772,5.8698,5.8698,5.8698,5.8698,0.0,0.0,0.0,0.0,3.9818,0.0,0.0,0.0,3.9288,3.9388,0.0,0.0,0.0,0.0,0.0,0.0,0.0,0.0,0.0,0.0,0.0,0.0,0.0,0.0,0.0,4.5568,4.6041,4.7206,4.7819,4.8706,4.9901,4.9872,4.9872,4.9945,4.9184,4.8822,4.8931,4.8098,4.7699,4.7699,4.7699,4.7808,4.8025,4.9438,5.0198,5.0452,5.1864,5.248,5.248,5.248,5.248,5.2526,5.2581,5.2672,5.2761,5.2806,5.2806,5.2806,5.2806,5.285,5.285,5.285,5.293,5.306,5.3146,5.3225,5.3225,5.3225,5.3225,5.3371,5.4069,5.4326,5.4583,5.539,5.6198,5.6822,5.6932,5.7483,5.7997,5.7997,5.7997,5.7997,5.7997,5.7997,5.7997,5.7997,5.7997,5.7997,5.7997,5.7997,5.7997,5.7997,5.8657,5.8767,5.807,5.8657,5.8767,5.8033,5.8088,5.8547,5.9357,5.9456,5.9472,5.9566,5.8863,5.8905,5.9775,5.9069,5.8698,5.8698,5.8698,5.8698,0.0,0.0,0.0,0.0,0.0,0.0,0.0,0.0,3.9388,0.0,0.0,0.0,0.0,0.0,0.0,0.0,4.1543,0.0,0.0,0.0,0.0,0.0,0.0,0.0,0.0,0.0,0.0,0.0,4.7805,4.877,4.9611,4.9486,4.9836,5.0741,4.9112,4.8641,4.9582,4.8351,4.7699,4.7699,4.7699,4.7953,4.8424,4.9112,4.9908,5.0814,5.1502,5.2082,5.248,5.248,5.248,5.248,5.2526,5.2572,5.2618,5.2672,5.268,5.2717,5.2761,5.2806,5.2806,5.2806,5.2893,5.298,5.306,5.3146,5.3225,5.3225,5.3225,5.3298,5.3628,5.4069,5.4473,5.4803,5.5868,5.6822,5.6822,5.7446,5.7997,5.7997,5.7997,5.7997,5.7997,5.7997,5.7997,5.7997,5.7997,5.7997,5.7997,5.7997,5.818,5.8657,5.8584,5.8547,5.8694,5.9024,5.9061,5.8731,5.9622,6.0147,6.0093,6.0582,6.049,5.9664,5.9767,5.9812,5.9708,5.9943,6.0061,6.0024,5.9584,5.9404,4.0514,0.0,0.0,0.0,0.0,0.0,0.0,0.0,0.0,0.0,0.0,0.0,0.0,0.0,0.0,0.0,0.0,0.0,0.0,0.0,0.0,0.0,0.0,0.0,0.0,0.0,0.0,0.0,0.0,4.9139,4.9615,4.9352,4.9872,5.1249,4.9401,4.8822,4.9764,4.8605,4.7916,4.7699,4.7916,4.8242,4.8605,4.9257,5.009,5.0995,5.143,5.1973,5.248,5.248,5.248,5.248,5.248,5.248,5.248,5.2536,5.2581,5.2581,5.2672,5.2717,5.2761,5.2806,5.2893,5.3017,5.306,5.3103,5.3225,5.3225,5.3225,5.3261,5.3482,5.3812,5.4142,5.4363,5.5464,5.6455,5.6455,5.7262,5.7997,5.7997,5.7997,5.7997,5.7997,5.7997,5.7997,5.7997,5.7997,5.7997,5.7997,5.7997,5.8327,5.9134,5.8877,5.8877,5.9501,5.9758,5.9758,5.9538,6.0823,6.1385,6.0893,6.1445,6.1235,6.0231,6.0563,6.0563,6.0277,6.0737,6.1189,6.1596,6.0654,6.0258,0.0,0.0,0.0,4.0415,0.0,0.0,0.0,0.0,4.0348,0.0,0.0,0.0,0.0,0.0,0.0,0.0,0.0,0.0,0.0,0.0,0.0,0.0,0.0,0.0,0.0,0.0,0.0,0.0,0.0,0.0,5.0436,5.0226,5.0416,5.1249,5.0452,4.9655,4.8967,4.8894,4.8496,4.7735,4.8496,4.8496,4.7844,5.0162,5.0814,5.0198,5.1792,5.248,5.248,5.248,5.248,5.248,5.248,5.248,5.248,5.248,5.248,5.248,5.248,5.2536,5.2635,5.2761,5.2893,5.3023,5.3146,5.3225,5.3225,5.3225,5.3225,5.3408,5.4179,5.3812,5.3445,5.4216,5.5023,5.5647,5.5647,5.6859,5.7997,5.7997,5.7997,5.7997,5.7997,5.7997,5.7997,5.7997,5.7997,5.7997,5.7997,5.7997,5.8327,5.9134,5.9869,6.0346,6.0382,6.108,6.119,6.0419,6.1153,6.1594,6.1557,6.1594,6.1643,6.1713,6.0977,6.1024,6.1939,6.12,6.1606,6.3084,6.176,6.115,0.0,0.0,4.0713,4.217,0.0,0.0,0.0,0.0,0.0,0.0,0.0,0.0,0.0,0.0,0.0,0.0,0.0,0.0,0.0,0.0,4.232,0.0,0.0,0.0,0.0,0.0,0.0,0.0,0.0,0.0,0.0,4.9136,4.9655,5.0452,4.922,4.8641,4.8931,4.8387,4.7989,4.7699,4.7989,4.7989,4.7735,4.8568,4.9075,4.9365,5.0416,5.1212,5.1756,5.2263,5.248,5.248,5.248,5.248,5.248,5.248,5.248,5.248,5.248,5.2526,5.2572,5.2572,5.2753,5.285,5.2893,5.306,5.3225,5.3225,5.3592,5.4069,5.4326,5.4583,5.484,5.5133,5.5794,5.6381,5.6381,5.7226,5.7997,5.7997,5.7997,5.7997,5.7997,5.7997,5.7997,5.7997,5.8437,5.8804,5.8804,5.9281,5.9905,6.0713,6.0566,6.0639,6.1153,6.1447,6.1704,6.1998,6.2254,6.2401,6.2401,6.2401,6.2144,6.1679,6.19,6.1985,6.1739,6.2082,6.2535,6.3051,6.2687,6.2262,4.0779,4.1077,0.0,4.2568,4.1972,0.0,4.1375,0.0,0.0,0.0,0.0,0.0,0.0,0.0,0.0,0.0,0.0,0.0,0.0,4.1861,0.0,0.0,0.0,0.0,0.0,0.0,0.0,0.0,0.0,0.0,0.0,0.0,4.8648,4.9655,4.8677,4.8242,4.8496,4.8242,4.7989,4.7699,4.7989,4.7989,4.7735,4.8279,4.8677,4.8967,4.9727,5.056,5.1321,5.1864,5.2226,5.248,5.248,5.248,5.248,5.248,5.248,5.248,5.248,5.2526,5.2572,5.2572,5.2627,5.2806,5.2806,5.293,5.3133,5.3469,5.3909,5.4466,5.5097,5.5427,5.5647,5.5941,5.6418,5.6822,5.6822,5.7446,5.7997,5.7997,5.7997,5.7997,5.7997,5.7997,5.7997,5.7997,5.8694,5.9208,5.9208,5.9905,6.0713,6.152,6.1153,6.1153,6.1961,6.2034,6.2254,6.2768,6.2805,6.2805,6.2805,6.2805,6.2695,6.2475,6.2695,6.2695,6.2475,6.2794,6.2953,6.2953,6.3002,6.2841]},{"header":{"parameterUnit":"m.s-1","parameterCategory":1,"la1":30.6,"la2":29.2853,"lo1":-89.7004,"lo2":-87.6739,"dy":0.0162,"dx":0.0183,"nx":112,"ny":82,"refTime":"2023-04-15T12:00:00:Z","depth":0,"parameterNumber":3,"parameterNumberName":"V-component_of_WINDS"},"data":[0.0,0.0,0.0,0.0,0.0,0.0,0.0,0.0,0.0,0.0,0.0,0.0,0.0,0.0,0.0,0.0,0.0,0.0,0.0,0.0,0.0,0.0,0.0,0.0,0.0,0.0,0.0,0.0,0.0,0.0,0.0,0.0,0.0,0.0,0.0,0.0,0.0,0.0,0.0,0.0,0.0,0.0,0.0,0.0,0.0,0.0,0.0,0.0,0.0,0.0,0.0,0.0,0.0,0.0,0.0,0.0,0.0,0.0,0.0,0.0,0.0,0.0,0.0,0.0,0.0,0.0,0.0,0.0,0.0,0.0,0.0,0.0,0.0,0.0,0.0,0.0,0.0,0.0,0.0,0.0,0.0,0.0,0.0,0.0,0.0,0.0,0.0,0.0,0.0,0.0,0.0,-0.4696,-0.608,-0.7344,-0.8257,-0.8408,-0.8195,-0.7529,0.0,0.0,0.0,0.0,0.0,0.0,0.0,0.0,0.0,0.0,0.0,0.0,0.0,0.0,0.0,0.0,0.0,0.0,0.0,0.0,0.0,0.0,0.0,0.0,0.0,0.0,0.0,0.0,0.0,0.0,0.0,0.0,0.0,0.0,0.0,0.0,0.0,0.0,0.0,0.0,0.0,0.0,0.0,0.0,0.0,0.0,0.0,0.0,0.0,0.0,0.0,0.0,0.0,0.0,0.0,0.0,0.0,0.0,0.0,0.0,0.0,0.0,0.0,0.0,0.0,0.0,0.0,0.0,0.0,0.0,0.0,0.0,0.0,0.0,0.0,0.0,0.0,0.0,0.0,0.0,0.0,0.0,0.0,0.0,0.0,0.0,0.0,0.0,0.0,0.0,0.0,0.0,0.0,0.0,0.0,0.0,0.0,0.0,0.0,0.0,0.0,0.0,0.0,0.0,-0.4017,-0.4862,-0.5958,-0.6803,-0.7197,-0.7766,-0.7918,-0.7504,0.0,0.0,0.0,0.0,0.0,0.0,0.0,0.0,0.0,0.0,0.0,0.0,0.0,0.0,0.0,0.0,0.0,0.0,0.0,0.0,0.0,0.0,0.0,0.0,0.0,0.0,0.0,0.0,0.0,0.0,0.0,0.0,0.0,0.0,0.0,0.0,0.0,0.0,0.0,0.0,0.0,0.0,0.0,0.0,0.0,0.0,0.0,0.0,0.0,0.0,0.0,0.0,0.0,0.0,0.0,0.0,0.0,0.0,0.0,0.0,0.0,0.0,0.0,0.0,0.0,0.0,0.0,0.0,0.0,0.0,0.0,0.0,0.0,0.0,0.0,0.0,0.0,0.0,0.0,0.0,0.0,0.0,0.0,0.0,0.0,0.0,0.0,0.0,0.0,0.0,0.0,0.0,0.0,0.0,0.0,0.0,0.0,0.0,0.0,0.0,0.0,0.0,0.0,-0.2247,-0.2925,-0.3859,-0.509,-0.5899,-0.6043,-0.7272,-0.7619,-0.6802,-0.7076,0.0,0.0,0.0,0.0,0.0,0.0,0.0,0.0,0.0,0.0,0.0,0.0,0.0,0.0,0.0,0.0,0.0,0.0,0.0,0.0,0.0,0.0,0.0,0.0,0.0,0.0,0.0,0.0,0.0,0.0,0.0,0.0,0.0,0.0,0.0,0.0,0.0,0.0,0.0,0.0,0.0,0.0,0.0,0.0,0.0,0.0,0.0,0.0,0.0,0.0,0.0,0.0,0.0,0.0,0.0,0.0,0.0,0.0,0.0,0.0,0.0,0.0,0.0,0.0,0.0,0.0,0.0,0.0,0.0,0.0,0.0,0.0,0.0,0.0,0.0,0.0,0.0,0.0,0.0,0.0,0.0,0.0,0.0,0.0,0.0,0.0,0.0,0.0,0.0,0.0,0.0,0.0,0.0,0.0,0.0,0.0,0.0,0.0,0.0,0.0,0.0,0.0,-0.1365,-0.186,-0.2647,-0.4018,-0.4894,-0.4979,-0.6466,-0.7002,-0.6177,-0.6295,0.0,0.0,0.0,0.0,0.0,0.0,0.0,0.0,0.0,0.0,0.0,0.0,0.0,0.0,0.0,0.0,0.0,0.0,0.0,0.0,0.0,0.0,0.0,0.0,0.0,0.0,0.0,0.0,0.0,0.0,0.0,0.0,0.0,0.0,0.0,0.0,0.0,0.0,0.0,0.0,0.0,0.0,0.0,0.0,0.0,0.0,0.0,0.0,0.0,0.0,0.0,0.0,0.0,0.0,0.0,0.0,0.0,0.0,0.0,0.0,0.0,0.0,0.0,0.0,0.0,0.0,0.0,0.0,0.0,0.0,0.0,0.0,0.0,0.0,0.0,0.0,0.0,0.0,0.0,0.0,0.0,0.0,0.0,0.0,0.0,0.0,0.0,0.0,0.0,0.0,0.0,0.0,0.0,0.0,0.0,0.0,0.0,0.0,0.0,0.0,0.0,0.0,-0.1295,-0.1412,-0.1653,-0.2867,-0.3695,-0.3867,-0.4849,-0.5689,-0.6093,-0.5255,0.0,0.0,0.0,0.0,0.0,0.0,0.0,0.0,0.0,0.0,0.0,0.0,0.0,0.0,0.0,0.0,0.0,0.0,0.0,0.0,0.0,0.0,0.0,0.0,0.0,0.0,0.0,0.0,0.0,0.0,0.0,0.0,0.0,0.0,0.0,0.0,0.0,0.0,0.0,0.0,0.0,0.0,0.0,0.0,0.0,0.0,0.0,0.0,0.0,0.0,0.0,0.0,0.0,0.0,0.0,0.0,0.0,0.0,0.0,0.0,0.0,0.0,0.0,0.0,0.0,0.0,0.0,0.0,0.0,0.0,0.0,0.0,0.0,0.0,0.0,0.0,0.0,0.0,0.0,0.0,0.0,0.0,0.0,0.0,0.0,0.0,0.0,0.0,0.0,0.0,0.0,0.0,0.0,0.0,0.0,0.0,0.0,0.0,0.0,0.0,0.0,0.0,-0.1202,-0.1314,0.0,-0.2532,-0.3084,-0.2714,-0.4151,-0.4888,-0.454,0.0,0.0,0.0,0.0,0.0,0.0,0.0,0.0,0.0,0.0,0.0,0.0,0.0,0.0,0.0,0.0,0.0,0.0,0.0,0.0,0.0,0.0,0.0,0.0,0.0,0.0,0.0,0.0,0.0,0.0,0.0,0.0,0.0,0.0,0.0,0.0,0.0,0.0,0.0,0.0,0.0,0.0,0.0,0.0,0.0,0.0,0.0,0.0,0.0,0.0,0.0,0.0,0.0,0.0,0.0,0.0,0.0,0.0,0.0,0.0,0.0,0.0,0.0,0.0,0.0,0.0,0.0,0.0,0.0,0.0,0.0,0.0,0.0,0.0,0.0,0.0,0.0,0.0,0.0,0.0,0.0,0.0,0.0,0.0,0.0,0.0,0.0,0.0,0.0,0.0,0.0,0.0,0.0,0.0,0.0,0.0,0.0,0.0,0.0,0.0,0.0,0.0,-0.1164,-0.1201,-0.1234,0.0,-0.2113,-0.2476,-0.2034,-0.32,-0.3872,-0.3608,0.0,0.0,0.0,0.0,0.0,0.0,0.0,0.0,0.0,0.0,0.0,0.0,0.0,0.0,0.0,0.0,0.0,0.0,0.0,0.0,0.0,0.0,0.0,0.0,0.0,0.0,0.0,0.0,0.0,0.0,0.0,0.0,0.0,0.0,0.0,0.0,0.0,0.0,0.0,0.0,0.0,0.0,0.0,0.0,0.0,0.0,0.0,0.0,0.0,0.0,0.0,0.0,0.0,0.0,0.0,0.0,0.0,0.0,0.0,0.0,0.0,0.0,0.0,0.0,0.0,0.0,0.0,0.0,0.0,0.0,0.0,0.0,0.0,0.0,0.0,0.0,0.0,0.0,0.0,0.0,0.0,0.0,0.0,0.0,0.0,0.0,0.0,0.0,0.0,0.0,0.0,0.0,0.0,0.0,0.0,0.0,0.0,0.0,0.0,0.0,0.0,0.0,-0.1167,-0.1296,-0.1335,-0.1335,-0.1525,-0.179,-0.1948,-0.2024,-0.2526,0.0,0.0,0.0,0.0,0.0,0.0,0.0,0.0,0.0,0.0,0.0,0.0,0.0,0.0,0.0,0.0,0.0,0.0,0.0,0.0,0.0,0.0,0.0,0.0,0.0,0.0,0.0,0.0,0.0,0.0,0.0,0.0,0.0,0.0,0.0,0.0,0.0,0.0,0.0,0.0,0.0,0.0,0.0,0.0,0.0,0.0,0.0,0.0,0.0,0.0,0.0,0.0,0.0,0.0,0.0,0.0,0.0,0.0,0.0,0.0,0.0,0.0,0.0,0.0,0.0,0.0,0.0,0.0,0.0,0.0,0.0,0.0,0.0,0.0,0.0,0.0,0.0,0.0,0.0,0.0,0.0,0.0,0.0,0.0,0.0,0.0,0.0,0.0,0.0,0.0,0.0,0.0,0.0,0.0,0.0,0.0,0.0,0.0,0.0,0.0,0.0,0.0,0.0,-0.1167,-0.1296,-0.1335,-0.1335,-0.1364,-0.1536,-0.1907,-0.1852,-0.2141,-0.282,0.0,0.0,0.0,0.0,0.0,0.0,0.0,0.0,0.0,0.0,0.0,0.0,0.0,0.0,0.0,0.0,0.0,0.0,0.0,0.0,0.0,0.0,0.0,0.0,0.0,0.0,0.0,0.0,0.0,0.0,0.0,0.0,0.0,0.0,0.0,0.0,0.0,0.0,0.0,0.0,0.0,0.0,0.0,0.0,0.0,0.0,0.0,0.0,0.0,0.0,0.0,0.0,0.0,0.0,0.0,0.0,0.0,0.0,0.0,0.0,0.0,0.0,0.0,0.0,0.0,0.0,0.0,0.0,0.0,0.0,0.0,0.0,0.0,0.0,0.0,0.0,0.0,0.0,0.0,0.0,0.0,0.0,0.0,0.0,0.0,0.0,0.0,0.0,0.0,0.0,0.0,0.0,0.0,0.0,0.0,0.0,0.0,0.0,0.0,0.0,0.0,0.0,-0.1167,-0.1296,-0.1335,-0.1335,-0.1273,-0.1437,-0.1732,-0.1767,-0.1906,-0.232,0.0,0.0,0.0,0.0,0.0,0.0,0.0,0.0,0.0,0.0,0.0,0.0,0.0,0.0,0.0,0.0,0.0,0.0,0.0,0.0,0.0,0.0,0.0,0.0,0.0,0.0,0.0,0.0,0.0,0.0,0.0,0.0,0.0,0.0,0.0,0.0,0.0,0.0,0.0,0.0,0.0,0.0,0.0,0.0,0.0,0.0,0.0,0.0,0.0,0.0,0.0,0.0,0.0,0.0,0.0,0.0,0.0,0.0,0.0,0.0,0.0,0.0,0.0,0.0,0.0,0.0,0.0,0.0,0.0,0.0,0.0,0.0,0.0,0.0,0.0,0.0,0.0,0.0,0.0,0.0,0.0,0.0,0.0,0.0,0.0,0.0,0.0,0.0,0.0,0.0,0.0,0.0,0.0,0.0,0.0,0.0,0.0,0.0,0.0,0.0,0.0,0.0,-0.117,-0.1221,-0.1335,-0.1335,-0.1335,-0.1414,-0.1571,-0.169,-0.1895,-0.2122,0.0,0.0,0.0,0.0,0.0,0.0,0.0,0.0,0.0,0.0,0.0,0.0,0.0,0.0,0.0,0.0,0.0,0.0,0.0,0.0,0.0,0.0,0.0,0.0,0.0,0.0,0.0,0.0,0.0,0.0,0.0,0.0,0.0,0.0,0.0,0.0,0.0,0.0,0.0,0.0,0.0,0.0,0.0,0.0,0.0,0.0,0.0,0.0,0.0,0.0,0.0,0.0,0.0,0.0,0.0,0.0,0.0,0.0,0.0,0.0,0.332,0.0,0.0,0.0,0.0,0.0,0.0,0.0,0.0,0.0,0.0,0.0,0.0,0.0,0.0,0.0,0.0,0.0,0.0,0.0,0.0,0.0,0.0,0.0,0.0,0.0,0.0,0.0,0.0,0.0,0.0,0.0,0.0,0.0,0.0,0.0,0.0,0.0,0.0,0.0,0.0,0.0,-0.1198,-0.1235,-0.1335,-0.1335,-0.1335,-0.1414,-0.1571,-0.1614,-0.1742,-0.2047,-0.2082,0.0,0.0,0.0,0.0,0.0,0.0,0.0,0.0,0.0,0.0,0.0,0.0,0.0,0.0,0.0,0.0,0.0,0.0,0.0,0.0,0.0,0.0,0.0,0.0,0.0,0.0,0.0,0.0,0.0,0.0,0.0,0.0,0.0,0.0,0.0,0.0,0.0,0.0,0.0,0.0,0.0,0.0,0.0,0.0,0.0,0.0,0.0,0.0,0.0,0.0,0.0,0.0,0.0,0.0,0.0,0.0,0.0,0.0,0.0,0.0,0.3497,0.0,0.0,0.0,0.0,0.0,0.0,0.0,0.0,0.0,0.0,0.0,0.0,0.0,0.0,0.0,0.0,0.0,0.0,0.0,0.0,0.0,0.0,0.0,0.0,0.0,0.0,0.0,0.0,0.0,0.0,0.0,0.0,0.0,0.0,0.0,0.0,0.0,0.0,0.0,0.0,-0.1209,-0.1238,-0.1335,-0.1335,-0.1335,-0.1335,-0.1414,-0.1476,-0.1689,-0.1971,-0.2042,0.0,0.0,0.0,0.0,0.0,0.0,0.0,0.0,0.0,0.0,0.0,0.0,0.0,0.0,0.0,0.0,0.0,0.0,0.0,0.0,0.0,0.0,0.0,0.0,0.0,0.0,0.0,0.0,0.0,0.0,0.0,0.0,0.0,0.0,0.0,0.0,0.0,0.0,0.0,0.0,0.0,0.0,0.0,0.0,0.0,0.0,0.0,0.0,0.0,0.0,0.0,0.0,0.0,0.343,0.3369,0.3295,0.3311,0.336,0.3509,0.3495,0.3516,0.3499,0.3427,0.0,0.0,0.0,0.0,0.0,0.0,0.0,0.0,0.0,0.0,0.0,0.0,0.0,0.0,0.0,0.0,0.0,0.0,0.0,0.0,0.0,0.0,0.0,0.0,-0.1193,-0.1174,0.0,0.0,0.0,0.0,0.0,0.0,0.0,0.0,0.0,0.0,0.0,0.0,-0.1212,-0.1238,-0.1335,-0.1335,-0.1335,-0.1335,-0.1335,-0.1492,-0.1633,-0.1822,-0.2006,-0.224,0.0,0.0,0.0,0.0,0.0,0.0,0.0,0.0,0.0,0.0,0.0,0.0,0.0,0.0,0.0,0.0,0.0,0.0,0.0,0.0,0.0,0.0,0.0,0.0,0.0,0.0,0.0,0.0,0.0,0.0,0.0,0.0,0.4181,0.4289,0.0,0.0,0.0,0.0,0.0,0.0,0.0,0.0,0.0,0.0,0.0,0.0,0.0,0.3533,0.3397,0.3422,0.3426,0.3418,0.3511,0.3585,0.3577,0.3654,0.3699,0.3707,0.3638,0.0,0.3499,0.3132,0.0,0.0,0.0,0.0,0.0,0.0,0.0,0.0,0.0,0.0,0.0,0.0,0.0,0.0,0.0,0.0,0.0,0.0,0.0,0.0,0.0,0.0,-0.1212,-0.1212,-0.1209,-0.1206,0.0,-0.1187,-0.1179,-0.1201,-0.1191,0.0,0.0,0.0,0.0,0.0,0.0,0.0,-0.1212,-0.1238,-0.1335,-0.1335,-0.1335,-0.1335,-0.1335,-0.1492,-0.1633,-0.1822,-0.1975,-0.2198,-0.2395,-0.2395,0.0,0.0,0.0,0.0,0.0,0.0,0.0,0.0,0.0,0.0,0.0,0.0,0.0,0.0,0.0,0.0,0.0,0.0,0.0,0.0,0.0,0.0,0.0,0.0,0.0,0.0,0.0,0.0,0.0,0.448,0.4366,0.4295,0.43,0.43,0.0,0.0,0.0,0.0,0.0,0.0,0.0,0.0,0.0,0.3555,0.3505,0.3462,0.3434,0.3462,0.3487,0.3442,0.3565,0.3601,0.3556,0.3597,0.3614,0.3614,0.3573,0.356,0.3569,0.33,0.3205,0.3132,0.0,0.0,0.0,0.0,0.2402,0.153,0.2109,0.1764,0.0,0.1462,0.0,0.0,0.0,0.0,0.0,0.0,0.0,0.0,0.0,0.0,-0.1238,-0.1238,-0.1224,-0.1212,-0.1212,-0.1174,-0.116,0.0,-0.1213,-0.1201,-0.1232,0.0,0.0,0.0,0.0,-0.1217,-0.1235,-0.1249,-0.1335,-0.1335,-0.1335,-0.1335,-0.1335,-0.1492,-0.1644,-0.1858,-0.2011,-0.2238,-0.2458,-0.2458,-0.2474,0.0,0.0,0.0,0.0,0.0,0.0,0.0,0.0,0.0,0.0,0.0,0.0,0.0,0.0,0.0,0.0,0.0,0.0,0.0,0.0,0.0,0.0,0.0,0.0,0.0,0.0,0.0,0.0,0.4731,0.4527,0.4428,0.4367,0.43,0.0,0.0,0.0,0.0,0.0,0.0,0.3727,0.3601,0.3487,0.3539,0.3373,0.3268,0.3287,0.3413,0.3448,0.3389,0.3547,0.363,0.3569,0.3593,0.3589,0.3569,0.3569,0.3589,0.3547,0.3335,0.3092,0.2941,0.3018,0.2785,0.2402,0.2693,0.2184,0.153,0.2112,0.1991,0.1569,0.2051,0.0,0.0749,0.0225,0.0,0.0,0.0,0.0,-0.1335,-0.1335,-0.1251,-0.1246,-0.1246,-0.1228,-0.1212,-0.1212,-0.1182,-0.117,0.0,-0.1198,-0.1186,-0.1217,0.0,0.0,0.0,0.0,-0.1228,-0.1243,-0.1253,-0.1335,-0.1335,-0.1335,-0.1335,-0.1335,-0.1492,-0.173,-0.1887,-0.212,-0.2353,-0.251,-0.251,-0.251,-0.251,0.0,0.0,0.0,0.0,0.0,0.0,0.0,0.0,0.0,0.0,0.0,0.0,0.0,0.0,0.0,0.0,0.0,0.0,0.0,0.0,0.0,0.0,0.0,0.0,0.0,0.0,0.0,0.0,0.0,0.4749,0.45,0.0,0.0,0.0,0.0,0.4028,0.3699,0.3538,0.3622,0.3491,0.3434,0.3601,0.3161,0.2941,0.3016,0.3023,0.3023,0.3023,0.3557,0.3752,0.3752,0.3838,0.3834,0.3748,0.3748,0.3703,0.3551,0.2794,0.2718,0.3023,0.2193,0.2307,0.2914,0.2548,0.233,0.2254,0.233,0.233,0.2332,0.2769,0.2112,0.102,0.0292,-0.052,0.0,0.0,-0.1235,-0.1335,-0.1335,-0.1236,-0.1215,-0.1215,-0.1213,-0.1212,-0.1212,-0.1232,-0.1226,0.0,-0.1103,-0.1092,-0.1123,0.0,-0.1167,-0.1171,-0.1219,-0.1245,-0.1217,-0.1239,-0.1335,-0.1335,-0.1335,-0.1335,-0.1335,-0.1651,-0.1887,-0.1887,-0.2277,-0.251,-0.251,-0.251,-0.251,-0.251,-0.251,0.0,0.0,0.0,0.0,0.0,0.0,0.0,0.0,0.0,0.0,0.0,0.0,0.0,0.0,0.0,0.0,0.0,0.0,0.0,0.0,0.0,0.0,0.0,0.0,0.0,0.0,0.0,0.0,0.5142,0.5014,0.0,0.488,0.4739,0.4458,0.4106,0.3966,0.3768,0.3518,0.3522,0.3479,0.3544,0.342,0.3369,0.34,0.3151,0.3253,0.3484,0.3437,0.353,0.3765,0.3797,0.3793,0.3765,0.3765,0.3744,0.3716,0.3098,0.2764,0.2646,0.2574,0.2431,0.2292,0.2139,0.2044,0.1868,0.1269,0.112,0.1122,0.0761,0.0534,0.0305,-0.0535,-0.1001,-0.1241,-0.1241,-0.1249,-0.1335,-0.1335,-0.1249,-0.1241,-0.1241,-0.1226,-0.1212,-0.1212,-0.1205,-0.1189,-0.1156,-0.1157,-0.1172,-0.1204,-0.1185,-0.1186,-0.1245,-0.1239,-0.1238,-0.1266,-0.1262,-0.1335,-0.1335,-0.1335,-0.1335,-0.1335,-0.1571,-0.173,-0.1887,-0.2199,-0.2431,-0.2588,-0.2588,-0.2588,-0.2588,-0.251,-0.2669,0.0,0.0,0.0,0.0,0.0,0.0,0.0,0.0,0.0,0.0,0.0,0.0,0.0,0.0,0.0,0.0,0.0,0.0,0.0,0.0,0.0,0.0,0.0,0.0,0.0,0.0,0.5427,0.5571,0.5447,0.5231,0.5165,0.5056,0.4776,0.437,0.4181,0.3912,0.3618,0.3544,0.3556,0.3589,0.3491,0.3446,0.3446,0.3193,0.3217,0.353,0.3374,0.353,0.3765,0.3793,0.3793,0.3765,0.3797,0.3793,0.3765,0.3452,0.2953,0.2447,0.2582,0.2357,0.1989,0.1914,0.2047,0.2094,0.142,0.1196,0.1123,0.0609,0.0612,0.0688,-0.0153,-0.0385,-0.0465,-0.0776,-0.0863,-0.0952,-0.126,-0.1265,-0.1269,-0.1338,-0.1242,-0.1227,-0.1227,-0.0984,-0.0897,-0.1197,-0.1197,-0.1202,-0.1223,-0.1201,-0.1206,-0.1277,-0.1253,-0.1245,-0.1296,-0.1276,-0.1335,-0.1335,-0.1335,-0.1335,-0.1335,-0.1571,-0.1808,-0.1887,-0.2199,-0.2468,-0.2547,-0.255,-0.2594,-0.2591,-0.2588,-0.271,-0.3036,0.0,0.0,0.0,0.0,0.0,0.0,0.0,0.0,0.0,0.0,0.0,0.0,0.0,0.0,0.0,0.0,0.0,0.0,0.0,0.0,0.0,0.0,0.0,0.6761,0.6018,0.5804,0.6108,0.5689,0.54,0.5551,0.5149,0.4875,0.4753,0.4254,0.4011,0.3936,0.3705,0.3671,0.3761,0.3374,0.3142,0.3142,0.3139,0.3139,0.3142,0.353,0.3765,0.3765,0.3854,0.3846,0.3769,0.3854,0.3846,0.3765,0.3765,0.3292,0.2504,0.1989,0.2017,0.2265,0.1902,0.2268,0.2928,0.2921,0.263,0.2265,0.2335,0.2335,0.226,0.153,0.1334,0.1135,0.0303,0.0078,-0.0161,-0.1028,-0.128,-0.1294,-0.1264,-0.1257,-0.1257,-0.1178,-0.0549,-0.0235,-0.1021,-0.1135,-0.1097,-0.1171,-0.1194,-0.1224,-0.1256,-0.134,0.0,-0.1301,-0.1277,-0.1335,-0.1335,-0.1335,-0.1337,-0.1262,-0.1732,-0.1968,-0.1895,-0.2361,-0.2534,-0.2494,-0.2593,-0.2583,-0.2605,-0.2594,-0.2621,-0.2485,0.0,0.0,0.0,0.0,0.0,0.0,0.0,0.0,0.0,0.0,0.0,0.0,0.0,0.0,0.0,0.0,0.0,0.0,0.0,0.0,0.0,0.0,0.9913,0.8274,0.7686,0.7299,0.69,0.669,0.6451,0.6211,0.5836,0.5471,0.5118,0.4603,0.4187,0.4037,0.3883,0.3736,0.3761,0.3686,0.3608,0.3608,0.3295,0.3295,0.3608,0.3374,0.3452,0.3765,0.3789,0.3789,0.3765,0.3789,0.3785,0.3765,0.3765,0.3452,0.2904,0.2493,0.2426,0.2447,0.2053,0.1993,0.2091,0.1867,0.1632,0.1415,0.1545,0.1614,0.1537,0.1383,0.1312,0.1246,0.103,0.0953,0.0714,-0.008,-0.0319,-0.0316,-0.0157,-0.0706,-0.0863,0.0705,0.0783,0.0709,0.112,0.1177,0.0696,-0.1025,-0.1254,-0.1266,-0.1333,-0.1332,0.0,-0.1335,-0.137,-0.1335,-0.1335,-0.1335,-0.1292,-0.1292,-0.1389,-0.1619,-0.1899,-0.2038,-0.2223,-0.2608,-0.261,-0.2579,-0.2512,-0.2927,-0.3101,0.0,0.0,0.0,0.0,0.0,0.0,0.0,0.0,0.0,0.0,0.0,0.0,0.0,0.0,0.0,0.0,0.0,0.0,0.0,0.0,0.0,0.0,1.116,1.0948,1.0024,0.9019,0.8155,0.7409,0.7133,0.6852,0.66,0.6202,0.5805,0.5512,0.5015,0.4589,0.4394,0.4077,0.3921,0.3843,0.3765,0.3765,0.3765,0.353,0.353,0.3765,0.353,0.353,0.3765,0.3765,0.3765,0.0,0.3765,0.3765,0.3765,0.3765,0.353,0.0,0.0,0.0,0.0,0.0,0.2553,0.2506,0.2445,0.2265,0.2023,0.2317,0.2371,0.2356,0.2379,0.2386,0.2317,0.2044,0.1971,0.1721,0.1069,0.0821,0.0816,0.105,0.0642,0.048,0.1756,0.1976,0.1965,0.215,0.2409,0.0,0.0493,-0.0082,-0.0409,-0.0594,-0.1101,-0.1441,-0.1381,-0.1392,-0.1335,-0.1335,-0.1302,-0.1359,-0.1339,-0.1409,0.0,0.0,0.0,-0.2237,-0.2659,-0.2644,0.0,0.0,0.0,-0.3061,-0.2982,0.0,0.0,0.0,-0.331,-0.3406,0.0,0.0,0.0,0.0,0.0,0.0,0.0,0.0,0.0,0.0,0.0,0.0,0.0,0.0,0.0,0.0,1.2182,1.2081,1.1706,1.0296,0.8889,0.7942,0.726,0.6929,0.6827,0.6411,0.6105,0.597,0.5512,0.5042,0.4784,0.0,0.0,0.0,0.0,0.3851,0.3843,0.3851,0.3851,0.3843,0.3843,0.3843,0.3843,0.3843,0.3843,0.3843,0.3843,0.3843,0.3765,0.3765,0.353,0.3064,0.2753,0.2599,0.2684,0.315,0.3392,0.3542,0.3871,0.0,0.0,0.3822,0.3846,0.3793,0.3875,0.3899,0.3757,0.3096,0.2901,0.2755,0.2197,0.2042,0.2059,0.2274,0.2327,0.2388,0.2553,0.3144,0.3474,0.2759,0.3167,0.3506,0.2698,0.1932,0.1174,0.0508,-0.0509,-0.1205,-0.1339,-0.1427,-0.1437,-0.1437,0.0,0.0,-0.1346,-0.1575,-0.1666,-0.1585,-0.2019,-0.2364,-0.2559,-0.2624,-0.2669,-0.2669,-0.2698,-0.2712,-0.2712,-0.2682,-0.2785,-0.2785,-0.3326,-0.3506,0.0,0.0,0.0,0.0,0.0,0.0,0.0,0.0,0.0,0.0,0.0,0.0,0.0,0.0,0.0,1.2899,1.3453,1.3641,1.2926,1.24,1.1161,0.8733,0.7958,0.7545,0.7244,0.6708,0.6378,0.6351,0.5714,0.519,0.4929,0.4696,0.4467,0.4307,0.4391,0.4391,0.4307,0.4391,0.4391,0.4307,0.0,0.0,0.4307,0.4307,0.4229,0.4077,0.4077,0.3921,0.3765,0.3765,0.353,0.3067,0.3124,0.3144,0.3154,0.3309,0.3641,0.3964,0.3637,0.3733,0.401,0.3948,0.3887,0.3875,0.3895,0.3899,0.0,0.3929,0.3848,0.3644,0.3159,0.295,0.2997,0.3353,0.3353,0.3427,0.4513,0.4919,0.5069,0.4889,0.5025,0.5127,0.5073,0.3847,0.2371,0.0614,0.0443,0.0089,-0.1255,-0.1415,-0.14,-0.14,-0.1422,-0.1436,-0.1346,-0.1409,-0.1481,-0.1607,-0.202,-0.2373,-0.2497,-0.2616,-0.2669,-0.2588,-0.2703,-0.2716,-0.2804,-0.2761,-0.2785,-0.2875,-0.2964,-0.2964,0.0,0.0,0.0,0.0,0.0,0.0,0.0,0.0,0.0,0.0,0.0,1.1553,0.0,0.0,1.3374,1.378,1.3825,1.383,1.3788,1.2953,1.1626,0.9545,0.8787,0.8139,0.7407,0.6921,0.6603,0.6527,0.6047,0.5623,0.5323,0.5067,0.4862,0.4624,0.4598,0.4598,0.4465,0.4465,0.4437,0.4384,0.4384,0.4384,0.4384,0.4384,0.4307,0.4233,0.4233,0.4155,0.3921,0.3843,0.3686,0.3456,0.3493,0.3454,0.3332,0.3371,0.3688,0.4099,0.3798,0.3867,0.4022,0.3928,0.3867,0.3846,0.394,0.3969,0.4006,0.4185,0.4202,0.4173,0.4118,0.4078,0.4128,0.4679,0.4688,0.4769,0.5378,0.5556,0.5561,0.5642,0.5628,0.5622,0.5692,0.5023,0.384,0.1598,0.0448,-0.0448,-0.1256,-0.1436,-0.1436,-0.1436,-0.1436,-0.1436,-0.1436,-0.1326,-0.1414,-0.1651,-0.1961,-0.2196,-0.2431,-0.2588,-0.273,-0.2689,-0.2724,-0.2785,-0.2875,-0.2875,-0.2875,-0.2875,-0.2875,-0.2875,0.0,0.0,0.0,0.0,0.0,0.0,0.0,0.0,1.1519,1.1921,1.1983,1.2249,1.2998,1.3534,1.4012,1.4428,1.4087,1.3978,1.4421,1.3348,1.2052,1.071,0.9653,0.8763,0.8057,0.7541,0.7263,0.7258,0.7073,0.6617,0.6015,0.5725,0.5462,0.4986,0.4839,0.4757,0.4737,0.4668,0.4624,0.4604,0.4604,0.4604,0.4604,0.4604,0.4604,0.452,0.4501,0.4325,0.4155,0.3921,0.3843,0.3843,0.3843,0.3647,0.3388,0.3403,0.3617,0.401,0.403,0.3989,0.3924,0.3908,0.385,0.3822,0.3985,0.4034,0.4071,0.4339,0.4389,0.4478,0.4933,0.5107,0.5191,0.5641,0.5735,0.5735,0.5735,0.5735,0.5735,0.5735,0.5735,0.5735,0.5735,0.5735,0.4924,0.2769,0.0805,-0.0538,-0.0986,-0.1077,-0.1166,-0.1346,-0.1436,-0.1436,-0.1346,-0.1179,-0.121,-0.1696,-0.1855,-0.2095,-0.2258,-0.258,-0.2756,-0.278,-0.2785,-0.2875,-0.2875,-0.2875,-0.2875,-0.2875,-0.2875,-0.2875,1.1141,1.1372,1.1409,1.0901,1.1597,1.2312,0.0,0.0,1.2739,1.2825,1.2926,1.3185,1.359,1.4012,1.4428,1.4457,1.486,1.5083,1.4866,1.4712,1.4116,1.2877,1.0918,0.9732,0.9969,0.9327,0.9071,0.9677,0.9536,0.8738,0.7281,0.7193,0.6585,0.5349,0.5368,0.5373,0.5349,0.5357,0.5352,0.5328,0.5328,0.5328,0.5328,0.5328,0.5162,0.4986,0.4728,0.447,0.4384,0.4155,0.4077,0.4077,0.3843,0.3769,0.3789,0.3786,0.3903,0.3928,0.4006,0.403,0.4006,0.3924,0.3891,0.3903,0.4006,0.4034,0.4075,0.4515,0.4661,0.475,0.5206,0.5384,0.5379,0.5646,0.5735,0.5735,0.5735,0.5735,0.5735,0.5735,0.5735,0.5735,0.5735,0.5735,0.5201,0.3868,0.3326,0.2334,0.0448,-0.0,-0.0448,-0.1346,-0.1436,-0.1346,-0.1346,-0.0622,-0.0619,-0.168,-0.1857,-0.2124,-0.2301,-0.2654,-0.2756,-0.2782,-0.2875,-0.2875,-0.2875,-0.2875,-0.2875,-0.2875,-0.2875,-0.2875,1.1462,1.1554,0.0,0.0,1.2449,1.2806,1.2882,1.3065,1.3248,1.3561,1.3546,1.3705,1.4287,1.4806,1.5208,0.0,1.5493,1.5568,1.5628,1.5057,1.4465,1.3801,1.2637,1.1522,1.0671,1.0131,0.9916,1.006,0.9849,0.9433,0.8702,0.8578,0.8321,0.7735,0.7466,0.7388,0.7323,0.7126,0.6749,0.6191,0.6191,0.5948,0.5371,0.5371,0.5366,0.5277,0.4915,0.4763,0.4634,0.4413,0.4307,0.4233,0.4077,0.3999,0.3925,0.3884,0.3818,0.3826,0.3863,0.3879,0.3871,0.3834,0.3818,0.3838,0.3928,0.4039,0.4172,0.4414,0.4567,0.4835,0.5107,0.5196,0.5374,0.5552,0.5552,0.5641,0.5646,0.5735,0.5735,0.5735,0.5735,0.5735,0.5735,0.5641,0.5379,0.4938,0.3853,0.2683,0.1342,0.0985,0.0628,0.0269,0.0257,0.0249,0.0249,0.0523,0.0538,0.009,-0.009,-0.0538,-0.1346,-0.1615,-0.2155,-0.2875,-0.2875,-0.2875,-0.2875,-0.2875,-0.2875,-0.2875,-0.2875,-0.2875,1.1921,0.0,0.0,1.2832,1.3106,1.3365,1.3668,1.3796,1.3959,1.4292,1.4307,1.4359,1.5065,1.5478,1.5767,1.5919,1.5828,1.5782,1.5771,1.5242,1.477,1.464,1.4112,1.3345,1.204,1.1411,1.1131,1.1084,1.0868,1.0529,0.9995,0.9872,0.9696,0.9356,0.9016,0.8845,0.8845,0.8632,0.8146,0.7476,0.7476,0.7056,0.6389,0.602,0.5817,0.5776,0.5241,0.495,0.494,0.4585,0.4482,0.4506,0.4242,0.4155,0.4155,0.3995,0.3917,0.3921,0.3921,0.3995,0.3995,0.3995,0.3999,0.3942,0.4044,0.4133,0.4335,0.448,0.4656,0.4919,0.5102,0.519,0.5271,0.5448,0.5457,0.5552,0.5646,0.5646,0.5641,0.5735,0.5735,0.5646,0.5641,0.5552,0.551,0.547,0.4312,0.3129,0.2314,0.17,0.1343,0.1343,0.1611,0.1629,0.138,0.1606,0.1661,0.1342,0.1164,0.0627,-0.0358,-0.0628,-0.1346,-0.2603,-0.2603,-0.2693,-0.2875,-0.2875,-0.2875,-0.2875,-0.2875,-0.2875,0.0,0.0,1.301,1.2822,1.3502,1.4116,1.3895,1.4374,1.4918,1.5321,1.5379,1.5477,1.5989,1.6072,1.5965,1.5644,1.5858,1.5801,1.4999,1.5218,1.5442,1.5576,1.4993,1.4711,0.0,1.3749,1.3213,1.3535,1.3379,1.2699,1.1305,1.1037,1.0423,0.92,0.92,0.92,0.92,0.92,0.9191,0.9104,0.9104,0.9026,0.8782,0.749,0.6915,0.6681,0.5641,0.5186,0.5175,0.4826,0.4767,0.4854,0.4506,0.4384,0.4384,0.4384,0.4229,0.4155,0.4307,0.4384,0.4384,0.4384,0.4389,0.4423,0.448,0.4508,0.4569,0.4903,0.5022,0.5018,0.5285,0.5388,0.5436,0.5514,0.5482,0.5463,0.5641,0.5641,0.5552,0.5646,0.5735,0.5641,0.5552,0.5463,0.5486,0.5433,0.4961,0.4308,0.3361,0.2142,0.1339,0.1339,0.2138,0.2314,0.1601,0.2228,0.2287,0.1422,0.125,0.0893,0.0357,0.0089,-0.0628,-0.1794,-0.1794,-0.2155,-0.2875,-0.2875,-0.2875,-0.2875,-0.2875,-0.2875,1.2714,0.0,1.339,1.3715,1.4214,1.4678,1.4895,1.5107,1.5292,1.5409,1.5412,1.5493,1.5655,1.5978,1.6108,1.5983,1.6021,1.6057,1.5688,1.553,1.5384,1.5485,1.5291,0.0,0.0,0.0,0.0,1.3502,1.3448,1.3199,1.254,1.2603,1.2348,1.1828,1.1641,1.1478,1.1305,1.1144,1.0712,1.0086,0.947,0.9131,0.9043,0.8636,0.8406,0.8177,0.7077,0.6512,0.6331,0.537,0.5074,0.5095,0.4742,0.4668,0.4733,0.4733,0.4778,0.4737,0.4511,0.4384,0.4384,0.4384,0.4389,0.4403,0.4451,0.4511,0.4658,0.4732,0.4936,0.5094,0.5094,0.5302,0.5413,0.5413,0.5471,0.5468,0.5664,0.5684,0.5641,0.5735,0.5735,0.5641,0.5552,0.5469,0.5289,0.4961,0.4945,0.4683,0.4009,0.3695,0.3528,0.3469,0.3667,0.3578,0.3218,0.3486,0.3559,0.3123,0.3218,0.2769,0.1875,0.1433,0.0628,-0.0538,-0.0896,-0.1436,-0.2155,-0.2155,-0.2424,-0.2875,-0.2875,-0.2875,1.3735,1.4201,1.4481,1.443,1.486,1.5223,1.5325,1.534,1.5423,1.5423,1.5487,1.5599,1.5882,1.6046,1.6285,1.6365,1.6155,1.595,1.6072,1.5569,1.5409,1.5833,1.5778,1.5647,0.0,0.0,0.0,1.3806,1.3787,1.3622,1.3385,1.3464,1.3435,1.3266,1.3088,1.2957,1.2683,1.2604,1.2167,1.1435,1.0733,1.0346,1.0336,0.9762,0.9487,0.9293,0.8102,0.753,0.7315,0.6538,0.6189,0.6058,0.594,0.5952,0.5916,0.6047,0.5933,0.5629,0.5015,0.4723,0.4777,0.4698,0.4668,0.4706,0.4628,0.4706,0.4779,0.4867,0.5023,0.5096,0.5096,0.5174,0.5303,0.5398,0.5422,0.5473,0.5681,0.5689,0.5641,0.5735,0.5735,0.5641,0.5552,0.5504,0.5314,0.4915,0.5052,0.5023,0.4472,0.455,0.4659,0.4681,0.4485,0.4335,0.4205,0.4193,0.4161,0.4109,0.421,0.3849,0.2861,0.2596,0.1792,0.0448,0.009,-0.0538,-0.1436,-0.1436,-0.1615,-0.2155,-0.2424,-0.2513,1.5507,1.5967,1.617,1.5104,1.5362,1.5762,1.5358,1.5369,1.5452,1.5438,1.5487,1.574,0.0,0.0,1.6365,1.6743,1.6158,1.5736,1.5974,1.5435,1.5423,0.0,0.0,0.0,0.0,0.0,0.0,1.4573,0.0,1.4129,1.3862,1.3681,1.3544,1.3532,1.3532,1.3411,1.3145,1.3375,1.3363,1.3097,1.2659,1.2443,1.2345,1.0864,1.0203,1.0124,0.881,0.8184,0.809,0.818,0.7992,0.7684,0.8016,0.8064,0.7868,0.8114,0.7624,0.6742,0.5859,0.5499,0.5344,0.5262,0.5234,0.5179,0.5096,0.5018,0.5018,0.5174,0.5118,0.505,0.5185,0.5096,0.5132,0.5323,0.5354,0.528,0.5641,0.5641,0.5552,0.5646,0.5735,0.5641,0.5552,0.5527,0.5381,0.5156,0.536,0.5286,0.4784,0.458,0.4668,0.4862,0.4662,0.4488,0.454,0.4349,0.4267,0.4186,0.4283,0.4101,0.3578,0.3578,0.2864,0.1255,0.1166,0.0628,-0.0628,-0.0628,-0.0628,-0.0717,-0.1346,-0.1705,1.653,1.6828,1.7149,1.6891,1.6533,1.6344,1.6753,1.6284,1.5716,1.5482,1.5731,1.6078,0.0,0.0,0.0,1.6743,1.6242,0.0,1.6369,1.6214,0.0,1.6817,0.0,1.6316,1.6497,1.6211,0.0,0.0,1.4969,1.4603,1.4172,1.4341,1.4202,1.3809,1.3809,1.3676,1.3423,1.329,1.3085,1.2807,1.2649,1.2625,1.2613,1.2228,1.1939,1.1742,1.0752,0.9966,0.9368,0.8782,0.8338,0.7927,0.8147,0.8222,0.8313,0.8505,0.8353,0.8053,0.8043,0.6826,0.5427,0.5339,0.5359,0.5335,0.5335,0.5257,0.5179,0.5335,0.5361,0.5379,0.5518,0.5575,0.5532,0.5743,0.565,0.5641,0.5824,0.5646,0.5552,0.5824,0.5735,0.5735,0.5641,0.5545,0.5442,0.5403,0.5577,0.551,0.5061,0.5102,0.516,0.5094,0.4808,0.4632,0.4493,0.4338,0.4202,0.4202,0.4303,0.4272,0.4105,0.3757,0.34,0.2953,0.2601,0.1884,0.0628,0.0986,0.0717,-0.0179,-0.0,0.009,1.8036,1.8431,1.8812,1.7866,1.7771,1.7842,1.7504,1.6985,1.6399,1.5816,1.5975,0.0,0.0,0.0,0.0,0.0,0.0,0.0,1.6446,1.6484,1.6575,0.0,1.7175,0.0,1.6594,1.6759,1.6607,0.0,1.547,1.5058,1.4663,1.4728,1.4721,1.4276,1.4264,1.4048,1.3688,1.3314,1.3049,1.2892,1.2759,1.2699,1.2699,1.2578,1.2505,1.2357,0.0,1.1174,1.0637,1.0319,0.9834,0.949,0.9673,0.975,0.9685,0.98,0.957,0.9157,0.9385,0.8422,0.6851,0.63,0.587,0.5504,0.5504,0.5499,0.5454,0.5641,0.5598,0.5506,0.5708,0.5731,0.5675,0.5895,0.5874,0.5794,0.5964,0.5824,0.5795,0.6002,0.5852,0.5789,0.5863,0.5824,0.5822,0.5705,0.579,0.5757,0.5406,0.5363,0.5455,0.5388,0.5079,0.484,0.4639,0.4478,0.43,0.4117,0.4197,0.4261,0.4291,0.4028,0.3849,0.3578,0.3314,0.2777,0.188,0.2153,0.1973,0.1253,0.1253,0.1163,1.9706,2.025,2.0743,1.8829,1.9033,1.9417,1.7957,1.7592,1.7295,1.6314,0.0,1.6605,1.7253,1.6814,1.6524,1.6891,0.0,1.5812,1.6573,1.6576,1.6707,1.7316,1.7923,1.7853,1.6717,1.74,1.7482,1.641,1.58,1.5442,1.5139,1.5184,1.5025,1.4688,1.4688,1.4469,1.3906,1.3459,1.3194,1.3121,1.288,1.2735,1.2699,1.2469,1.241,1.2443,1.2218,0.0,1.179,1.2031,1.1824,1.1422,1.1747,1.1685,1.1494,1.1519,1.0982,1.024,1.0519,0.9951,0.8937,0.7723,0.6789,0.6195,0.6195,0.6195,0.6109,0.6166,0.5986,0.5812,0.5955,0.5782,0.5635,0.5926,0.5947,0.5925,0.6104,0.6105,0.6115,0.6079,0.5991,0.6007,0.6082,0.6195,0.6195,0.6009,0.6026,0.6044,0.5743,0.5609,0.5552,0.5646,0.5374,0.5102,0.4839,0.47,0.4515,0.4117,0.421,0.43,0.421,0.43,0.4117,0.3667,0.3667,0.3489,0.295,0.3048,0.3048,0.295,0.2412,0.2142,2.0979,2.1204,2.1478,2.1139,2.0307,1.9485,1.9025,1.8617,0.0,0.0,0.0,1.7607,1.7465,1.7253,0.0,1.7614,0.0,0.0,0.0,0.0,1.7305,0.0,0.0,0.0,0.0,0.0,0.0,0.0,0.0,1.5721,1.5712,1.5765,1.5396,1.47,1.4688,1.4469,1.3906,1.3809,1.3556,1.3121,1.3073,1.2928,1.2699,1.2662,1.2662,1.2613,1.2565,0.0,1.1997,1.2419,1.2338,1.1954,1.2409,1.2599,1.2588,1.2745,1.2486,1.2008,1.229,1.1472,1.0103,0.9182,0.8683,0.863,0.863,0.8532,0.8307,0.7601,0.7315,0.715,0.6432,0.6239,0.6211,0.6333,0.6174,0.6111,0.6235,0.6312,0.6225,0.6104,0.617,0.6211,0.623,0.6214,0.6116,0.6214,0.6244,0.623,0.6042,0.5784,0.5646,0.5735,0.5463,0.5369,0.5285,0.4954,0.4651,0.455,0.4389,0.43,0.43,0.43,0.43,0.4206,0.4206,0.3939,0.3489,0.3849,0.3849,0.3489,0.3757,0.3849,2.1683,2.1901,2.2315,2.1784,2.1401,2.0912,2.0153,0.0,0.0,0.0,0.0,1.8134,1.7962,0.0,0.0,0.0,0.0,0.0,0.0,0.0,0.0,0.0,0.0,0.0,0.0,0.0,0.0,0.0,0.0,1.6122,1.5853,1.5744,1.5486,1.5166,1.4879,1.4469,1.4105,1.3865,1.3507,1.3121,1.2976,1.2831,1.2699,1.2808,1.2894,1.2894,1.3076,0.0,1.2796,1.2894,1.2832,1.2599,1.2759,1.2771,1.2843,1.2913,1.2814,1.262,1.2963,1.2581,1.1869,1.1556,1.0514,0.928,0.9387,0.8977,0.8463,0.7957,0.7395,0.685,0.6484,0.6365,0.6337,0.6337,0.6337,0.6232,0.6337,0.6337,0.6267,0.6239,0.6285,0.6337,0.6337,0.6337,0.6232,0.6337,0.6343,0.6295,0.61,0.5979,0.5824,0.5735,0.5641,0.5463,0.528,0.5175,0.4889,0.4648,0.4567,0.4478,0.43,0.43,0.43,0.43,0.43,0.421,0.3939,0.421,0.421,0.3939,0.421,0.43,2.2227,2.2511,2.295,2.2138,2.2217,2.2032,2.0829,2.0503,0.0,0.0,1.8473,1.8772,1.8683,0.0,0.0,0.0,0.0,0.0,0.0,0.0,0.0,0.0,0.0,0.0,0.0,0.0,0.0,0.0,0.0,0.0,1.5952,1.5668,1.5547,1.5547,1.507,1.4779,1.4472,1.4075,1.3713,1.3306,1.3175,1.3004,1.2991,1.3174,1.3272,1.337,1.3566,0.0,0.0,1.3436,1.3358,1.3302,1.3163,1.3127,1.3145,1.3157,1.3036,1.3047,1.3232,1.3352,1.3255,1.346,1.2017,1.0272,1.0378,0.9858,0.9131,0.8929,0.8182,0.7461,0.6941,0.6848,0.6742,0.6537,0.6437,0.6437,0.6437,0.6337,0.6337,0.6437,0.6337,0.6337,0.6437,0.6437,0.6337,0.6337,0.6337,0.6232,0.6132,0.6116,0.607,0.5791,0.5795,0.5646,0.5374,0.5374,0.5196,0.4746,0.4661,0.4572,0.4389,0.43,0.43,0.43,0.43,0.43,0.43,0.43,0.43,0.43,0.432,0.4328,2.295,2.3038,2.3057,2.295,2.2454,2.1748,2.0857,0.0,0.0,1.9388,1.974,2.0177,1.9827,1.9071,0.0,0.0,0.0,1.6962,0.0,0.0,0.0,0.0,0.0,0.0,0.0,0.0,0.0,0.0,0.0,0.0,1.6233,1.5979,1.5737,1.5547,1.5452,1.5261,1.507,1.4949,1.4684,1.4191,1.4153,1.4065,1.3749,1.3848,1.3946,1.4229,1.4229,0.0,0.0,1.4159,1.4214,1.421,1.4156,1.418,1.4159,1.416,1.398,1.3776,1.3788,1.368,1.3465,1.3465,1.3318,1.318,1.318,1.3113,1.2737,1.1702,1.1453,1.1044,0.8962,0.8485,0.8279,0.7048,0.6542,0.6437,0.6437,0.6537,0.6537,0.6437,0.6537,0.6537,0.6437,0.6437,0.6437,0.6437,0.6437,0.6337,0.6331,0.6299,0.6273,0.6069,0.6084,0.6008,0.5824,0.5646,0.5463,0.5374,0.4928,0.4661,0.4661,0.4389,0.43,0.43,0.43,0.43,0.43,0.43,0.43,0.43,0.4385,0.4422,2.3066,2.3144,2.3144,2.3144,2.25,2.1792,2.1441,0.0,2.1128,2.0126,2.056,2.0829,1.9955,1.9521,1.9108,0.0,0.0,0.0,0.0,0.0,0.0,0.0,0.0,0.0,0.0,0.0,0.0,0.0,0.0,0.0,1.6286,1.5992,1.5737,1.5642,1.556,1.5478,1.53,1.4987,1.4779,1.4565,1.441,1.4269,1.4183,1.4346,1.441,1.452,1.4728,0.0,0.0,1.4584,1.452,1.4577,1.4577,1.454,1.4508,1.4508,1.4508,1.44,1.4196,1.4088,1.398,1.398,1.4004,1.3931,1.3619,1.3069,1.2512,1.2097,1.1049,1.0004,0.9053,0.835,0.7657,0.6917,0.6642,0.6537,0.6437,0.6437,0.6524,0.6489,0.6542,0.6599,0.6627,0.6642,0.6605,0.6559,0.6537,0.6437,0.6337,0.6337,0.6337,0.6331,0.6171,0.6059,0.6059,0.5963,0.5805,0.5578,0.5383,0.5146,0.4755,0.4776,0.4631,0.4406,0.4475,0.4496,0.4463,0.4463,0.4463,0.4463,0.45,0.4516,2.2871,2.3047,2.3144,2.3144,2.25,2.1914,0.0,0.0,2.1543,2.1202,2.1372,2.1286,2.0518,2.0096,1.9626,1.8784,0.0,1.8078,0.0,0.0,0.0,0.0,0.0,0.0,0.0,0.0,0.0,0.0,0.0,0.0,1.6724,1.6402,1.6048,1.5832,1.5655,1.556,1.556,1.5248,1.5045,1.4937,1.4786,1.4608,1.4559,1.4789,1.4978,1.495,1.5186,0.0,0.0,1.5068,1.4988,1.4886,1.4874,1.4763,1.4664,1.4775,1.468,1.4617,1.4508,1.4401,1.4424,1.4424,1.446,1.4508,1.408,1.3464,1.278,1.2877,1.162,1.0236,0.9921,0.8945,0.7858,0.7345,0.7009,0.6934,0.6753,0.6799,0.685,0.6764,0.6753,0.6845,0.679,0.6795,0.6738,0.6676,0.6691,0.6647,0.6545,0.6545,0.6518,0.6448,0.6337,0.6232,0.6132,0.6132,0.6064,0.5807,0.5701,0.5536,0.5111,0.5115,0.4957,0.4626,0.4693,0.4706,0.4573,0.4573,0.4573,0.4573,0.4598,0.4626,2.2519,2.2812,2.3144,2.3144,2.25,2.1992,0.0,2.2187,2.2075,2.276,2.2244,2.1802,2.205,2.0766,1.9533,1.9201,1.8365,0.0,0.0,0.0,0.0,0.0,0.0,0.0,0.0,0.0,0.0,0.0,0.0,0.0,1.7599,1.7357,1.6795,1.5832,1.5832,1.5832,1.5832,1.5832,1.5724,1.5507,1.5494,1.5386,1.5076,1.5412,1.5457,0.0,0.0,0.0,0.0,1.5648,1.553,1.5518,1.5175,1.4938,1.4702,1.5045,1.4753,1.4304,1.4617,1.4654,1.4659,1.4659,1.4879,1.5124,1.5124,1.4886,1.4695,1.5029,1.432,1.3195,1.2058,1.0817,0.9444,0.831,0.784,0.7675,0.7503,0.7667,0.7756,0.7129,0.7214,0.7265,0.6816,0.6811,0.6811,0.6805,0.684,0.6796,0.6796,0.6796,0.6709,0.6564,0.6642,0.6537,0.6337,0.6337,0.6232,0.6126,0.5822,0.5722,0.5717,0.5494,0.5234,0.5045,0.4979,0.4853,0.4573,0.4573,0.4573,0.4573,0.4663,0.4753,2.2012,2.2187,2.2285,2.2285,2.1855,2.1562,2.1992,2.1973,2.2095,2.278,2.2938,2.2698,2.187,2.1222,2.0377,1.9177,1.849,0.0,0.0,0.0,0.0,0.0,0.0,0.0,0.0,0.0,0.0,0.0,0.0,0.0,1.7893,1.775,1.7341,1.6402,1.6265,1.6048,1.5832,1.5832,1.5832,1.6048,1.5832,1.5832,1.594,1.5817,1.5844,0.0,0.0,0.0,0.0,1.6123,1.5897,1.5767,1.566,1.5541,1.5459,1.5178,1.512,1.5105,1.4763,1.4859,1.4999,1.4999,1.5035,1.5119,1.5287,1.5143,1.4874,1.4308,1.4008,1.3466,1.2413,1.1684,1.1211,1.0609,0.9716,0.892,0.8815,0.8276,0.7706,0.766,0.7689,0.761,0.7365,0.7382,0.7238,0.6936,0.6975,0.6899,0.6812,0.6801,0.6774,0.6698,0.6687,0.6616,0.6348,0.6337,0.6337,0.6337,0.6232,0.6095,0.5826,0.5852,0.564,0.5373,0.5415,0.534,0.5241,0.5241,0.5241,0.5246,0.5277,0.5309,0.0,2.1894,2.1894,2.1894,2.168,0.0,2.2031,2.2212,2.2498,2.3103,2.3142,2.2766,2.2025,2.1313,2.0607,1.9624,1.8889,1.8411,0.0,0.0,0.0,0.0,0.0,0.0,0.0,0.0,0.0,0.0,0.0,0.0,1.8523,1.8386,1.8037,1.7414,1.6967,1.67,1.6483,1.6374,1.6469,1.6592,1.6175,1.6149,1.6483,1.613,1.6241,0.0,0.0,0.0,0.0,1.6405,1.6193,1.5894,1.5976,1.5777,1.5407,1.5257,1.5146,1.5056,1.4736,1.4831,1.5113,1.5113,1.5246,1.5439,1.5596,1.5535,1.5323,1.4744,1.4605,1.4372,1.3291,1.2911,1.2656,1.2046,1.1309,1.0584,1.051,0.9625,0.879,0.8689,0.8368,0.8053,0.7814,0.7715,0.7686,0.7391,0.727,0.7242,0.7163,0.7045,0.6921,0.6877,0.6872,0.679,0.6589,0.6573,0.6573,0.6573,0.6573,0.6438,0.6268,0.623,0.6118,0.5807,0.5804,0.5814,0.5636,0.5636,0.5636,0.5636,0.5636,0.5636,0.0,0.0,0.0,0.0,0.0,0.0,0.0,2.2689,0.0,2.3674,2.295,2.2296,2.2446,2.1373,2.0365,2.0292,1.9464,0.0,0.0,0.0,0.0,0.0,0.0,0.0,0.0,0.0,0.0,0.0,0.0,0.0,1.9372,1.91,1.8842,1.8584,1.8053,1.7741,1.763,1.7298,1.7241,1.728,1.6714,1.6508,1.6824,1.6553,1.658,0.0,0.0,0.0,0.0,1.6753,1.6432,1.6011,1.6172,1.5676,1.4808,1.5306,1.5056,1.4425,1.4678,1.4944,1.5161,1.5161,1.5487,1.5885,1.5885,1.5885,1.5885,1.5885,1.5885,1.5672,1.46,1.4277,1.4051,1.296,1.2625,1.2459,1.2394,1.1522,1.0607,1.0146,0.9261,0.8484,0.8152,0.8042,0.8042,0.8048,0.7826,0.7604,0.7604,0.7382,0.7227,0.7008,0.6997,0.6953,0.6839,0.6812,0.6801,0.6801,0.6801,0.6801,0.6801,0.6801,0.6647,0.6225,0.6322,0.6167,0.566,0.566,0.566,0.566,0.566,0.566,2.2363,0.0,2.1894,2.1894,2.1894,0.0,0.0,0.0,0.0,0.0,0.0,2.36,2.333,2.2227,2.1176,2.0581,1.9458,1.8646,0.0,0.0,0.0,0.0,0.0,0.0,0.0,0.0,0.0,0.0,0.0,1.9372,1.9372,1.9359,1.9229,1.9229,1.9077,1.8531,1.7648,1.7537,1.759,1.7764,1.7448,1.7313,1.7413,1.7106,1.7054,0.0,0.0,0.0,1.7108,1.7028,1.6873,1.6523,1.638,1.5969,1.5614,1.5573,1.5409,1.5221,1.5294,1.5487,1.5704,1.5704,1.5789,1.5885,1.5885,1.5885,1.5885,1.5885,1.5885,1.5885,1.5565,1.5458,1.5458,1.5125,1.4221,1.3529,1.3951,1.2803,1.1513,1.0998,1.0524,0.9794,0.8595,0.8374,0.8263,0.8042,0.7937,0.7937,0.7937,0.7715,0.7482,0.7453,0.7227,0.7105,0.7073,0.6904,0.6801,0.6801,0.6801,0.6801,0.6801,0.6801,0.679,0.6658,0.6679,0.6669,0.6505,0.6505,0.6505,0.6505,0.6505,0.6505,2.2793,2.2291,2.1745,2.1745,2.1984,2.2244,0.0,0.0,0.0,0.0,0.0,0.0,2.3135,0.0,0.0,2.083,1.9734,0.0,0.0,0.0,0.0,0.0,0.0,0.0,0.0,0.0,0.0,0.0,0.0,1.9502,1.9372,1.9372,1.9372,1.9372,1.9372,1.91,1.8442,1.8313,1.8262,1.8397,1.8026,1.7902,1.8039,1.7593,1.745,0.0,0.0,0.0,1.7345,1.7371,1.7147,1.6756,1.6691,1.642,1.5973,1.5894,1.5791,1.5729,1.5729,1.5799,1.594,1.6062,1.5992,1.5861,1.5741,1.5801,1.5885,1.5885,1.5885,1.5885,1.5885,1.5885,1.5922,1.6042,1.5517,1.4871,1.4711,1.3477,1.2165,1.1264,1.0545,0.9778,0.893,0.8805,0.8673,0.8497,0.8263,0.8263,0.8263,0.7937,0.7826,0.7826,0.7493,0.7382,0.7382,0.7149,0.6964,0.6964,0.6964,0.6964,0.6964,0.6964,0.6964,0.6964,0.6855,0.6828,0.6888,0.6828,0.6801,0.6801,0.6801,0.6801,2.3153,2.2498,2.1849,2.1828,2.2229,2.2593,0.0,0.0,0.0,0.0,0.0,0.0,0.0,0.0,0.0,0.0,0.0,0.0,0.0,0.0,0.0,0.0,0.0,0.0,0.0,0.0,0.0,0.0,0.0,1.9747,1.9488,1.9372,1.9372,1.9372,1.9372,1.9372,1.9372,1.91,1.8971,1.8971,1.8403,1.8236,1.8448,1.7874,1.7754,1.7968,0.0,0.0,1.7675,1.7662,1.7344,1.6949,1.716,1.6756,1.6126,1.6329,1.6253,1.6087,1.6037,1.5997,1.6026,1.6143,1.6111,1.5861,1.568,1.5777,1.5958,1.6006,1.5982,1.5946,1.5946,1.5982,1.6066,1.6296,1.6308,1.6148,1.5321,1.4292,1.3127,1.1701,1.0663,0.9795,0.9325,0.9191,0.9144,0.9022,0.8778,0.8654,0.8634,0.8295,0.8066,0.8048,0.7826,0.7715,0.7715,0.7382,0.7265,0.7265,0.7265,0.7154,0.7154,0.7154,0.7154,0.7154,0.6959,0.691,0.7013,0.6904,0.6855,0.6855,0.6855,0.6855,2.3313,2.322,2.316,2.3202,2.3148,2.3261,0.0,0.0,0.0,0.0,0.0,0.0,0.0,0.0,0.0,0.0,0.0,0.0,0.0,0.0,0.0,0.0,0.0,0.0,0.0,0.0,0.0,0.0,0.0,1.9761,1.9761,1.9502,1.9372,1.9372,1.9372,1.9372,1.9372,1.9359,1.9359,1.9345,1.8961,1.8644,1.8467,1.8063,1.7983,1.7974,0.0,1.7981,1.7968,1.7901,1.7782,1.7502,1.7252,1.6977,1.6756,1.6945,1.6698,1.6291,1.6218,1.6225,1.6168,1.5992,1.5885,1.5922,1.6103,1.6187,1.6272,1.6513,1.6404,1.6223,1.6223,1.6392,1.6585,1.6622,1.6453,1.6416,1.6696,1.6222,1.5255,1.3346,1.2694,1.1774,0.9694,0.9347,0.934,0.9313,0.9313,0.9266,0.9137,0.8778,0.8507,0.8387,0.8159,0.7937,0.7937,0.7715,0.7493,0.7493,0.7376,0.7154,0.7154,0.7154,0.7154,0.7154,0.7122,0.7111,0.7127,0.7111,0.71,0.71,0.71,0.71,2.3599,2.3547,2.353,2.3487,2.3378,2.3286,0.0,0.0,0.0,0.0,0.0,0.0,0.0,0.0,0.0,0.0,0.0,0.0,0.0,0.0,0.0,0.0,0.0,0.0,0.0,0.0,0.0,0.0,0.0,0.0,1.9618,1.9488,1.9372,1.9372,1.9372,1.9372,1.9372,1.9372,1.9327,1.9145,1.9166,1.896,1.8453,1.8509,1.844,1.8242,0.0,1.8233,1.8233,1.8303,1.8103,1.7849,1.7915,1.7688,1.7477,1.779,1.7564,1.7225,1.7261,1.7085,1.6978,1.6858,1.6863,1.6758,1.6842,1.682,1.6833,1.671,1.6612,1.6513,1.6513,1.661,1.6742,1.6875,1.6815,1.6601,1.6391,1.6068,1.5506,1.3839,1.3438,1.2759,1.0911,1.0544,1.0281,0.9511,0.9313,0.9232,0.9164,0.9044,0.8897,0.8831,0.8671,0.8464,0.8389,0.8158,0.7791,0.7388,0.7265,0.7154,0.7154,0.7154,0.7154,0.7154,0.7154,0.7154,0.7154,0.7154,0.7154,0.7154,0.7154,0.7154,2.3851,2.3754,2.3696,2.3458,0.0,0.0,0.0,0.0,0.0,0.0,0.0,0.0,0.0,0.0,0.0,0.0,0.0,0.0,0.0,0.0,0.0,0.0,0.0,0.0,0.0,0.0,0.0,0.0,0.0,0.0,1.972,1.9591,1.9475,1.9488,1.9488,1.9372,1.9372,1.9372,1.9273,1.9067,1.9193,1.9058,1.8617,1.8736,1.8677,1.8597,1.8597,1.8597,1.8597,1.8597,1.8424,1.817,1.8397,1.8397,1.8263,1.8437,1.8384,1.8237,1.8061,1.7925,1.7707,1.7598,1.7631,1.7563,1.7398,1.7401,1.7316,1.7166,1.7179,1.7102,1.6815,1.6839,1.6936,1.7129,1.7177,1.7006,1.6245,1.6053,1.5688,1.4381,1.4143,1.3737,1.2276,1.1777,1.1146,1.0083,0.9613,0.93,0.9266,0.9259,0.9245,0.9211,0.9083,0.8987,0.8762,0.8495,0.8094,0.7539,0.7393,0.7265,0.7154,0.7154,0.7154,0.7154,0.7154,0.7154,0.7154,0.7154,0.7154,0.7154,0.7154,0.7171,2.3992,2.4115,2.4258,2.339,0.0,0.0,0.0,0.0,0.0,0.0,0.0,0.0,0.0,0.0,0.0,0.0,0.0,0.0,0.0,0.0,0.0,0.0,0.0,0.0,0.0,0.0,0.0,0.0,0.0,0.0,2.0644,2.0026,1.9809,1.9761,1.9502,1.9372,1.9372,1.9372,1.9345,1.9305,1.9098,1.8964,1.8865,1.8624,1.8651,1.8891,1.8891,1.8891,1.8891,1.8891,1.8718,1.8464,1.8477,1.8637,1.8824,1.8584,1.8651,1.8712,1.8321,1.8118,1.8007,1.7674,1.7576,1.7639,1.7868,1.7957,1.8021,1.8262,1.8222,1.8068,1.7244,1.7249,1.743,1.7455,1.7455,1.7455,1.7361,1.7361,1.7009,1.5688,1.5451,1.5084,1.3765,1.2569,1.1607,1.1591,1.0499,0.9727,0.9591,0.9578,0.9523,0.9381,0.9374,0.9265,0.8904,0.8781,0.8584,0.8237,0.7785,0.7493,0.7154,0.7154,0.7154,0.7154,0.7154,0.7154,0.7154,0.7154,0.7154,0.7154,0.7154,0.7214,2.4281,2.4178,0.0,0.0,0.0,0.0,0.0,0.0,0.0,0.0,0.0,0.0,0.0,0.0,0.0,0.0,0.0,0.0,0.0,0.0,0.0,0.0,0.0,0.0,0.0,0.0,0.0,0.0,0.0,0.0,2.0141,1.9809,1.9591,1.9502,1.9488,1.9372,1.9372,1.9372,1.9372,1.9372,1.9225,1.9078,1.8931,1.8998,1.9092,1.9199,1.9199,1.9199,1.9199,1.9199,1.9025,1.8758,1.8758,1.8945,1.9185,1.9078,1.8985,1.8905,1.8685,1.8645,1.8533,1.842,1.8538,1.8709,1.8814,1.8724,1.8635,1.8739,1.8532,1.8286,1.7836,1.7769,1.7726,1.7596,1.7479,1.7479,1.7479,1.7479,1.7361,1.6879,1.6762,1.6408,1.5095,1.45,1.3904,1.3066,1.2482,1.1786,1.0902,1.0776,1.0406,0.9648,0.9523,0.9523,0.9288,0.9265,0.8948,0.8724,0.8249,0.7951,0.7838,0.7908,0.7949,0.7721,0.7641,0.7528,0.7383,0.7307,0.7307,0.7383,0.7383,0.7404,2.455,2.4322,2.4052,0.0,0.0,0.0,0.0,0.0,0.0,0.0,0.0,0.0,0.0,0.0,0.0,0.0,0.0,0.0,0.0,0.0,0.0,0.0,0.0,0.0,0.0,0.0,0.0,0.0,0.0,0.0,0.0,1.9924,1.9822,1.9822,1.9591,1.9475,1.9475,1.9488,1.9372,1.9372,1.9372,1.9265,1.9078,1.9279,1.9372,1.9372,1.9372,1.9372,1.9372,1.9372,1.9252,1.9065,1.9065,1.9185,1.9372,1.9372,1.9239,1.9065,1.9065,1.9065,1.9065,1.9065,1.9199,1.9372,1.9372,1.9243,1.8997,1.8997,1.8881,1.8661,1.8311,1.8089,1.7972,1.7726,1.7596,1.7479,1.7479,1.7479,1.7479,1.7479,1.7479,1.7244,1.6408,1.5817,1.5332,1.4381,1.3897,1.3212,1.2268,1.2149,1.1802,1.0979,1.0859,1.0859,1.0859,1.0707,1.0375,0.9792,0.9463,0.9043,0.8431,0.8396,0.8445,0.8212,0.8123,0.8008,0.7869,0.7778,0.7662,0.7635,0.7635,0.7657,2.455,2.4444,0.0,0.0,0.0,0.0,0.0,0.0,0.0,0.0,0.0,0.0,0.0,0.0,0.0,0.0,0.0,0.0,0.0,0.0,0.0,0.0,0.0,0.0,0.0,0.0,0.0,0.0,0.0,0.0,0.0,2.0845,2.0716,2.0716,2.0155,1.9809,1.9809,1.9475,1.9372,1.9372,1.9372,1.9372,1.9372,1.9372,1.9372,1.9372,1.9372,1.9372,1.9372,1.9372,1.9372,1.9372,1.9372,1.9372,1.9372,1.9372,1.9372,1.9372,1.9372,1.9372,1.9372,1.9372,1.9372,1.9372,1.9372,1.9372,1.9372,1.9372,1.9372,1.9359,1.8997,1.8428,1.7972,1.7972,1.7726,1.7479,1.7479,1.7479,1.7479,1.7479,1.7479,1.7479,1.7479,1.6408,1.5569,1.5569,1.45,1.3784,1.3665,1.3665,1.3665,1.3665,1.3665,1.3665,1.3665,1.3466,1.2885,1.1602,1.1484,1.0582,0.8567,0.8561,0.8561,0.8561,0.8561,0.8561,0.8445,0.8445,0.8329,0.7985,0.7985,0.7937,2.455,2.4008,0.0,0.0,0.0,0.0,0.0,0.0,0.0,0.0,0.0,0.0,0.0,0.0,0.0,0.0,0.0,0.0,0.0,0.0,0.0,0.0,0.0,0.0,0.0,0.0,0.0,0.0,0.0,0.0,0.0,2.0385,2.004,2.004,1.9707,1.9475,1.9475,1.9488,1.9372,1.9372,1.9372,1.9372,1.9372,1.9372,1.9372,1.9372,1.9372,1.9372,1.9372,1.9372,1.9372,1.9372,1.9372,1.9372,1.9372,1.9372,1.9372,1.9372,1.9372,1.9372,1.9372,1.9372,1.9372,1.9372,1.9372,1.9372,1.9372,1.9372,1.9372,1.9359,1.9243,1.8894,1.8544,1.8089,1.7726,1.7479,1.7479,1.7479,1.7479,1.7479,1.7479,1.7479,1.7479,1.7244,1.6891,1.6891,1.6644,1.6053,1.5095,1.4262,1.3665,1.3665,1.3665,1.3665,1.3665,1.2773,1.203,1.1671,1.0831,1.0046,0.9308,0.9394,0.9327,0.9093,0.8991,0.8872,0.8732,0.8634,0.8641,0.8612,0.8612,0.8636,2.4322,0.0,0.0,0.0,0.0,0.0,0.0,0.0,0.0,0.0,0.0,0.0,0.0,0.0,0.0,0.0,0.0,0.0,0.0,0.0,0.0,0.0,0.0,0.0,0.0,0.0,0.0,0.0,0.0,0.0,0.0,2.05,2.0399,2.0399,2.0053,1.9822,1.9707,1.9707,1.9591,1.9372,1.9475,1.9475,1.9372,1.9372,1.9372,1.9372,1.9372,1.9372,1.9372,1.9372,1.9372,1.9372,1.9372,1.9372,1.9372,1.9372,1.9372,1.9372,1.9372,1.9372,1.9372,1.9372,1.9372,1.9372,1.9372,1.9372,1.9372,1.9372,1.9372,1.9372,1.9372,1.9127,1.8765,1.8428,1.8077,1.7843,1.7726,1.7726,1.7608,1.7479,1.7479,1.7479,1.7479,1.7479,1.7479,1.7479,1.7479,1.7244,1.6408,1.5688,1.5213,1.5213,1.5213,1.5213,1.5213,1.45,1.3545,1.2586,1.1744,1.0861,0.97,0.9774,0.97,0.9457,0.9493,0.9372,0.922,0.9131,0.9131,0.9098,0.9098,0.8976,2.4053,0.0,0.0,0.0,0.0,0.0,0.0,0.0,0.0,0.0,0.0,0.0,0.0,0.0,0.0,0.0,0.0,0.0,0.0,0.0,0.0,0.0,0.0,0.0,0.0,0.0,0.0,0.0,0.0,0.0,0.0,2.1203,2.1203,2.1203,2.0845,2.0486,2.027,2.027,1.9938,1.9372,1.9707,1.9591,1.9372,1.9372,1.9372,1.9372,1.9372,1.9372,1.9372,1.9372,1.9372,1.9372,1.9372,1.9372,1.9372,1.9372,1.9372,1.9372,1.9372,1.9372,1.9372,1.9372,1.9372,1.9372,1.9372,1.9372,1.9372,1.9372,1.9372,1.9372,1.9372,1.9127,1.8997,1.8997,1.8648,1.8298,1.8089,1.8089,1.796,1.7608,1.7596,1.7479,1.7479,1.7479,1.7479,1.7479,1.7479,1.7479,1.7479,1.7479,1.7479,1.7479,1.7479,1.7479,1.7479,1.7361,1.629,1.4023,1.3784,1.2586,1.0065,0.9822,0.9822,0.9822,0.9822,0.9822,0.9822,0.9822,0.97,0.9335,0.9335,0.9214,0.0,0.0,0.0,0.0,0.0,0.0,0.0,0.0,0.0,0.0,0.0,0.0,0.0,0.0,0.0,0.0,0.0,0.0,0.0,0.0,0.0,0.0,0.0,0.0,0.0,0.0,0.0,0.0,0.0,0.0,2.1203,2.096,2.0845,2.0845,2.05,2.027,1.9924,1.9924,1.9707,0.0,1.9475,1.9475,1.9372,1.9372,1.9372,1.9372,1.9372,1.9372,1.9372,1.9372,1.9372,1.9372,1.9372,1.9372,1.9372,1.9372,1.9372,1.9372,1.9372,1.9372,1.9372,1.9372,1.9372,1.9372,1.9372,1.9372,1.9372,1.9372,1.9372,1.9372,1.9372,1.9359,1.9243,1.9243,1.8894,1.8415,1.8311,1.8311,1.8194,1.796,1.7843,1.7843,1.7596,1.7479,1.7479,1.7479,1.7479,1.7479,1.7479,1.7479,1.7479,1.7479,1.7479,1.7479,1.7479,1.6526,1.5806,1.5213,1.4262,1.2946,1.139,1.0301,0.9822,0.9822,0.9822,0.9822,0.9822,0.9822,0.9822,0.97,0.97,0.97,0.0,0.0,0.0,0.0,0.0,0.0,0.0,0.0,0.0,0.0,0.0,0.0,0.0,0.0,0.0,0.0,0.0,0.0,0.0,0.0,0.0,0.0,0.0,0.0,0.0,0.0,0.0,0.0,0.0,2.1203,2.1203,2.1089,2.096,2.096,2.0845,2.0615,2.027,2.0385,2.0284,1.9822,1.9924,1.9822,1.9591,1.9475,1.9372,1.9372,1.9372,1.9372,1.9372,1.9372,1.9372,1.9372,1.9372,1.9372,1.9372,1.9372,1.9372,1.9372,1.9372,1.9372,1.9372,1.9372,1.9372,1.9372,1.9372,1.9372,1.9372,1.9372,1.9372,1.9372,1.9372,1.9372,1.9372,1.9372,1.9127,1.8777,1.8648,1.8648,1.8532,1.8089,1.7972,1.7843,1.7608,1.7479,1.7479,1.7479,1.7479,1.7479,1.7479,1.7479,1.7479,1.7479,1.7479,1.7479,1.7479,1.6879,1.629,1.5688,1.4976,1.4023,1.2706,1.1985,1.102,0.9822,0.9822,0.9822,0.9822,0.9822,0.9822,0.9822,0.9822,0.9822,0.0,0.0,0.0,0.0,0.0,0.0,0.0,0.0,0.0,0.0,0.0,0.0,0.0,0.0,0.0,0.0,0.0,0.0,0.0,0.0,0.0,0.0,0.0,0.0,0.0,0.0,0.0,0.0,0.0,2.1203,2.1203,2.1203,2.1203,2.1203,2.1159,2.1001,2.0644,2.0887,2.0773,2.0186,2.0472,2.027,1.9707,1.9475,1.9372,1.9372,1.9372,1.9372,1.9372,1.9372,1.9372,1.9372,1.9372,1.9372,1.9372,1.9372,1.9372,1.9372,1.9372,1.9372,1.9372,1.9372,1.9372,1.9372,1.9372,1.9372,1.9372,1.9372,1.9372,1.9372,1.9372,1.9372,1.9372,1.9372,1.9372,1.9359,1.8997,1.8997,1.8765,1.8311,1.8089,1.7843,1.7608,1.7479,1.7479,1.7479,1.7479,1.7479,1.7479,1.7479,1.7479,1.7479,1.7479,1.7479,1.7479,1.7479,1.7009,1.5935,1.5924,1.5332,1.4023,1.4023,1.2946,1.0543,1.0301,1.0186,1.0186,0.9943,0.9822,0.9822,0.9822,0.9822,0.0,0.0,0.0,0.0,0.0,0.0,0.0,0.0,0.0,0.0,0.0,0.0,0.0,0.0,0.0,0.0,0.0,0.0,0.0,0.0,0.0,0.0,0.0,0.0,0.0,0.0,0.0,0.0,2.1203,2.1203,2.1203,2.1203,2.1203,2.1203,2.094,2.0681,2.0344,2.0344,2.0231,1.9878,1.9915,1.9707,1.9475,1.9372,1.9372,1.9372,1.9372,1.9372,1.9372,1.9372,1.9372,1.9372,1.9372,1.9372,1.9372,1.9372,1.9372,1.9372,1.9372,1.9372,1.9372,1.9372,1.9372,1.9372,1.9372,1.9372,1.9372,1.9372,1.9372,1.9372,1.9372,1.9372,1.9372,1.9372,1.9372,1.9372,1.9359,1.9359,1.9243,1.8881,1.8311,1.7843,1.7608,1.7479,1.7479,1.7479,1.7479,1.7479,1.7479,1.7479,1.7479,1.7479,1.7479,1.7479,1.7479,1.7479,1.7479,1.7244,1.7244,1.6644,1.5451,1.5332,1.4619,1.3186,1.1993,1.1511,1.139,1.0308,0.9822,0.9822,0.9822,0.9822,0.0,0.0,0.0,0.0,0.0,0.0,0.0,0.0,0.0,0.0,0.0,0.0,0.0,0.0,0.0,0.0,0.0,0.0,0.0,0.0,0.0,0.0,0.0,0.0,0.0,0.0,0.0,0.0,2.1203,2.113,2.094,2.094,2.0852,2.0676,2.0706,2.0608,2.0511,2.0384,2.006,1.9556,1.9584,1.9511,1.9347,1.9233,1.9212,1.9372,1.9372,1.9372,1.9372,1.9372,1.9372,1.9372,1.9372,1.9372,1.9372,1.9372,1.9372,1.9372,1.9372,1.9372,1.9372,1.9372,1.9372,1.9372,1.9372,1.9372,1.9372,1.9372,1.9372,1.9372,1.9372,1.9372,1.9372,1.9372,1.9372,1.9372,1.9372,1.9372,1.9243,1.8997,1.8532,1.8077,1.7843,1.7726,1.7726,1.7479,1.7479,1.7479,1.7479,1.7479,1.7479,1.7479,1.7479,1.7479,1.7479,1.7612,1.7696,1.7696,1.7853,1.7696,1.7202,1.6931,1.6612,1.6014,1.3961,1.2826,1.2826,1.1511,1.0906,1.0906,1.0186,0.9822,0.0,0.0,0.0,0.0,0.0,0.0,0.0,0.0,0.0,0.0,0.0,0.0,0.0,0.0,0.0,0.0,0.0,0.0,0.0,0.0,0.0,0.0,0.0,0.0,0.0,0.0,0.0,0.0,2.1203,2.1101,2.0867,2.0764,2.0603,2.0369,2.0442,2.0472,2.0472,2.025,1.9943,1.947,1.947,1.9514,1.9484,1.9258,1.9307,1.9591,1.9488,1.9372,1.9372,1.9372,1.9372,1.9372,1.9372,1.9372,1.9372,1.9372,1.9372,1.9372,1.9372,1.9372,1.9372,1.9372,1.9372,1.9372,1.9372,1.9372,1.9372,1.9372,1.9372,1.9372,1.9372,1.9372,1.9372,1.9372,1.9372,1.9372,1.9372,1.9372,1.9243,1.8997,1.8648,1.8415,1.8194,1.8077,1.796,1.7726,1.7608,1.762,1.7575,1.7575,1.7612,1.7684,1.7684,1.7684,1.7684,1.7865,1.7986,1.7986,1.8179,1.83,1.83,1.8094,1.7986,1.7986,1.597,1.461,1.4143,1.2826,1.2234,1.2234,1.0906,1.0301,0.0,0.0,0.0,0.0,0.0,0.0,0.0,0.0,0.0,0.0,0.0,0.0,0.0,0.0,0.0,0.0,0.0,0.0,0.0,0.0,0.0,0.0,0.0,0.0,0.0,0.0,0.0,0.0,2.1203,2.1203,2.1189,2.0896,2.072,2.0691,2.012,1.9813,1.9813,1.9813,1.9852,1.9814,1.9814,1.975,1.9808,1.9808,1.9976,2.027,1.9591,1.9372,1.9372,1.9372,1.9372,1.9372,1.9372,1.9372,1.9372,1.9372,1.9372,1.9372,1.9372,1.9372,1.9372,1.9372,1.9372,1.9372,1.9372,1.9372,1.9372,1.9372,1.9372,1.9372,1.9372,1.9372,1.9372,1.9372,1.9372,1.9372,1.9372,1.9372,1.9243,1.8997,1.8881,1.8765,1.8415,1.8415,1.8311,1.7972,1.7972,1.7941,1.7936,1.7853,1.795,1.8227,1.8251,1.8251,1.8251,1.8263,1.8275,1.8275,1.8287,1.83,1.83,1.8275,1.8275,1.8275,1.8141,1.726,1.5451,1.4262,1.3545,1.3545,1.2234,1.1631,0.0,0.0,0.0,0.0,0.0,0.0,0.0,0.0,0.0,0.0,0.0,0.0,0.0,0.0,0.0,0.0,0.0,0.0,0.0,0.0,0.0,0.0,0.0,0.0,0.0,0.0,0.0,0.0,0.0,2.179,2.0603,2.0472,2.0223,1.9813,1.9769,1.9662,1.9449,1.9648,1.9498,1.8865,1.9092,1.9362,1.9514,1.9514,1.9682,1.9924,1.9707,1.9707,1.9591,1.9475,1.9372,1.9372,1.9372,1.9372,1.9372,1.9372,1.9372,1.9372,1.9372,1.9372,1.9372,1.9372,1.9372,1.9372,1.9372,1.9372,1.9372,1.9372,1.9372,1.9372,1.9372,1.9372,1.9372,1.9372,1.9372,1.9372,1.9372,1.9372,1.9372,1.9243,1.9243,1.9127,1.8765,1.8907,1.8854,1.8336,1.8614,1.8696,1.8249,1.8397,1.8423,1.8287,1.83,1.83,1.83,1.8444,1.8541,1.8541,1.8698,1.8794,1.8794,1.8638,1.8541,1.8541,1.8384,1.7946,1.7381,1.6021,1.5411,1.5401,1.319,1.2209,0.0,0.0,0.0,0.0,0.0,0.0,0.0,0.0,0.0,0.0,0.0,0.0,0.0,0.0,0.0,0.0,0.0,0.0,0.0,0.0,0.0,0.0,0.0,0.0,0.0,0.0,0.0,0.0,0.0,0.0,2.0267,2.0135,1.9828,1.9286,1.9491,1.9488,1.9276,1.9488,1.9281,1.8736,1.8959,1.9305,1.969,1.969,1.992,2.027,2.0155,1.9924,1.9707,1.9475,1.9372,1.9372,1.9372,1.9372,1.9372,1.9372,1.9372,1.9372,1.9372,1.9372,1.9372,1.9372,1.9372,1.9372,1.9372,1.9372,1.9372,1.9372,1.9372,1.9372,1.9372,1.9372,1.9372,1.9372,1.9372,1.9399,1.9492,1.9439,1.9399,1.9492,1.9506,1.9533,1.9391,1.9443,1.9389,1.897,1.9266,1.9351,1.8897,1.9035,1.9063,1.8926,1.8926,1.8802,1.8802,1.8836,1.8933,1.8819,1.8976,1.9072,1.9072,1.8915,1.8819,1.8819,1.865,1.8553,1.8553,1.7483,1.6775,1.6269,1.4029,1.2523,0.0,0.0,0.0,0.0,0.0,0.0,0.0,0.0,0.0,0.0,0.0,0.0,0.0,0.0,0.0,0.0,0.0,0.0,0.0,0.0,0.0,0.0,0.0,0.0,0.0,0.0,0.0,0.0,2.0876,2.0223,2.0223,1.9916,1.9608,1.9286,1.9272,1.9272,1.9272,1.9272,1.9272,1.9272,1.9272,1.9608,2.0237,2.0237,2.0589,2.1203,2.0845,2.027,1.9488,1.9372,1.9359,1.9359,1.9372,1.9372,1.9372,1.9372,1.9372,1.9372,1.9372,1.9372,1.9372,1.9372,1.9372,1.9372,1.9372,1.9372,1.9372,1.9372,1.9372,1.9372,1.9372,1.9372,1.9386,1.9386,1.9386,1.9466,1.976,1.9586,1.9479,1.976,1.9813,1.9907,2.0187,2.0241,2.0119,1.9889,1.9781,1.9762,1.976,1.9674,1.9788,2.0081,2.0106,1.9979,1.9584,1.9584,1.9456,1.92,1.9072,1.9072,1.9072,1.9072,1.9072,1.9072,1.9072,1.9072,1.9072,1.8565,1.7561,1.6301,1.4932,1.2926,2.4322,0.0,0.0,0.0,0.0,0.0,0.0,0.0,0.0,0.0,0.0,0.0,0.0,0.0,0.0,0.0,0.0,0.0,0.0,0.0,0.0,0.0,0.0,0.0,0.0,0.0,0.0,0.0,2.2872,2.1814,2.0008,1.9594,1.9374,1.9286,1.9272,1.9272,1.9272,1.9272,1.9272,1.9272,1.9272,1.9608,2.0237,2.0237,2.0463,2.0845,2.0716,2.05,2.0053,1.9822,1.9707,1.9707,1.9475,1.9372,1.9372,1.9372,1.9372,1.9372,1.9372,1.9372,1.9372,1.9372,1.9372,1.9372,1.9372,1.9372,1.9372,1.9372,1.9372,1.9372,1.9372,1.9519,1.9679,1.9679,1.984,2.0013,2.0094,2.0054,2.0013,2.0094,2.0107,2.0134,2.0214,2.0414,2.0481,2.0146,2.0478,2.0579,2.0073,2.0229,2.0271,2.0094,2.0106,2.0106,1.9979,1.9979,1.9979,1.9851,1.9584,1.9456,1.9456,1.92,1.9072,1.9072,1.9072,1.9072,1.9072,1.8927,1.8728,1.8209,1.6914,1.4723,0.0,0.0,0.0,0.0,0.0,0.0,2.5192,2.542,2.5689,0.0,0.0,0.0,0.0,0.0,0.0,0.0,0.0,0.0,0.0,0.0,0.0,0.0,0.0,0.0,0.0,2.5698,2.4958,2.3838,2.2927,2.1611,1.967,1.9374,1.9272,1.9272,1.9272,1.9272,1.9272,1.9272,1.9272,1.9272,1.9272,1.9608,2.0237,2.0237,2.0477,2.096,2.096,2.0845,2.063,2.027,2.0155,2.004,1.9822,1.9822,1.9707,1.9591,1.9591,1.9591,1.9488,1.9372,1.9372,1.9372,1.9372,1.9372,1.9372,1.9372,1.9372,1.9372,1.9372,1.9372,1.9372,1.9492,1.9653,1.9773,1.9933,2.012,2.0361,2.0414,2.0414,2.0414,2.0414,2.0454,2.0575,2.0748,2.0802,2.0628,2.0895,2.0916,2.0631,2.0763,2.0729,2.0475,2.0488,2.0488,2.0361,2.0361,2.0234,2.0106,1.9979,1.9711,1.9584,1.9456,1.92,1.9072,1.9072,1.9072,1.9072,1.9072,1.8816,1.8162,1.6721,1.5294,0.0,0.0,0.0,0.0,0.0,0.0,2.5068,2.515,2.5171,2.5213,0.0,0.0,0.0,0.0,0.0,0.0,0.0,0.0,0.0,0.0,0.0,0.0,0.0,0.0,2.5742,2.4805,2.4196,2.4097,2.208,2.038,1.9376,1.9272,1.9272,1.9272,1.9272,1.9272,1.9272,1.9272,1.9272,1.9272,1.9272,1.9594,2.0179,2.0223,2.0574,2.1159,2.1189,2.1203,2.1203,2.0845,2.0615,2.027,2.027,2.027,2.0155,1.9822,1.9822,1.9707,1.9475,1.9372,1.9372,1.9372,1.9372,1.9372,1.9372,1.9372,1.9372,1.9372,1.9372,1.9372,1.9412,1.9439,1.9533,1.9826,1.992,2.0094,2.0615,2.0722,2.0722,2.0722,2.0722,2.0802,2.1069,2.1109,2.1109,2.1109,2.1109,2.1109,2.1109,2.1109,2.1109,2.1109,2.1109,2.0982,2.0729,2.0615,2.0488,2.0234,2.0106,1.9979,1.9711,1.9584,1.9456,1.9072,1.9072,1.9072,1.9072,1.9072,1.8419,1.7238,1.5944,1.5303,0.0,0.0,0.0,0.0,0.0,0.0,2.4654,2.4674,2.4778,0.0,0.0,0.0,0.0,0.0,0.0,0.0,0.0,0.0,0.0,0.0,0.0,0.0,0.0,0.0,2.5742,2.5528,2.502,2.4196,2.208,2.038,1.9376,1.9272,1.9272,1.9272,1.9272,1.9272,1.9272,1.9272,1.9272,1.9272,1.9272,1.9477,1.9872,2.012,2.0442,2.0837,2.1101,2.1203,2.1203,2.1089,2.0744,2.027,2.004,1.9822,1.9591,1.9475,1.9475,1.9475,1.9372,1.9372,1.9372,1.9372,1.9372,1.9372,1.9372,1.9372,1.9372,1.9372,1.9372,1.9426,1.9653,1.9893,2.0134,2.0441,2.0681,2.0882,2.1002,2.1029,2.1029,2.1029,2.1029,2.1042,2.1096,2.1109,2.1109,2.1109,2.1109,2.1109,2.1109,2.1109,2.1109,2.1109,2.1109,2.1109,2.0982,2.0982,2.0982,2.0856,2.0361,2.0106,1.9979,1.9456,1.92,1.9072,1.9072,1.9072,1.9072,1.9072,1.8944,1.8676,1.8419,1.7636,0.0,0.0,0.0,2.4778,0.0,0.0,0.0,2.4716,2.4674,2.513,2.5047,0.0,0.0,0.0,0.0,0.0,0.0,0.0,0.0,0.0,0.0,0.0,0.0,0.0,2.5762,2.5742,2.5115,2.3669,2.2384,2.1059,1.9611,1.936,1.9345,1.952,1.936,1.936,1.952,1.936,1.9272,1.9272,1.9272,1.9535,2.0003,2.0164,2.0501,2.0969,2.113,2.1203,2.1203,2.1203,2.0974,2.05,2.0515,2.0399,2.0284,1.9938,1.9822,1.9822,1.9475,1.9372,1.9372,1.9372,1.9372,1.9372,1.9372,1.9372,1.9372,1.9372,1.9372,1.9399,1.9546,1.98,2.0094,2.0388,2.0681,2.0935,2.1082,2.1109,2.1109,2.1109,2.1109,2.1109,2.1109,2.1109,2.1109,2.1109,2.1109,2.1109,2.1109,2.1109,2.1109,2.1109,2.1109,2.1109,2.1109,2.1109,2.1109,2.1109,2.0729,2.054,2.0554,1.9914,1.9468,1.9072,1.9072,1.9072,1.9072,1.9072,1.9072,1.9072,1.9072,1.8676,0.0,0.0,0.0,0.0,0.0,2.4633,0.0,0.0,0.0,2.5026,0.0,0.0,0.0,0.0,0.0,0.0,0.0,0.0,0.0,0.0,0.0,0.0,0.0,0.0,0.0,2.5859,2.5088,2.3135,2.2843,2.1919,1.9949,1.9608,1.9579,1.9842,1.9535,1.9491,1.9755,1.9433,1.9272,1.9272,1.9272,1.955,2.0062,2.0179,2.053,2.1028,2.1159,2.1203,2.1203,2.1203,2.1089,2.0845,2.0974,2.1089,2.0974,2.05,2.027,2.027,1.9707,1.9591,1.9591,1.9591,1.9475,1.9488,1.9372,1.9372,1.9372,1.9372,1.9372,1.9386,1.9439,1.9626,1.9867,2.016,2.0454,2.0735,2.0975,2.1069,2.1109,2.1109,2.1109,2.1109,2.1109,2.1109,2.1109,2.1109,2.1109,2.1109,2.1109,2.1109,2.1109,2.1109,2.1162,2.1176,2.1109,2.1162,2.1162,2.1109,2.0982,2.0988,2.1019,2.0426,1.9927,1.9273,1.9224,1.9224,1.9157,1.9096,1.9072,1.9072,1.9072,1.9072,0.0,0.0,0.0,0.0,2.4881,0.0,0.0,0.0,2.455,2.4612,0.0,0.0,0.0,0.0,0.0,0.0,0.0,0.0,0.0,0.0,0.0,0.0,0.0,0.0,0.0,2.6309,2.539,2.3152,2.3323,2.2454,2.0288,2.015,2.015,2.0179,1.9872,1.9725,1.9769,1.9433,1.9272,1.9272,1.9272,1.9316,1.9403,1.9974,2.0281,2.0384,2.0955,2.1203,2.1203,2.1203,2.1203,2.1089,2.0845,2.0615,2.0385,2.027,2.027,2.027,2.027,2.0155,2.0155,2.0155,2.0053,1.9707,1.9475,1.9372,1.9372,1.9372,1.9372,1.9426,1.9679,1.9773,1.9867,2.016,2.0454,2.0681,2.0722,2.0922,2.1109,2.1109,2.1109,2.1109,2.1109,2.1109,2.1109,2.1109,2.1109,2.1109,2.1109,2.1109,2.1109,2.1109,2.1349,2.139,2.1136,2.1349,2.139,2.1122,2.0856,2.0732,2.1019,2.0618,2.0333,1.9931,1.9695,1.9567,1.9422,1.9193,1.9072,1.9072,1.9072,1.9072,0.0,0.0,0.0,0.0,0.0,0.0,0.0,0.0,2.4612,0.0,0.0,0.0,0.0,0.0,0.0,0.0,2.5209,0.0,0.0,0.0,0.0,0.0,0.0,0.0,0.0,0.0,0.0,0.0,2.3705,2.2872,2.1186,2.0372,2.0135,2.0501,1.9842,1.9652,2.0033,1.9535,1.9272,1.9272,1.9272,1.9374,1.9564,1.9842,2.0164,2.053,2.0808,2.1042,2.1203,2.1203,2.1203,2.1203,2.1089,2.0974,2.0859,2.0615,2.0486,2.05,2.0385,2.027,2.027,2.027,2.004,1.9809,1.9707,1.9475,1.9372,1.9372,1.9372,1.9399,1.9519,1.9679,1.9826,1.9947,2.0334,2.0681,2.0681,2.0909,2.1109,2.1109,2.1109,2.1109,2.1109,2.1109,2.1109,2.1109,2.1109,2.1109,2.1109,2.1109,2.1176,2.1349,2.1323,2.1309,2.1363,2.1483,2.1496,2.1376,2.1553,2.1595,2.128,2.1304,2.0976,2.0253,2.0434,2.0303,2.0123,1.9911,1.9805,1.9793,1.9504,1.9301,2.5316,0.0,0.0,0.0,0.0,0.0,0.0,0.0,0.0,0.0,0.0,0.0,0.0,0.0,0.0,0.0,0.0,0.0,0.0,0.0,0.0,0.0,0.0,0.0,0.0,0.0,0.0,0.0,0.0,2.2914,2.196,2.0695,2.015,2.0706,1.9959,1.9725,2.0106,1.9638,1.936,1.9272,1.936,1.9491,1.9638,1.9901,2.0237,2.0603,2.0779,2.0998,2.1203,2.1203,2.1203,2.1203,2.1203,2.1203,2.1203,2.096,2.0845,2.0845,2.0615,2.05,2.0385,2.027,2.004,1.9822,1.9707,1.9591,1.9372,1.9372,1.9372,1.9386,1.9466,1.9586,1.9706,1.9786,2.0187,2.0548,2.0548,2.0842,2.1109,2.1109,2.1109,2.1109,2.1109,2.1109,2.1109,2.1109,2.1109,2.1109,2.1109,2.1109,2.1229,2.1523,2.143,2.143,2.1657,2.175,2.175,2.167,2.2138,2.2191,2.1713,2.191,2.1684,2.0886,2.1002,2.1002,2.0755,2.0617,2.0622,2.0759,2.0001,1.9579,0.0,0.0,0.0,2.5254,0.0,0.0,0.0,0.0,2.5213,0.0,0.0,0.0,0.0,0.0,0.0,0.0,0.0,0.0,0.0,0.0,0.0,0.0,0.0,0.0,0.0,0.0,0.0,0.0,0.0,0.0,2.2324,2.0933,2.0369,2.0706,2.0384,2.0062,1.9784,1.9755,1.9594,1.9286,1.9594,1.9594,1.933,2.0267,2.053,2.0281,2.0925,2.1203,2.1203,2.1203,2.1203,2.1203,2.1203,2.1203,2.1203,2.1203,2.1203,2.1203,2.1203,2.096,2.0601,2.0385,2.004,1.9693,1.9475,1.9372,1.9372,1.9372,1.9372,1.9439,1.972,1.9586,1.9452,1.9733,2.0027,2.0254,2.0254,2.0695,2.1109,2.1109,2.1109,2.1109,2.1109,2.1109,2.1109,2.1109,2.1109,2.1109,2.1109,2.1109,2.1229,2.1523,2.179,2.1964,2.1977,2.2231,2.2271,2.1991,2.2258,2.2418,2.2405,2.2418,2.2284,2.1854,2.1593,2.146,2.1327,2.1073,2.1213,2.1721,2.0515,1.9869,0.0,0.0,2.544,2.6351,0.0,0.0,0.0,0.0,0.0,0.0,0.0,0.0,0.0,0.0,0.0,0.0,0.0,0.0,0.0,0.0,2.4434,0.0,0.0,0.0,0.0,0.0,0.0,0.0,0.0,0.0,0.0,2.0604,2.0062,2.0384,1.9886,1.9652,1.9769,1.955,1.9389,1.9272,1.9389,1.9389,1.9286,1.9623,1.9828,1.9945,2.0369,2.0691,2.0911,2.1115,2.1203,2.1203,2.1203,2.1203,2.1203,2.1203,2.1203,2.1203,2.1203,2.1089,2.0974,2.0974,2.0515,2.0155,2.004,1.9707,1.9372,1.9372,1.9506,1.9679,1.9773,1.9867,1.996,2.0067,2.0307,2.0521,2.0521,2.0828,2.1109,2.1109,2.1109,2.1109,2.1109,2.1109,2.1109,2.1109,2.1269,2.1403,2.1403,2.1577,2.1804,2.2098,2.2044,2.2071,2.2258,2.2365,2.2458,2.2565,2.2659,2.2712,2.2712,2.2712,2.2619,2.2297,2.2377,2.2255,2.2015,2.1984,2.1991,2.2173,2.1432,2.0984,2.5482,2.5668,0.0,2.6599,2.6227,0.0,2.5854,0.0,0.0,0.0,0.0,0.0,0.0,0.0,0.0,0.0,0.0,0.0,0.0,2.4291,0.0,0.0,0.0,0.0,0.0,0.0,0.0,0.0,0.0,0.0,0.0,0.0,2.0151,2.0062,1.9667,1.9491,1.9594,1.9491,1.9389,1.9272,1.9389,1.9389,1.9286,1.9506,1.9667,1.9784,2.0091,2.0428,2.0735,2.0955,2.1101,2.1203,2.1203,2.1203,2.1203,2.1203,2.1203,2.1203,2.1203,2.1089,2.0974,2.0974,2.073,2.027,2.027,2.0053,1.9734,1.9726,1.9888,1.9959,2.0054,2.0174,2.0254,2.0361,2.0535,2.0681,2.0681,2.0909,2.1109,2.1109,2.1109,2.1109,2.1109,2.1109,2.1109,2.1109,2.1363,2.155,2.155,2.1804,2.2098,2.2392,2.2258,2.2258,2.2552,2.2579,2.2659,2.2846,2.2859,2.2859,2.2859,2.2859,2.2819,2.2739,2.2819,2.2819,2.2739,2.2545,2.2448,2.2448,2.231,2.1945]}]]